[[{"header":{"parameterUnit":"m.s-1","parameterCategory":1,"la1":30.6,"la2":29.2853,"lo1":-89.7004,"lo2":-87.6739,"dy":0.0162,"dx":0.0183,"nx":112,"ny":82,"refTime":"2024-03-23T12:00:00:Z","depth":0,"parameterNumber":2,"parameterNumberName":"U-component_of_WINDS"},"data":[0.0,0.0,0.0,0.0,0.0,0.0,0.0,0.0,0.0,0.0,0.0,0.0,0.0,0.0,0.0,0.0,0.0,0.0,0.0,0.0,0.0,0.0,0.0,0.0,0.0,0.0,0.0,0.0,0.0,0.0,0.0,0.0,0.0,0.0,0.0,0.0,0.0,0.0,0.0,0.0,0.0,0.0,0.0,0.0,0.0,0.0,0.0,0.0,0.0,0.0,0.0,0.0,0.0,0.0,0.0,0.0,0.0,0.0,0.0,0.0,0.0,0.0,0.0,0.0,0.0,0.0,0.0,0.0,0.0,0.0,0.0,0.0,0.0,0.0,0.0,0.0,0.0,0.0,0.0,0.0,0.0,0.0,0.0,0.0,0.0,0.0,0.0,0.0,0.0,0.0,-6.3274,-6.5785,-6.915,-7.0983,-7.0339,-6.8371,-6.5562,-6.1826,0.0,0.0,0.0,0.0,0.0,0.0,0.0,0.0,0.0,0.0,0.0,0.0,0.0,0.0,0.0,0.0,0.0,0.0,0.0,0.0,0.0,0.0,0.0,0.0,0.0,0.0,0.0,0.0,0.0,0.0,0.0,0.0,0.0,0.0,0.0,0.0,0.0,0.0,0.0,0.0,0.0,0.0,0.0,0.0,0.0,0.0,0.0,0.0,0.0,0.0,0.0,0.0,0.0,0.0,0.0,0.0,0.0,0.0,0.0,0.0,0.0,0.0,0.0,0.0,0.0,0.0,0.0,0.0,0.0,0.0,0.0,0.0,0.0,0.0,0.0,0.0,0.0,0.0,0.0,0.0,0.0,0.0,0.0,0.0,0.0,0.0,0.0,0.0,0.0,0.0,0.0,0.0,0.0,0.0,0.0,0.0,0.0,0.0,0.0,0.0,0.0,0.0,0.0,0.0,-6.2446,-6.8823,-7.0857,-7.1374,-7.0452,-6.8411,-6.5646,-6.1946,0.0,0.0,0.0,0.0,0.0,0.0,0.0,0.0,0.0,0.0,0.0,0.0,0.0,0.0,0.0,0.0,0.0,0.0,0.0,0.0,0.0,0.0,0.0,0.0,0.0,0.0,0.0,0.0,0.0,0.0,0.0,0.0,0.0,0.0,0.0,0.0,0.0,0.0,0.0,0.0,0.0,0.0,0.0,0.0,0.0,0.0,0.0,0.0,0.0,0.0,0.0,0.0,0.0,0.0,0.0,0.0,0.0,0.0,0.0,0.0,0.0,0.0,0.0,0.0,0.0,0.0,0.0,0.0,0.0,0.0,0.0,0.0,0.0,0.0,0.0,0.0,0.0,0.0,0.0,0.0,0.0,0.0,0.0,0.0,0.0,0.0,0.0,0.0,0.0,0.0,0.0,0.0,0.0,0.0,0.0,0.0,0.0,0.0,0.0,0.0,0.0,0.0,0.0,-6.0989,-6.4078,-7.0054,-7.1158,-7.1174,-7.0459,-6.8189,-6.5287,-6.1898,-5.9723,0.0,0.0,0.0,0.0,0.0,0.0,0.0,0.0,0.0,0.0,0.0,0.0,0.0,0.0,0.0,0.0,0.0,0.0,0.0,0.0,0.0,0.0,0.0,0.0,0.0,0.0,0.0,0.0,0.0,0.0,0.0,0.0,0.0,0.0,0.0,0.0,0.0,0.0,0.0,0.0,0.0,0.0,0.0,0.0,0.0,0.0,0.0,0.0,0.0,0.0,0.0,0.0,0.0,0.0,0.0,0.0,0.0,0.0,0.0,0.0,0.0,0.0,0.0,0.0,0.0,0.0,0.0,0.0,0.0,0.0,0.0,0.0,0.0,0.0,0.0,0.0,0.0,0.0,0.0,0.0,0.0,0.0,0.0,0.0,0.0,0.0,0.0,0.0,0.0,0.0,0.0,0.0,0.0,0.0,0.0,0.0,0.0,0.0,0.0,0.0,0.0,0.0,-6.4228,-6.6664,-7.0648,-7.0973,-7.0713,-7.0062,-6.7571,-6.4856,-6.1875,-5.9553,0.0,0.0,0.0,0.0,0.0,0.0,0.0,0.0,0.0,0.0,0.0,0.0,0.0,0.0,0.0,0.0,0.0,0.0,0.0,0.0,0.0,0.0,0.0,0.0,0.0,0.0,0.0,0.0,0.0,0.0,0.0,0.0,0.0,0.0,0.0,0.0,0.0,0.0,0.0,0.0,0.0,0.0,0.0,0.0,0.0,0.0,0.0,0.0,0.0,0.0,0.0,0.0,0.0,0.0,0.0,0.0,0.0,0.0,0.0,0.0,0.0,0.0,0.0,0.0,0.0,0.0,0.0,0.0,0.0,0.0,0.0,0.0,0.0,0.0,0.0,0.0,0.0,0.0,0.0,0.0,0.0,0.0,0.0,0.0,0.0,0.0,0.0,0.0,0.0,0.0,0.0,0.0,0.0,0.0,0.0,0.0,0.0,0.0,0.0,0.0,0.0,0.0,-6.586,-6.9571,-7.1006,-7.0758,-7.0062,-6.9124,-6.6525,-6.4109,-6.1979,-5.8824,0.0,0.0,0.0,0.0,0.0,0.0,0.0,0.0,0.0,0.0,0.0,0.0,0.0,0.0,0.0,0.0,0.0,0.0,0.0,0.0,0.0,0.0,0.0,0.0,0.0,0.0,0.0,0.0,0.0,0.0,0.0,0.0,0.0,0.0,0.0,0.0,0.0,0.0,0.0,0.0,0.0,0.0,0.0,0.0,0.0,0.0,0.0,0.0,0.0,0.0,0.0,0.0,0.0,0.0,0.0,0.0,0.0,0.0,0.0,0.0,0.0,0.0,0.0,0.0,0.0,0.0,0.0,0.0,0.0,0.0,0.0,0.0,0.0,0.0,0.0,0.0,0.0,0.0,0.0,0.0,0.0,0.0,0.0,0.0,0.0,0.0,0.0,0.0,0.0,0.0,0.0,0.0,0.0,0.0,0.0,0.0,0.0,0.0,0.0,0.0,0.0,0.0,-6.4299,-6.7772,-6.9993,-6.9973,-6.9594,-6.8936,-6.6793,-6.419,-6.1483,0.0,0.0,0.0,0.0,0.0,0.0,0.0,0.0,0.0,0.0,0.0,0.0,0.0,0.0,0.0,0.0,0.0,0.0,0.0,0.0,0.0,0.0,0.0,0.0,0.0,0.0,0.0,0.0,0.0,0.0,0.0,0.0,0.0,0.0,0.0,0.0,0.0,0.0,0.0,0.0,0.0,0.0,0.0,0.0,0.0,0.0,0.0,0.0,0.0,0.0,0.0,0.0,0.0,0.0,0.0,0.0,0.0,0.0,0.0,0.0,0.0,0.0,0.0,0.0,0.0,0.0,0.0,0.0,0.0,0.0,0.0,0.0,0.0,0.0,0.0,0.0,0.0,0.0,0.0,0.0,0.0,0.0,0.0,0.0,0.0,0.0,0.0,0.0,0.0,0.0,0.0,0.0,0.0,0.0,0.0,0.0,0.0,0.0,0.0,0.0,0.0,0.0,-6.0496,-6.4034,-6.7135,-6.9602,-6.9602,-6.9218,-6.8652,-6.6542,-6.3965,-6.1218,0.0,0.0,0.0,0.0,0.0,0.0,0.0,0.0,0.0,0.0,0.0,0.0,0.0,0.0,0.0,0.0,0.0,0.0,0.0,0.0,0.0,0.0,0.0,0.0,0.0,0.0,0.0,0.0,0.0,0.0,0.0,0.0,0.0,0.0,0.0,0.0,0.0,0.0,0.0,0.0,0.0,0.0,0.0,0.0,0.0,0.0,0.0,0.0,0.0,0.0,0.0,0.0,0.0,0.0,0.0,0.0,0.0,0.0,0.0,0.0,0.0,0.0,0.0,0.0,0.0,0.0,0.0,0.0,0.0,0.0,0.0,0.0,0.0,0.0,0.0,0.0,0.0,0.0,0.0,0.0,0.0,0.0,0.0,0.0,0.0,0.0,0.0,0.0,0.0,0.0,0.0,0.0,0.0,0.0,0.0,0.0,0.0,0.0,0.0,0.0,0.0,0.0,-6.1662,-6.5555,-6.8622,-7.0203,-6.9473,-6.8676,-6.8107,-6.5654,-6.3225,0.0,0.0,0.0,0.0,0.0,0.0,0.0,0.0,0.0,0.0,0.0,0.0,0.0,0.0,0.0,0.0,0.0,0.0,0.0,0.0,0.0,0.0,0.0,0.0,0.0,0.0,0.0,0.0,0.0,0.0,0.0,0.0,0.0,0.0,0.0,0.0,0.0,0.0,0.0,0.0,0.0,0.0,0.0,0.0,0.0,0.0,0.0,0.0,0.0,0.0,0.0,0.0,0.0,0.0,0.0,0.0,0.0,0.0,0.0,0.0,0.0,0.0,0.0,0.0,0.0,0.0,0.0,0.0,0.0,0.0,0.0,0.0,0.0,0.0,0.0,0.0,0.0,0.0,0.0,0.0,0.0,0.0,0.0,0.0,0.0,0.0,0.0,0.0,0.0,0.0,0.0,0.0,0.0,0.0,0.0,0.0,0.0,0.0,0.0,0.0,0.0,0.0,0.0,-6.0735,-6.539,-6.8705,-6.9262,-6.8707,-6.8297,-6.8107,-6.5654,-6.2881,-6.0156,0.0,0.0,0.0,0.0,0.0,0.0,0.0,0.0,0.0,0.0,0.0,0.0,0.0,0.0,0.0,0.0,0.0,0.0,0.0,0.0,0.0,0.0,0.0,0.0,0.0,0.0,0.0,0.0,0.0,0.0,0.0,0.0,0.0,0.0,0.0,0.0,0.0,0.0,0.0,0.0,0.0,0.0,0.0,0.0,0.0,0.0,0.0,0.0,0.0,0.0,0.0,0.0,0.0,0.0,0.0,0.0,0.0,0.0,0.0,0.0,0.0,0.0,0.0,0.0,0.0,0.0,0.0,0.0,0.0,0.0,0.0,0.0,0.0,0.0,0.0,0.0,0.0,0.0,0.0,0.0,0.0,0.0,0.0,0.0,0.0,0.0,0.0,0.0,0.0,0.0,0.0,0.0,0.0,0.0,0.0,0.0,0.0,0.0,0.0,0.0,0.0,0.0,-6.0269,-6.4802,-6.8115,-6.8853,-6.8444,-6.8035,-6.7795,-6.5727,-6.3233,-6.0337,0.0,0.0,0.0,0.0,0.0,0.0,0.0,0.0,0.0,0.0,0.0,0.0,0.0,0.0,0.0,0.0,0.0,0.0,0.0,0.0,0.0,0.0,0.0,0.0,0.0,0.0,0.0,0.0,0.0,0.0,0.0,0.0,0.0,0.0,0.0,0.0,0.0,0.0,0.0,0.0,0.0,0.0,0.0,0.0,0.0,0.0,0.0,0.0,0.0,0.0,0.0,0.0,0.0,0.0,0.0,0.0,0.0,0.0,0.0,0.0,0.0,0.0,0.0,0.0,0.0,0.0,0.0,0.0,0.0,0.0,0.0,0.0,0.0,0.0,0.0,0.0,0.0,0.0,0.0,0.0,0.0,0.0,0.0,0.0,0.0,0.0,0.0,0.0,0.0,0.0,0.0,0.0,0.0,0.0,0.0,0.0,0.0,0.0,0.0,0.0,0.0,0.0,-6.0155,-6.4053,-6.7287,-6.8805,-6.8492,-6.7963,-6.741,-6.5847,-6.3803,-6.1205,0.0,0.0,0.0,0.0,0.0,0.0,0.0,0.0,0.0,0.0,0.0,0.0,0.0,0.0,0.0,0.0,0.0,0.0,0.0,0.0,0.0,0.0,0.0,0.0,0.0,0.0,0.0,0.0,0.0,0.0,0.0,0.0,0.0,0.0,0.0,0.0,0.0,0.0,0.0,0.0,0.0,0.0,0.0,0.0,0.0,0.0,0.0,0.0,0.0,0.0,0.0,0.0,0.0,0.0,0.0,0.0,0.0,0.0,0.0,0.0,-6.3062,-6.1081,0.0,0.0,0.0,0.0,0.0,0.0,0.0,0.0,0.0,0.0,0.0,0.0,0.0,0.0,0.0,0.0,0.0,0.0,0.0,0.0,0.0,0.0,0.0,0.0,0.0,0.0,0.0,0.0,0.0,0.0,0.0,0.0,0.0,0.0,0.0,0.0,0.0,0.0,0.0,0.0,-6.0209,-6.4789,-6.8124,-6.9358,-6.9045,-6.8516,-6.7987,-6.6087,-6.3792,-6.1302,-5.8438,0.0,0.0,0.0,0.0,0.0,0.0,0.0,0.0,0.0,0.0,0.0,0.0,0.0,0.0,0.0,0.0,0.0,0.0,0.0,0.0,0.0,0.0,0.0,0.0,0.0,0.0,0.0,0.0,0.0,0.0,0.0,0.0,0.0,0.0,0.0,0.0,0.0,0.0,0.0,0.0,0.0,0.0,0.0,0.0,0.0,0.0,0.0,0.0,0.0,0.0,0.0,0.0,0.0,0.0,0.0,0.0,0.0,0.0,0.0,-6.6779,-6.5395,0.0,0.0,0.0,0.0,0.0,0.0,0.0,0.0,0.0,0.0,0.0,0.0,0.0,0.0,0.0,0.0,0.0,0.0,0.0,0.0,0.0,0.0,0.0,0.0,0.0,0.0,0.0,0.0,0.0,0.0,0.0,0.0,0.0,0.0,0.0,0.0,0.0,0.0,0.0,0.0,-6.0733,-6.4949,-6.8103,-6.9166,-6.9069,-6.8588,-6.7771,-6.6472,-6.4584,-6.2034,-5.9422,0.0,0.0,0.0,0.0,0.0,0.0,0.0,0.0,0.0,0.0,0.0,0.0,0.0,0.0,0.0,0.0,0.0,0.0,0.0,0.0,0.0,0.0,0.0,0.0,0.0,0.0,0.0,0.0,0.0,0.0,0.0,0.0,0.0,0.0,0.0,0.0,0.0,0.0,0.0,0.0,0.0,0.0,0.0,0.0,0.0,0.0,0.0,0.0,0.0,0.0,0.0,0.0,0.0,-6.9493,-6.9873,-6.99,-7.0632,-7.1555,-7.2505,-7.1202,-7.0877,-7.104,-6.8842,0.0,0.0,0.0,0.0,0.0,0.0,0.0,0.0,0.0,0.0,0.0,0.0,0.0,0.0,0.0,0.0,0.0,0.0,0.0,0.0,0.0,0.0,-6.084,-6.0377,-6.0824,-6.0412,-5.7022,0.0,0.0,0.0,0.0,0.0,0.0,0.0,0.0,0.0,0.0,0.0,-6.1147,-6.4801,-6.7554,-6.8661,-6.8853,-6.8468,-6.7362,-6.6881,-6.5567,-6.3016,-6.0655,-5.8483,0.0,0.0,0.0,0.0,0.0,0.0,0.0,0.0,0.0,0.0,0.0,0.0,0.0,0.0,0.0,0.0,0.0,0.0,0.0,0.0,0.0,0.0,0.0,0.0,0.0,0.0,0.0,0.0,0.0,0.0,0.0,0.0,-6.6136,-6.7136,0.0,0.0,0.0,0.0,0.0,0.0,0.0,0.0,0.0,0.0,0.0,0.0,0.0,-6.9113,-6.9357,-7.0877,-7.1691,-7.1799,-7.3427,-7.4187,-7.4241,-7.5381,-7.6277,-7.6955,-7.7742,0.0,-7.359,-7.2233,0.0,0.0,0.0,0.0,0.0,0.0,0.0,0.0,0.0,0.0,0.0,0.0,0.0,0.0,0.0,0.0,0.0,0.0,0.0,0.0,0.0,0.0,-6.5512,-6.468,-6.4906,-6.4931,-6.3475,-5.9809,-5.6373,-5.5106,-5.3876,-5.2337,0.0,0.0,0.0,0.0,0.0,0.0,-6.1267,-6.4638,-6.7025,-6.8107,-6.8636,-6.8468,-6.7362,-6.7218,-6.6286,-6.411,-6.2402,-6.0616,-5.8553,-5.6598,0.0,0.0,0.0,0.0,0.0,0.0,0.0,0.0,0.0,0.0,0.0,0.0,0.0,0.0,0.0,0.0,0.0,0.0,0.0,0.0,0.0,0.0,0.0,0.0,0.0,0.0,0.0,0.0,0.0,-6.5997,-6.7473,-6.8621,-6.8769,-6.8412,0.0,0.0,0.0,0.0,0.0,0.0,0.0,0.0,0.0,-7.2451,-7.1989,-7.2206,-7.3183,-7.397,-7.435,-7.4377,-7.5842,-7.6548,-7.6575,-7.7769,-7.8487,-7.884,-7.9676,-7.9262,-7.7646,-7.503,-7.282,-7.0744,0.0,0.0,0.0,0.0,-6.7111,-6.6477,-6.8691,-6.8875,-6.7872,-6.6287,0.0,0.0,0.0,0.0,0.0,0.0,0.0,-6.3596,-6.442,-6.5873,-6.7128,-6.7081,-6.7064,-6.694,-6.6438,-6.4128,-6.1161,-5.7975,-5.7173,-5.5831,-5.2157,-5.213,0.0,0.0,0.0,-5.969,-6.1927,-6.4981,-6.7121,-6.7602,-6.8131,-6.8131,-6.7362,-6.7001,-6.6094,-6.4277,-6.3299,-6.2023,-6.0249,-5.8558,-5.6873,0.0,0.0,0.0,0.0,0.0,0.0,0.0,0.0,0.0,0.0,0.0,0.0,0.0,0.0,0.0,0.0,0.0,0.0,0.0,0.0,0.0,0.0,0.0,0.0,0.0,0.0,0.0,0.0,-6.8011,-6.9323,-7.0506,-7.0554,-6.9951,0.0,0.0,0.0,0.0,0.0,0.0,-7.242,-7.2831,-7.3948,-7.6087,-7.549,-7.5734,-7.7036,-7.7063,-7.7063,-7.7063,-7.781,-7.8243,-7.827,-7.9119,-7.9666,-7.9783,-8.0347,-8.0562,-8.0188,-7.719,-7.5002,-7.3331,-7.1073,-6.955,-6.8833,-7.0323,-7.01,-6.9447,-7.2381,-7.2498,-7.1267,-7.0232,-6.8481,-6.6259,-6.3829,0.0,0.0,0.0,0.0,-6.586,-6.6852,-6.7689,-6.8463,-6.9016,-6.8777,-6.8396,-6.8246,-6.7342,-6.5248,-6.0871,-6.0358,-5.9226,-5.4916,-5.5406,0.0,-5.5905,-5.8838,-6.1446,-6.2817,-6.527,-6.6929,-6.7073,-6.7578,-6.7723,-6.7314,-6.6835,-6.5981,-6.4731,-6.4012,-6.3081,-6.1646,-6.0267,-5.8962,-5.7676,0.0,0.0,0.0,0.0,0.0,0.0,0.0,0.0,0.0,0.0,0.0,0.0,0.0,0.0,0.0,0.0,0.0,0.0,0.0,0.0,0.0,0.0,0.0,0.0,0.0,0.0,0.0,0.0,0.0,-7.3359,-7.3432,0.0,0.0,0.0,0.0,-7.2399,-7.417,-7.5565,-7.6194,-7.7515,-7.8529,-7.9234,-7.9777,-8.0103,-8.0184,-8.0184,-8.0184,-8.0184,-7.9811,-7.9564,-7.9591,-7.972,-7.9828,-7.9788,-8.0374,-8.0348,-7.9762,-7.8403,-7.7198,-7.6068,-7.3743,-7.2471,-7.2097,-7.2671,-7.2839,-7.2987,-7.4164,-7.4209,-7.3594,-7.3101,-7.0624,-6.7985,-6.835,-6.6887,0.0,0.0,-6.7478,-6.8843,-6.9033,-6.9917,-7.0714,-7.0856,-7.0493,-7.0003,-6.9476,-6.8497,-6.6904,-6.4223,-6.3312,-6.2086,-5.9374,0.0,-5.9302,-5.9747,-6.0482,-6.171,-6.3779,-6.5053,-6.5967,-6.6472,-6.7001,-6.7314,-6.729,-6.6889,-6.6299,-6.5777,-6.4834,-6.3755,-6.2659,-6.1648,-6.0179,-5.8204,-5.7056,0.0,0.0,0.0,0.0,0.0,0.0,0.0,0.0,0.0,0.0,0.0,0.0,0.0,0.0,0.0,0.0,0.0,0.0,0.0,0.0,0.0,0.0,0.0,0.0,0.0,0.0,0.0,0.0,-7.4003,-7.4817,0.0,-7.3497,-7.4333,-7.4801,-7.4582,-7.6379,-7.7591,-7.7809,-7.9079,-7.9858,-8.0075,-8.032,-8.0428,-8.0428,-8.0428,-8.0428,-8.0428,-8.0259,-8.0236,-8.0263,-8.0295,-8.0186,-7.9903,-8.0115,-7.9899,-7.9377,-7.8587,-7.7692,-7.6901,-7.5326,-7.4853,-7.5085,-7.5544,-7.5988,-7.6343,-7.6834,-7.632,-7.5254,-7.3651,-7.2036,-7.0807,-7.1017,-7.0206,-6.9422,-7.0062,-7.0888,-7.1696,-7.1702,-7.1601,-7.1537,-7.192,-7.0801,-6.9878,-7.038,-6.9627,-6.8619,-6.7742,-6.6016,-6.3998,-6.2001,-6.175,-6.1571,-6.0695,-6.192,-6.3153,-6.3562,-6.5125,-6.628,-6.6472,-6.6664,-6.7049,-6.7771,-6.6413,-6.5444,-6.5281,-6.4343,-6.3431,-6.2735,-6.2087,-6.1373,-6.0661,-5.9306,-5.7309,0.0,0.0,0.0,0.0,0.0,0.0,0.0,0.0,0.0,0.0,0.0,0.0,0.0,0.0,0.0,0.0,0.0,0.0,0.0,0.0,0.0,0.0,0.0,0.0,0.0,-7.3247,-7.4902,-7.5145,-7.6096,-7.6312,-7.4994,-7.5701,-7.6266,-7.6266,-7.8135,-7.9207,-7.9207,-8.0374,-8.1025,-8.1025,-8.1025,-8.1025,-8.1025,-8.1025,-8.0934,-8.0723,-8.0639,-8.0455,-8.0295,-8.0225,-8.0005,-7.9624,-7.9624,-7.9433,-7.9119,-7.8544,-7.8158,-7.7836,-7.6703,-7.6573,-7.7177,-7.7639,-7.8074,-7.843,-7.8248,-7.7561,-7.6467,-7.4857,-7.3787,-7.3186,-7.3186,-7.2768,-7.2376,-7.2591,-7.2998,-7.3467,-7.3675,-7.3134,-7.2752,-7.3345,-7.1972,-7.0706,-7.1234,-7.0506,-6.9787,-7.0063,-6.812,-6.6142,-6.485,-6.4617,-6.407,-6.2654,-6.3826,-6.4656,-6.3947,-6.5558,-6.6688,-6.652,-6.664,-6.7049,-6.7771,-6.5818,-6.4689,-6.521,-6.3479,-6.2527,-6.2712,-6.1764,-6.1304,-6.1465,-5.9972,-5.8457,-5.6965,0.0,0.0,0.0,0.0,0.0,0.0,0.0,0.0,0.0,0.0,0.0,0.0,0.0,0.0,0.0,0.0,0.0,0.0,0.0,0.0,0.0,0.0,0.0,-7.4458,-7.5532,-7.6456,-7.6982,-7.7459,-7.7237,-7.5836,-7.6997,-7.7769,-7.7796,-7.9451,-8.0455,-8.0455,-8.1541,-8.2192,-8.2192,-8.2192,-8.2192,-8.2192,-8.2192,-8.1913,-8.1419,-8.095,-8.0384,-7.9909,-7.9459,-7.9172,-7.9172,-7.9172,-7.9172,-7.9119,-7.857,-7.8675,-7.9067,-7.7917,-7.7874,-7.8314,-7.8778,-7.8962,-7.8989,-7.8499,-7.7851,-7.7284,-7.6822,-7.5878,-7.499,-7.4963,-7.4545,-7.3985,-7.3509,-7.3716,-7.4286,-7.4829,-7.4601,-7.435,-7.4968,-7.3875,-7.2565,-7.2037,-7.1083,-7.048,-7.1033,-6.9889,-6.8602,-6.803,-6.7546,-6.6816,-6.5759,-6.6137,0.0,-6.5096,-6.6304,-6.7073,-6.6568,-6.6977,-6.729,-6.7314,-6.504,-6.4154,-6.5659,-6.255,-6.1189,-6.2659,-6.0845,-6.0018,-6.0523,-5.9054,-5.8526,-5.9008,0.0,0.0,0.0,0.0,0.0,0.0,0.0,0.0,0.0,0.0,0.0,0.0,0.0,0.0,0.0,0.0,0.0,0.0,0.0,0.0,0.0,-7.4231,-7.5126,-7.5547,-7.7122,-7.8248,-7.8019,-7.8496,-7.878,-7.8434,-7.8808,-7.918,-7.9641,-8.0537,-8.1052,-8.1052,-8.1785,-8.2192,-8.2192,-8.2192,-8.2192,-8.2192,-8.2192,-8.2099,-8.2006,-8.1138,-8.0573,-8.0479,-7.9554,-7.9172,-7.9172,-7.9172,-7.9172,-7.9172,-7.8989,-7.9041,-7.9093,-7.8361,-7.8903,-8.0,-8.0188,-8.0469,-8.0695,-8.0107,-7.9376,-7.8537,-7.7902,-7.7282,-7.6688,-7.627,-7.6035,-7.58,-7.5173,-7.5173,-7.5237,-7.5051,-7.4315,-7.3681,-7.3928,-7.3035,-7.2213,-7.2439,-7.1937,-7.161,-7.2163,-7.1292,-7.018,-6.9265,-6.8362,-6.7413,-6.6389,-6.6354,-6.6203,-6.5602,-6.6544,-6.7218,-6.7073,-6.7194,-6.7458,-6.7843,-6.6224,-6.5091,-6.4765,-6.3433,-6.2503,-6.2199,-6.1648,-6.1603,-6.2108,-6.0615,-5.9743,0.0,0.0,0.0,0.0,0.0,0.0,0.0,0.0,0.0,0.0,0.0,0.0,0.0,0.0,0.0,0.0,0.0,0.0,0.0,0.0,0.0,0.0,-7.64,-7.7287,-7.8149,-7.8925,-7.949,-7.9476,-7.9789,-8.0105,-8.0164,-7.9949,-8.0021,-8.0401,-8.0971,-8.1297,-8.1297,-8.1866,-8.2192,-8.2192,-8.2192,-8.2192,-8.2192,-8.2192,-8.2099,-8.1886,-8.1044,-8.0573,-8.0289,-7.9554,-7.9172,-7.9172,-7.9172,-7.9172,-7.9267,-7.9459,-7.9363,-7.9145,0.0,0.0,0.0,0.0,-8.1513,-8.1646,-8.0856,-8.0215,-7.9601,-7.8575,-7.8005,-7.7623,-7.6886,-7.661,-7.6479,-7.5878,-7.5721,-7.5734,-7.5699,-7.5078,-7.4507,-7.4528,-7.3749,-7.2991,-7.3067,-7.2464,-7.2062,-7.2615,-7.2037,0.0,-7.0938,-6.9986,-6.8923,-6.7647,-6.7678,-6.745,-6.6493,-6.729,-6.7867,-6.765,-6.7819,-6.7915,-6.7771,-6.6317,0.0,0.0,0.0,-6.2202,-6.135,-6.135,0.0,0.0,0.0,-6.1603,-6.1947,-6.1074,0.0,0.0,-5.8638,-5.7692,0.0,0.0,0.0,0.0,0.0,0.0,0.0,0.0,0.0,0.0,0.0,0.0,0.0,0.0,0.0,0.0,-7.874,-8.0018,-8.1321,-8.0912,-8.0553,-8.0936,-8.1051,-8.1112,-8.116,-8.0764,-8.0546,-8.0601,-8.1079,-8.1405,-8.1405,-8.1894,0.0,0.0,0.0,-8.2099,-8.2099,-8.2099,-8.1793,-8.1326,-8.0856,-8.0384,-7.9909,-7.9459,-7.9172,-7.9172,-7.9172,-7.9267,-7.9363,-7.9624,-7.9528,-7.9172,-7.9363,-7.9962,-8.0963,-8.1901,-8.2301,-8.218,-8.1245,0.0,0.0,-7.8997,-7.8414,-7.8168,-7.6979,-7.6755,-7.665,-7.5904,-7.58,-7.6047,-7.6451,-7.6237,-7.5864,-7.5894,-7.5158,-7.4268,-7.3715,-7.2765,-7.2213,-7.264,-7.2339,-7.2163,-7.264,-7.1861,-7.073,-6.9307,-6.9343,-6.9043,-6.7692,-6.8155,-6.854,-6.8083,-6.8444,0.0,-6.7362,-6.5981,-6.4945,-6.4412,-6.2569,-6.1301,-6.0982,-6.096,-6.1625,-6.298,-6.3003,-6.3692,-6.5092,-6.5047,-6.5115,-6.5184,-6.098,-6.0018,0.0,0.0,0.0,0.0,0.0,0.0,0.0,0.0,0.0,0.0,0.0,0.0,0.0,0.0,0.0,-7.9383,-8.0438,-8.1245,-8.1888,-8.2678,-8.2724,-8.1574,-8.1097,-8.1001,-8.1615,-8.1215,-8.1163,-8.1627,-8.1861,-8.2029,-8.2029,-8.2138,-8.2192,-8.2192,-8.1793,-8.1513,-8.1513,-8.1138,-8.095,-8.0856,-8.0289,0.0,-7.9909,-7.9459,-7.9172,-7.9172,-7.9172,-7.9459,-7.9719,-7.9433,-7.9267,-7.9267,-8.0126,-8.0866,-8.1577,-8.2522,-8.2898,-8.2898,-8.271,-8.2023,-8.1084,-8.0321,-7.9828,-7.9163,-7.764,-7.7455,0.0,-7.6101,-7.6401,-7.6961,-7.614,-7.59,-7.5738,-7.5395,-7.475,-7.4141,-7.361,-7.3402,-7.3167,-7.2791,-7.264,-7.2615,-7.2715,-7.2188,-7.1524,-7.0863,-6.9702,-6.8867,-6.8647,-6.8006,-6.7554,-6.7458,-6.753,-6.7506,-6.729,-6.6619,-6.5864,-6.493,-6.3733,-6.319,-6.3508,-6.3921,-6.4266,-6.4564,-6.4587,-6.4909,-6.5621,-6.5207,-6.5644,-6.6814,-6.4717,-6.3945,0.0,0.0,0.0,0.0,0.0,0.0,0.0,0.0,0.0,0.0,0.0,-7.683,-7.7236,0.0,-8.025,-8.1484,-8.2383,-8.2924,-8.288,-8.3534,-8.3469,-8.2126,-8.206,-8.2103,-8.2143,-8.1484,-8.1371,-8.1973,-8.1844,-8.1866,-8.2165,-8.2192,-8.2192,-8.2192,-8.1913,-8.1793,-8.1793,-8.1326,-8.1044,-8.1044,-8.0289,-7.9909,-7.9909,-7.9459,-7.9172,-7.9172,-7.9433,-7.9719,-7.9909,-7.9624,-7.9528,-7.9624,-8.0384,-8.0854,-8.131,-8.2252,-8.2626,-8.2626,-8.2346,-8.1847,-8.1214,-8.0361,-8.0161,-7.9854,-7.8127,-7.7904,-7.793,-7.6494,-7.6533,-7.6935,-7.6347,-7.6253,-7.6236,-7.5977,-7.5322,-7.4661,-7.4382,-7.3951,-7.3519,-7.3217,-7.2941,-7.274,-7.274,-7.274,-7.2551,-7.2076,-7.066,-6.9676,-7.0031,-6.8971,-6.8083,-6.8083,-6.8324,-6.8276,-6.7747,-6.679,-6.5963,-6.5448,-6.448,-6.4232,-6.4978,-6.5024,-6.5138,-6.5391,-6.5644,-6.5781,-6.5758,-6.6263,-6.6906,-6.7641,-6.7107,-6.6732,0.0,0.0,0.0,0.0,0.0,0.0,0.0,-7.6085,-7.6433,-7.6874,-7.8261,-7.9471,-7.9642,-8.1107,-8.2445,-8.3279,-8.4084,-8.4358,-8.3791,-8.3819,-8.3556,-8.2387,-8.285,-8.3032,-8.2553,-8.1753,-8.1461,-8.1973,-8.1681,-8.1676,-8.2165,-8.2192,-8.2192,-8.2192,-8.2099,-8.2006,-8.1913,-8.1419,-8.1138,-8.1138,-8.0289,-7.9909,-7.9909,-7.965,-7.9459,-7.9363,-7.9909,-8.0194,-8.01,-8.0194,-8.0194,-8.01,-8.0667,-8.0856,-8.0977,-8.2021,-8.2301,-8.2099,-8.1606,-8.1241,-8.0858,-8.0,-8.0,-7.9998,-7.8666,-7.826,-7.7957,-7.6927,-7.6692,-7.6778,-7.6742,-7.6632,-7.6641,-7.6726,-7.5915,-7.5099,-7.5099,-7.4388,-7.3704,-7.3634,-7.3237,-7.2986,-7.2891,-7.3293,-7.3448,-7.2844,-7.15,-7.0752,-7.1248,-6.9769,-6.8781,-6.8901,-6.9093,-6.8877,-6.8035,-6.6867,-6.6228,-6.625,-6.5301,-6.5145,-6.6209,-6.5765,-6.5644,-6.6057,-6.6562,-6.6608,-6.6218,-6.7411,-6.81,-6.8307,-6.8651,-6.8628,-7.5237,-7.5387,-7.6295,-7.812,-7.7952,-7.82,0.0,-8.1202,-8.0092,-8.1122,-8.1781,-8.2163,-8.2347,-8.3174,-8.3889,-8.3952,-8.4636,-8.4847,-8.3876,-8.3819,-8.3528,-8.2387,-8.2356,-8.2434,-8.2469,-8.202,-8.1821,-8.1973,-8.2062,-8.2111,-8.2192,-8.2192,-8.2192,-8.2192,-8.17,-8.1326,-8.0856,-8.0384,-8.01,-8.01,-8.0005,-7.9909,-7.9909,-8.0289,-8.0289,-7.9909,-8.0856,-8.1044,-8.0667,-8.1044,-8.095,-8.0667,-8.1138,-8.1326,-8.1473,-8.2575,-8.2653,-8.2099,-8.1633,-8.0813,-7.9844,-7.9752,-7.9385,-7.9147,-7.9408,-7.8856,-7.8036,-7.7402,-7.7296,-7.7263,-7.6726,-7.6622,-7.6622,-7.6607,-7.5792,-7.5006,-7.5006,-7.4557,-7.4039,-7.3621,-7.3831,-7.404,-7.3589,-7.3544,-7.3418,-7.2796,-7.1766,-7.1143,-7.1169,-6.9404,-6.8396,-6.8853,-6.8083,-6.7506,-6.7386,-6.7655,-6.7843,-6.7842,-6.6922,-6.6778,-6.777,-6.7369,-6.7067,-6.7113,-6.7595,-6.7825,-6.7756,-6.7917,-6.8468,-6.934,-6.8973,-6.8996,-7.8746,-7.8909,-7.9416,-8.1026,-8.1414,-8.1684,-8.3045,-8.2547,-8.2001,-8.2718,-8.3569,-8.4163,-8.4159,-8.5076,-8.5781,-8.5781,-8.5877,-8.5479,-8.4448,-8.4074,-8.3415,-8.1995,-8.2106,-8.2241,-8.1968,-8.1289,-8.1167,-8.1946,-8.1817,-8.1839,-8.2165,-8.2192,-8.2099,-8.17,-8.1513,-8.1326,-8.1138,-8.0573,-8.0479,-8.0762,-8.0479,-8.0384,-8.0384,-8.0573,-8.0762,-8.0856,-8.1232,-8.1326,-8.1138,-8.1326,-8.1138,-8.0762,-8.1232,-8.1204,-8.0962,-8.2141,-8.2409,-8.2138,-8.16,-8.1075,-8.0534,-7.9831,-7.9649,-7.972,-7.92,-7.8774,-7.8388,-7.7437,-7.7574,-7.7768,-7.7252,-7.7107,-7.7107,-7.7107,-7.629,-7.5476,-7.5476,-7.5103,-7.4541,-7.407,-7.39,-7.3559,-7.2759,-7.3167,-7.3293,-7.2389,-7.1673,-7.1447,-7.2066,-7.0534,-6.94,-6.9357,-6.8683,-6.8228,-6.8228,-6.8708,-6.8992,-6.9009,-6.8899,-6.8897,-6.8939,-6.8481,-6.7977,-6.7297,-6.7756,-6.7733,-6.7159,-6.8307,-6.9111,-6.9524,-6.9639,-6.996,-8.0428,-8.1028,-8.1877,-8.3474,-8.4387,-8.4767,-8.4259,-8.4032,-8.4004,-8.417,-8.4861,-8.5469,-8.5396,-8.5955,-8.6448,-8.6448,-8.6138,-8.5508,-8.4563,-8.3903,-8.3015,-8.1769,-8.1622,-8.1669,-8.1653,-8.1063,-8.105,-8.201,-8.1725,-8.1638,-8.1979,-8.2006,-8.17,-8.1232,-8.1326,-8.1326,-8.1232,-8.095,-8.1044,-8.1419,-8.1044,-8.0856,-8.0856,-8.0856,-8.1138,-8.1606,-8.1606,-8.1606,-8.1606,-8.1606,-8.1339,-8.0924,-8.1459,-8.1256,-8.0771,-8.1693,-8.1839,-8.1676,-8.1221,-8.1004,-8.0761,-8.003,-7.9912,-7.9902,-7.947,-7.8884,-7.825,-7.7732,-7.7756,-7.7904,-7.7494,-7.7386,-7.7372,-7.7308,-7.645,-7.5766,-7.5766,-7.5513,-7.5139,-7.4549,-7.4149,-7.3631,-7.2696,-7.298,-7.308,-7.2238,-7.1731,-7.1698,-7.2453,-7.138,-7.0457,-6.9979,-6.9502,-6.931,-6.931,-6.9575,-6.9788,-7.0162,-7.0202,-7.0129,-7.0101,-6.9547,-6.8869,-6.7913,-6.8374,-6.811,-6.7159,-6.8904,-6.973,-6.9753,-7.0419,-7.0856,-7.9036,-8.0649,-8.2764,-8.5133,-8.6196,-8.6709,-8.7216,-8.689,-8.648,-8.6306,-8.5991,-8.5783,-8.5952,-8.552,-8.5142,-8.5142,-8.4846,-8.442,-8.3848,-8.2963,-8.233,-8.2302,-8.0989,-8.0488,-8.1704,-8.1725,-8.1861,-8.2176,-8.2165,-8.1979,-8.1419,-8.1419,-8.1232,-8.0762,-8.1138,-8.1138,-8.0762,-8.1138,-8.1419,-8.1419,-8.1419,-8.1419,-8.1419,-8.1419,-8.17,-8.2192,-8.2192,-8.2192,-8.2192,-8.2192,-8.1839,-8.1286,-8.1975,-8.1839,-8.1297,-8.1324,-8.0971,-8.0473,-8.0555,-8.0274,-7.9871,-8.0436,-7.9852,-7.9266,-8.0777,-7.9396,-7.7507,-7.8485,-7.8057,-7.731,-7.7209,-7.7293,-7.7191,-7.6637,-7.6114,-7.5748,-7.5748,-7.5656,-7.5564,-7.5036,-7.4944,-7.4794,-7.4274,-7.3299,-7.2673,-7.264,-7.2238,-7.1925,-7.2026,-7.1479,-7.097,-7.043,-7.0394,-7.0325,-7.0325,-6.9962,-7.0128,-7.1186,-7.0282,-7.015,-7.1071,-7.0689,-7.0078,-6.9566,-7.0077,-6.9767,-6.8743,-6.9776,-7.0304,-7.0327,-7.1292,-7.1498,-8.0935,-8.3347,-8.5651,-8.7082,-8.7974,-8.8365,-8.7906,-8.7244,-8.6802,-8.6823,-8.635,-8.6136,-8.6731,-8.6076,-8.5617,-8.6055,-8.49,-8.3906,-8.3734,-8.2907,-8.2162,-8.174,-8.1362,-8.1116,-8.1179,-8.0968,-8.1281,-8.2111,-8.1886,-8.1606,-8.1419,-8.1138,-8.0856,-8.0667,-8.0856,-8.1044,-8.1138,-8.1326,-8.1606,-8.1913,-8.1913,-8.1913,-8.1913,-8.1913,-8.2006,-8.2192,-8.2192,-8.2192,-8.2165,-8.1758,-8.1731,-8.1839,-8.1242,-8.089,-8.0727,-8.0727,-8.032,-7.9886,-8.0328,-8.0561,-8.0615,-8.002,-7.9605,-7.9298,-7.947,-7.8876,-7.8193,-7.8193,-7.8217,-7.8186,-7.7817,-7.7714,-7.7638,-7.7177,-7.6651,-7.6179,-7.5813,-7.5721,-7.5538,-7.5103,-7.501,-7.4748,-7.3893,-7.3097,-7.242,-7.1754,-7.1485,-7.1467,-7.1925,-7.1529,-7.1022,-7.0477,-7.0771,-7.0954,-7.0932,-7.0786,-7.1196,-7.2196,-7.1711,-7.1433,-7.172,-7.1207,-7.0713,-7.0101,-7.0265,-7.035,-7.0434,-7.146,-7.2112,-7.2335,-7.3029,-7.325,-8.3258,-8.5895,-8.7947,-8.9187,-8.9817,-8.983,-8.8808,-8.7995,-8.7278,-8.6957,-8.6059,-8.5551,-8.5848,-8.5015,-8.4537,-8.5733,-8.471,-8.3843,-8.3903,-8.3363,-8.2504,-8.1316,-8.1243,-8.1167,-8.0726,-8.0499,-8.0835,-8.1785,-8.1376,-8.1177,-8.1392,-8.095,-8.0667,-8.0667,-8.0856,-8.1044,-8.1419,-8.1606,-8.1886,-8.2192,-8.2192,-8.2192,-8.2192,-8.2192,-8.2192,-8.2192,-8.2192,-8.2083,-8.1839,-8.1459,-8.1269,-8.1161,-8.0645,-8.0293,-8.0075,-8.0075,-7.9967,-7.9886,-8.0293,-8.0672,-8.0835,-7.9804,-7.9479,-7.937,-7.8773,-7.8521,-7.8343,-7.8165,-7.8417,-7.873,-7.8335,-7.817,-7.7912,-7.7426,-7.6743,-7.6088,-7.5813,-7.5721,-7.563,-7.5262,-7.5132,-7.474,-7.4099,-7.3094,-7.2235,-7.178,-7.0974,-7.0832,-7.1786,-7.1806,-7.1593,-7.1244,-7.1369,-7.1608,-7.2054,-7.1541,-7.1732,-7.3029,-7.2441,-7.2191,-7.2312,-7.2001,-7.1607,-7.0996,-7.0996,-7.1153,-7.1489,-7.25,-7.3227,-7.3748,-7.4658,-7.4817,-8.584,-8.8094,-8.9578,-9.1181,-9.1564,-9.1206,-9.004,-8.9021,-8.7904,-8.6678,-8.5308,-8.41,-8.3392,-8.23,-8.2045,-8.3961,-8.4036,-8.3965,-8.424,-8.4105,-8.3187,-8.0968,-8.0835,-8.0781,-8.0337,-8.0319,-8.0645,-8.1269,-8.0809,-8.0801,-8.1392,-8.095,-8.0667,-8.0762,-8.1138,-8.1419,-8.1419,-8.2006,-8.2192,-8.2192,-8.2192,-8.2192,-8.2192,-8.2192,-8.2192,-8.2192,-8.2165,-8.1839,-8.1297,-8.1242,-8.0537,-7.9587,-8.013,-7.9994,-7.9479,-7.9451,-7.9831,-8.032,-8.032,-8.0347,-8.0265,-7.9696,-7.9479,-7.9343,-7.8746,-7.8227,-7.7986,-7.844,-7.8605,-7.8776,-7.863,-7.83,-7.7988,-7.7337,-7.6452,-7.5721,-7.5721,-7.5721,-7.5721,-7.5721,-7.5303,-7.4912,-7.4947,-7.3176,-7.2089,-7.2623,-7.0897,-7.0104,-7.1711,-7.2339,-7.2665,-7.269,-7.2266,-7.2453,-7.3522,-7.2152,-7.1954,-7.3486,-7.2643,-7.2369,-7.2749,-7.2797,-7.254,-7.2076,-7.2076,-7.2132,-7.2157,-7.3146,-7.3923,-7.4427,-7.5908,-7.607,-8.7291,-9.0224,-9.2367,-9.1964,-9.2255,-9.2038,-8.9876,-8.8746,-8.7478,-8.5047,-8.3899,-8.2905,-8.1687,-8.1183,-8.1255,-8.2403,-8.259,-8.2725,-8.313,-8.3222,-8.2789,-8.1498,-8.1472,-8.1415,-8.0906,-8.0183,-8.0157,-8.1215,-8.0809,-8.0801,-8.1392,-8.095,-8.0856,-8.1232,-8.1326,-8.1606,-8.1979,-8.2099,-8.2192,-8.2192,-8.2192,-8.2192,-8.2192,-8.2192,-8.2192,-8.2165,-8.1731,-8.1432,-8.1242,-8.032,-8.0048,-8.0103,-7.937,-7.9234,-7.9451,-7.899,-7.8936,-7.9071,-7.9071,-7.9343,-7.9696,-7.9533,-7.918,-7.8719,-7.8122,-7.8169,-7.8243,-7.7464,-7.7952,-7.8514,-7.8095,-7.7949,-7.7815,-7.7321,-7.6751,-7.6179,-7.5813,-7.5721,-7.5721,-7.5721,-7.5617,-7.5094,-7.3937,-7.3276,-7.2721,-7.2011,-7.1505,-7.1326,-7.1786,-7.1661,-7.1661,-7.2062,-7.2771,-7.3261,-7.3546,-7.318,-7.2986,-7.3124,-7.2851,-7.2526,-7.2244,-7.2605,-7.2911,-7.3217,-7.3241,-7.3593,-7.4399,-7.5044,-7.5643,-7.6116,-7.6922,-7.7088,-8.9971,-9.2289,-9.3922,-9.2804,-9.2363,-9.1373,-8.8563,-8.7303,-8.5845,-8.263,-8.1376,-8.0404,-7.877,-7.8757,-7.9348,-8.0585,-8.1841,-8.2924,-8.3383,-8.3649,-8.3245,-8.182,-8.1771,-8.1546,-8.0881,-8.0528,-8.0564,-8.1269,-8.0593,-8.0624,-8.1673,-8.1232,-8.1232,-8.17,-8.1793,-8.1913,-8.2192,-8.2192,-8.2192,-8.2192,-8.2192,-8.2192,-8.2192,-8.2192,-8.2192,-8.2165,-8.1568,-8.1161,-8.0835,-7.9886,-7.9533,-7.956,-7.8882,-7.88,-7.9044,-7.8719,-7.861,-7.861,-7.861,-7.8827,-7.9044,-7.88,-7.8664,-7.8502,-7.7905,-7.8122,-7.8475,-7.7796,-7.8095,-7.8529,-7.8203,-7.8011,-7.7807,-7.7294,-7.6842,-7.6361,-7.5813,-7.5721,-7.58,-7.6061,-7.5904,-7.5499,-7.4833,-7.4183,-7.3548,-7.3198,-7.2588,-7.2283,-7.2563,-7.2106,-7.2113,-7.2916,-7.3368,-7.3824,-7.431,-7.3843,-7.3551,-7.3526,-7.3132,-7.271,-7.2453,-7.2619,-7.3048,-7.3639,-7.3639,-7.4168,-7.5226,-7.5996,-7.6575,-7.7064,-7.7938,-7.8108,-9.2982,-9.4239,-9.4682,-9.3705,-9.2288,-9.035,-8.7119,-8.5605,-8.3726,-7.9767,-7.8352,-7.7301,-7.5368,-7.5841,-7.7113,-7.8698,-8.1273,-8.3255,-8.392,-8.4248,-8.3756,-8.1965,-8.1808,-8.1559,-8.0736,-8.1052,-8.1324,-8.1405,-8.0523,-8.0566,-8.2138,-8.1793,-8.17,-8.2192,-8.2192,-8.2192,-8.2192,-8.2192,-8.2192,-8.2192,-8.2192,-8.2192,-8.2192,-8.2192,-8.2138,-8.2029,-8.1432,-8.0835,-8.0238,-7.9614,-7.9071,-7.861,-7.8699,-7.8699,-7.8699,-7.8699,-7.8699,-7.8699,-7.861,-7.861,-7.8502,-7.8013,-7.8176,-7.8502,-7.7905,-7.8122,-7.8556,-7.8312,-7.842,-7.8556,-7.842,-7.8146,-7.7807,-7.7385,-7.6933,-7.6452,-7.5905,-7.5774,-7.5983,-7.6505,-7.6244,-7.6035,-7.6323,-7.5302,-7.4636,-7.5025,-7.3882,-7.3217,-7.3979,-7.3288,-7.3162,-7.4197,-7.3946,-7.4121,-7.5151,-7.4459,-7.4091,-7.4391,-7.3503,-7.2961,-7.2929,-7.2953,-7.3139,-7.382,-7.3917,-7.4447,-7.5331,-7.6318,-7.7113,-7.7607,-7.8521,-7.8781,-9.469,-9.5121,-9.5227,-9.502,-9.3423,-9.1095,-8.7919,-8.5385,-8.2199,-7.7177,-7.5658,-7.4703,-7.3239,-7.4289,-7.5844,-7.7599,-7.9544,-8.1195,-8.2123,-8.254,-8.2493,-8.1876,-8.1924,-8.1964,-8.1932,-8.1541,-8.1514,-8.2002,-8.1394,-8.1367,-8.2165,-8.2099,-8.2099,-8.2192,-8.2192,-8.2192,-8.2192,-8.2192,-8.2192,-8.2192,-8.2192,-8.2192,-8.2192,-8.2192,-8.1921,-8.1432,-8.0835,-8.0211,-7.9614,-7.899,-7.8692,-7.861,-7.9053,-7.9202,-7.9202,-7.9202,-7.9202,-7.9114,-7.8699,-7.861,-7.8583,-7.8475,-7.8502,-7.8502,-7.7905,-7.8122,-7.8285,-7.6792,-7.7443,-7.8366,-7.7389,-7.7525,-7.7897,-7.7807,-7.7475,-7.6933,-7.6452,-7.639,-7.6479,-7.6584,-7.6924,-7.6741,-7.5434,-7.5734,-7.6099,-7.559,-7.5014,-7.5109,-7.6615,-7.4447,-7.2985,-7.3619,-7.4071,-7.4548,-7.5176,-7.5454,-7.5307,-7.4564,-7.4243,-7.3947,-7.3551,-7.3451,-7.3966,-7.4943,-7.5384,-7.5717,-7.583,-7.6566,-7.7179,-7.7583,-7.7775,-7.8328,-9.6213,-9.622,-9.5821,-9.5217,-9.3259,-9.0327,-8.5535,-8.3031,-8.0106,-7.4527,-7.3102,-7.2452,-7.1107,-7.2566,-7.4172,-7.4988,-7.722,-7.9324,-8.0828,-8.1236,-8.1591,-8.2208,-8.2136,-8.2183,-8.2508,-8.2106,-8.2078,-8.2932,-8.2775,-8.259,-8.2563,-8.284,-8.284,-8.2563,-8.2563,-8.247,-8.2192,-8.2192,-8.2192,-8.2192,-8.2192,-8.2378,-8.2563,-8.2285,-8.1959,-8.1636,-8.0764,-8.0075,-7.9451,-7.8854,-7.861,-7.8699,-7.9114,-7.929,-7.929,-7.929,-7.929,-7.929,-7.9053,-7.9155,-7.9462,-7.9312,-7.9053,-7.8556,-7.8257,-7.8149,-7.804,-7.7471,-7.7715,-7.8095,-7.7823,-7.7999,-7.8165,-7.7986,-7.7565,-7.7114,-7.6634,-7.6507,-7.6521,-7.6558,-7.6584,-7.6401,-7.5878,-7.6244,-7.6505,-7.6218,-7.6268,-7.6483,-7.7004,-7.5773,-7.4881,-7.5234,-7.4947,-7.5075,-7.5603,-7.5653,-7.5429,-7.4859,-7.4559,-7.4463,-7.4541,-7.4194,-7.4589,-7.5666,-7.5936,-7.6227,-7.648,-7.7311,-7.7865,-7.8057,-7.8592,-7.9019,-9.7325,-9.7094,-9.632,-9.5307,-9.2964,-8.9387,-8.3287,-8.0598,-7.7709,-7.2021,-7.0707,-7.0221,-6.9151,-7.0707,-7.2304,-7.2703,-7.506,-7.7561,-7.966,-8.0242,-8.0889,-8.2194,-8.2237,-8.2411,-8.2877,-8.2655,-8.284,-8.3601,-8.3831,-8.3812,-8.35,-8.3758,-8.3675,-8.3308,-8.317,-8.2932,-8.2563,-8.2563,-8.2563,-8.2563,-8.2563,-8.2665,-8.2804,-8.2464,-8.2146,-8.1708,-8.0791,-8.0039,-7.944,-7.8889,-7.861,-7.8699,-7.9202,-7.9466,-7.9466,-7.9554,-7.9636,-7.9746,-7.9658,-8.007,-8.057,-8.0456,-7.9768,-7.904,-7.8815,-7.8461,-7.825,-7.84,-7.8264,-7.8074,-7.8312,-7.861,-7.8711,-7.8354,-7.7905,-7.7391,-7.691,-7.6834,-7.6836,-7.6624,-7.6427,-7.6349,-7.6584,-7.6924,-7.7081,-7.6819,-7.7185,-7.7379,-7.6882,-7.6684,-7.6615,-7.675,-7.5916,-7.555,-7.6103,-7.5653,-7.5377,-7.5251,-7.4724,-7.4605,-7.5086,-7.4688,-7.4963,-7.6097,-7.6369,-7.6662,-7.7127,-7.7983,-7.8525,-7.8542,-7.9476,-7.9777,-9.7395,-9.7308,-9.6776,-9.5989,-9.321,-8.9256,-8.3924,-7.9439,-7.5091,-7.0114,-6.8378,-6.7714,-6.7592,-6.8814,-7.0464,-7.2486,-7.3896,-7.566,-7.8134,-7.9482,-8.0463,-8.1167,-8.2165,-8.2849,-8.2904,-8.3299,-8.3601,-8.3693,-8.4085,-8.4648,-8.5239,-8.477,-8.4466,-8.4466,-8.3877,-8.3601,-8.3601,-8.3601,-8.3601,-8.3601,-8.3601,-8.3298,-8.2746,-8.2655,-8.2021,-8.098,-8.0481,-7.9858,-7.9284,-7.8815,-7.861,-7.8699,-7.9554,-7.9904,-7.9991,-8.0426,-8.0962,-8.1347,-8.0908,-8.1146,-8.1759,-8.1704,-8.1289,-8.0533,-7.9543,-7.9526,-7.9476,-7.8195,-7.8413,-7.8923,-7.802,-7.861,-7.9397,-7.9307,-7.8974,-7.8522,-7.795,-7.7917,-7.7785,-7.6781,-7.7394,-7.776,-7.6793,-7.7891,-7.857,-7.7551,-7.742,-7.7473,-7.7473,-7.6509,-7.6055,-7.6702,-7.6209,-7.5941,-7.6103,-7.6004,-7.5753,-7.5276,-7.4724,-7.4448,-7.4476,-7.4426,-7.4928,-7.6081,-7.7084,-7.7582,-7.7618,-7.8213,-7.855,-7.8493,-7.9083,-7.9624,-9.6863,-9.7661,-9.749,-9.5483,-9.2782,-8.9174,-8.3442,-7.8691,-7.4217,-6.9748,-6.7923,-6.7116,-6.7116,-6.7739,-6.8875,-7.0494,-7.1281,-7.2625,-7.5608,-7.6633,-7.8003,-8.0389,-8.1317,-8.2383,-8.3673,-8.3784,-8.4088,-8.5175,-8.5326,-8.5844,-8.689,-8.5661,-8.4754,-8.4481,-8.4259,-8.3966,-8.3693,-8.3333,-8.314,-8.3112,-8.2753,-8.2539,-8.2531,-8.2291,-8.1821,-8.1343,-8.0814,-8.0307,-7.9729,-7.9466,-7.9466,-7.9466,-8.0166,-8.0426,-8.0426,-8.06,-8.1076,-8.1606,-8.1431,-8.2009,-8.2876,-8.2781,-8.2814,-8.2609,-8.1289,-8.0494,-8.0042,-7.9797,-7.9592,-7.9421,-7.9316,-7.9696,-7.9967,-7.9587,-7.9597,-7.9487,-7.8656,-7.8491,-7.8231,-7.7192,-7.7441,-7.7611,-7.7226,-7.7969,-7.8492,-7.8048,-7.8283,-7.8492,-7.8492,-7.8093,-7.7825,-7.7702,-7.6645,-7.592,-7.5992,-7.6042,-7.5995,-7.5728,-7.5226,-7.505,-7.5402,-7.4774,-7.4925,-7.603,-7.6808,-7.7385,-7.7733,-7.8634,-7.908,-7.9072,-7.962,-7.9783,-9.5431,-9.6891,-9.7151,-9.489,-9.2184,-8.8571,-8.2716,-7.7808,-7.3279,-6.9095,-6.7528,-6.6796,-6.6396,-6.6871,-6.7706,-6.878,-6.9273,-7.0654,-7.3968,-7.4924,-7.6358,-7.9401,-8.0251,-8.1407,-8.3643,-8.4216,-8.4991,-8.6299,-8.6096,-8.6299,-8.7304,-8.5927,-8.5017,-8.4914,-8.4656,-8.4482,-8.4148,-8.3419,-8.3114,-8.3114,-8.2503,-8.2265,-8.2423,-8.2098,-8.1764,-8.1501,-8.1065,-8.0581,-8.0166,-8.0078,-7.9991,-8.0078,-8.0513,-8.0686,-8.0714,-8.1082,-8.1529,-8.2088,-8.2283,-8.3037,-8.3936,-8.3872,-8.4101,-8.4293,-8.3132,-8.1993,-8.1173,-8.1347,-8.0706,-8.021,-8.0936,-8.0791,-8.0347,-8.0075,-8.0374,-8.0328,-7.9252,-7.9187,-7.8994,-7.7982,-7.7904,-7.8076,-7.8031,-7.8368,-7.8708,-7.8335,-7.8649,-7.8858,-7.8675,-7.8675,-7.8501,-7.7963,-7.6986,-7.6432,-7.6475,-7.6149,-7.6006,-7.6074,-7.5346,-7.5072,-7.5552,-7.4674,-7.4849,-7.6281,-7.6682,-7.731,-7.8189,-7.9168,-7.9645,-7.9645,-8.0348,-8.0465,-9.2975,-9.4637,-9.5233,-9.4503,-9.1445,-8.7227,-8.1952,-7.6734,-7.1811,-6.7721,-6.6821,-6.6519,-6.5165,-6.6027,-6.7165,-6.7843,-6.8481,-7.0205,-7.3887,-7.5138,-7.63,-7.7993,-7.8882,-8.0126,-8.2309,-8.4933,-8.6497,-8.6676,-8.6138,-8.5903,-8.6011,-8.5449,-8.5393,-8.5983,-8.5421,-8.5112,-8.5112,-8.4494,-8.4185,-8.4185,-8.3567,-8.2949,-8.233,-8.233,-8.1993,-8.1403,-8.0887,-8.0714,-8.0686,-8.0166,-7.9991,-8.0078,-8.0513,-8.0686,-8.0856,-8.1904,-8.2724,-8.3342,-8.396,-8.4578,-8.5112,-8.5084,-8.5112,-8.5112,-8.5084,-8.4241,-8.3082,-8.2109,-8.1457,-8.1371,-8.263,-8.169,-8.0564,-8.1161,-8.1297,-8.1042,-7.9962,-8.0129,-8.0278,-7.9227,-7.9389,-7.9628,-7.9159,-7.954,-7.9508,-7.8509,-7.8335,-7.8126,-7.7551,-7.7473,-7.7263,-7.6688,-7.7133,-7.7539,-7.762,-7.66,-7.5903,-7.598,-7.4965,-7.4299,-7.4397,-7.3895,-7.4623,-7.6833,-7.6883,-7.7687,-7.9369,-7.9921,-8.0198,-8.0223,-8.1302,-8.1779,-8.7463,-8.9275,-9.0032,-8.7373,-8.5276,-8.258,-7.7819,-7.4368,-7.1017,-6.6902,-6.6275,-6.6004,-6.4426,-6.509,-6.6353,-6.7662,-6.8321,-6.9733,-7.2962,-7.5002,-7.6695,-7.8394,-8.1603,-8.3876,-8.4591,-8.5791,-8.6674,-8.7124,-8.6611,-8.6348,-8.6497,-8.587,-8.5555,-8.5393,-8.5225,-8.5112,-8.5112,-8.4073,-8.3567,-8.3567,-8.2499,-8.1881,-8.1684,-8.1684,-8.1572,-8.1403,-8.1232,-8.1232,-8.1146,-8.1059,-8.0973,-8.0973,-8.1146,-8.1398,-8.1876,-8.216,-8.2977,-8.3932,-8.4129,-8.4607,-8.5112,-8.5112,-8.5112,-8.5112,-8.5112,-8.4563,-8.3897,-8.3294,-8.3024,-8.2941,-8.2895,-8.2867,-8.2801,-8.2426,-8.2497,-8.2463,-8.2087,-8.1871,-8.1604,-8.1326,-8.1098,-8.091,-8.0839,-8.0638,-8.0236,-7.9482,-7.9361,-7.9213,-7.8744,-7.8623,-7.857,-7.8387,-7.8178,-7.7738,-7.7046,-7.6976,-7.7042,-7.7123,-7.6459,-7.603,-7.6016,-7.5863,-7.6103,-7.6801,-7.7913,-7.8872,-7.9394,-7.9947,-8.0223,-8.0223,-8.0549,-8.1102,-8.288,-8.4811,-8.558,-8.3792,-8.1848,-7.9423,-7.5752,-7.2882,-6.9951,-6.6143,-6.5911,-6.5847,-6.3803,-6.4494,-6.5693,-6.6585,-6.7277,-6.8874,-7.2274,-7.4406,-7.6504,-7.8892,-8.2619,-8.5091,-8.5377,-8.6311,-8.7119,-8.7549,-8.7086,-8.6677,-8.6632,-8.6263,-8.5887,-8.5648,-8.5291,-8.5112,-8.5112,-8.3876,-8.3286,-8.3258,-8.1993,-8.1403,-8.1403,-8.1403,-8.1403,-8.1403,-8.1403,-8.1403,0.0,-8.1656,-8.174,-8.1769,-8.2194,-8.2504,-8.2696,-8.3095,-8.3686,-8.4213,-8.4466,-8.4803,-8.5112,-8.5112,-8.5112,-8.514,-8.5393,-8.4921,-8.4448,-8.4307,-8.4181,-8.4069,-8.3913,-8.4169,-8.4453,-8.3966,-8.3797,-8.3695,-8.3695,-8.3302,-8.2885,-8.2954,-8.2455,-8.2024,-8.2168,-8.1485,-8.0842,-8.0581,-8.0327,-8.0005,-7.9554,-7.9433,-7.9258,-7.8884,-7.8727,-7.8319,-7.7366,-7.7236,-7.734,-7.784,-7.6965,-7.6612,-7.7061,-7.6677,-7.7041,-7.8054,-7.8894,-7.9608,-8.029,-8.0639,-8.0809,-8.08,-8.08,-8.1177,0.0,-8.0729,-8.136,-8.2281,-8.0151,-7.7107,-7.4758,-7.1823,0.0,-6.5236,-6.566,-6.5818,-6.3387,-6.4236,-6.5249,-6.5183,-6.6016,-6.8019,-7.1902,-7.3885,-7.6211,-7.9776,-8.2686,-8.4625,-8.505,-8.6715,-8.7859,-8.8014,-8.7525,-8.7119,-8.6593,-8.6593,-8.6505,-8.6505,-8.5648,-8.5174,-8.5146,-8.3964,-8.3345,-8.3289,-8.2023,-8.1405,-8.1433,-8.1405,-8.1319,-8.1347,-8.1375,-8.1403,-8.1431,-8.1993,-8.2246,-8.2302,-8.3499,-8.3695,-8.343,-8.4461,-8.4567,-8.4326,-8.4916,-8.5112,-8.5112,-8.5112,-8.5112,-8.5225,-8.5787,-8.5229,-8.465,-8.5263,-8.512,-8.489,-8.5508,-8.5609,-8.5664,-8.5516,-8.5114,-8.4711,-8.4727,-8.4322,-8.401,-8.4064,-8.3576,-8.321,-8.3155,-8.2226,-8.1567,-8.1604,-8.1162,-8.06,-7.9952,-7.9883,-7.9482,-7.8404,-7.8779,-7.891,-7.8414,-7.7446,-7.7337,-7.8446,-7.6952,-7.6607,-7.7774,-7.692,-7.764,-8.0211,-7.9752,-8.0316,-8.193,-8.1899,-8.1884,-8.1911,-8.1886,-8.1779,-7.0894,0.0,-7.3495,-7.2398,-7.1792,-7.0777,0.0,-6.7732,-6.7069,-6.4046,-6.4518,-6.5227,-6.4408,-6.4816,-6.5823,-6.7347,-6.8421,-6.9939,-7.249,-7.6587,-8.0562,-8.3863,-8.622,-8.7265,-8.6615,-8.8209,-8.926,-8.9013,-8.8502,-8.8072,-8.764,-8.7206,-8.6856,-8.6505,-8.6269,-8.5925,-8.547,-8.4673,-8.4047,-8.3592,-8.2311,-8.1546,-8.1209,-8.1181,-8.1012,-8.0729,-8.1207,-8.1403,-8.1403,-8.1544,-8.16,-8.1684,-8.2389,-8.2923,-8.3342,-8.4137,-8.4583,-8.4916,-8.5056,-8.5112,-8.5112,-8.5112,-8.5112,-8.514,-8.5281,-8.5472,-8.5746,-8.6391,-8.6527,-8.6528,-8.6591,-8.6741,-8.6758,-8.6289,-8.5444,-8.4863,-8.5438,-8.473,-8.4146,-8.4607,-8.42,-8.3684,-8.3143,-8.2872,-8.2454,-8.1567,-8.1688,-8.1298,-7.9476,-7.9646,-7.9514,-7.8324,-7.8368,-7.8744,-7.944,-7.9337,-7.9284,-7.9605,-7.924,-7.9397,-8.0036,-7.9925,-8.0094,-8.0712,-8.1493,-8.2289,-8.3109,-8.2723,-8.2643,-8.3074,-8.2221,-8.2264,-6.7049,-6.8921,-7.0451,-6.9516,-6.9314,-6.878,-6.674,-6.6332,-6.5714,-6.3079,-6.3783,-6.4517,-6.3496,-6.4502,-6.5926,-6.7243,-6.9093,-7.1691,-7.5433,-7.9024,-8.2413,-8.5421,-8.7241,-8.8226,-8.8095,-8.8807,-8.9371,-8.9576,-8.8484,-8.7771,-8.7807,-8.7378,-8.6947,-8.6716,-8.6716,-8.637,-8.5591,-8.4934,-8.4305,-8.3706,-8.2734,-8.1938,-8.1486,-8.1799,-8.1574,-8.1095,-8.1746,-8.2001,-8.2029,-8.2312,-8.2426,-8.2596,-8.3704,-8.4098,-8.4144,-8.5178,-8.5337,-8.5202,-8.5559,-8.562,-8.5353,-8.5202,-8.5112,-8.5169,-8.5449,-8.5983,-8.6454,-8.6608,-8.6834,-8.7216,-8.7467,-8.7756,-8.7892,-8.7558,-8.682,-8.6293,-8.6477,-8.5739,-8.5111,-8.4974,-8.4417,-8.3902,-8.3549,-8.325,-8.2966,-8.263,-8.2657,-8.2159,-8.0788,-8.0546,-8.044,-7.9785,-7.9767,-8.0189,-8.0989,-8.1185,-8.0883,-8.0426,-8.0165,-8.0269,-8.0844,-8.0871,-8.1295,-8.2117,-8.3266,-8.3836,-8.3938,-8.3654,-8.3446,-8.3519,-8.3153,-8.3143,-6.5856,-6.7852,-6.9927,-6.9256,-6.8861,-6.8276,-6.701,-6.577,-6.4388,-6.2468,-6.3306,-6.3936,-6.2547,-6.4287,-6.6176,-6.684,-6.959,-7.3596,-7.9162,-8.135,-8.3295,-8.5789,-8.734,-8.8522,-8.9278,-8.8978,-8.9142,-8.9954,-8.8113,-8.72,-8.7728,-8.7251,-8.6911,-8.6911,-8.6911,-8.6455,-8.5565,-8.4906,-8.4334,-8.3732,-8.3103,-8.253,-8.1932,-8.2475,-8.2418,-8.1849,-8.2506,-8.2791,-8.2848,-8.3363,-8.3591,-8.3706,-8.5393,-8.5535,-8.501,-8.6511,-8.6329,-8.547,-8.6241,-8.6152,-8.5709,-8.5381,-8.5202,-8.5225,-8.5843,-8.6489,-8.6931,-8.6703,-8.6965,-8.7616,-8.823,-8.8596,-8.8821,-8.8728,-8.8268,-8.7864,-8.7283,-8.6847,-8.6149,-8.5083,-8.4567,-8.4186,-8.401,-8.3657,-8.3494,-8.3956,-8.3549,-8.2954,-8.2293,-8.1715,-8.142,-8.155,-8.1509,-8.1829,-8.2725,-8.2649,-8.2266,-8.1453,-8.0785,-8.0635,-8.1132,-8.1236,-8.2021,-8.3589,-8.4556,-8.4898,-8.4562,-8.4303,-8.4095,-8.3729,-8.414,-8.408,-6.7028,-6.8609,-6.9141,-6.5521,-6.5006,-6.5125,-6.4077,-6.3481,-6.3013,-6.2477,-6.3028,-6.4019,-6.5166,-6.6296,-6.7551,-6.9503,-7.2799,-7.6769,-8.1071,-8.3368,-8.5242,-8.684,-8.8715,-8.9743,-8.946,-8.9584,-8.9822,-9.0202,-8.8755,-8.7824,-8.7912,-8.7166,-8.6777,-8.6777,-8.6356,-8.5841,-8.5206,-8.5091,-8.4714,-8.4077,-8.3468,-8.2874,-8.2429,-8.2515,-8.2238,-8.1849,-8.2506,-8.2791,-8.2791,-8.2906,-8.2934,-8.3048,-8.4363,-8.4763,-8.4819,-8.6077,-8.6417,-8.6358,-8.6417,-8.6152,-8.5798,-8.5709,-8.5442,-8.5225,-8.5843,-8.6489,-8.722,-8.8138,-8.8503,-8.8728,-8.9345,-8.9121,-8.8728,-8.8352,-8.7773,-8.7241,-8.6724,-8.6517,-8.6132,-8.5097,-8.5179,-8.5029,-8.4186,-8.4336,-8.4471,-8.4064,-8.3929,-8.3306,-8.1809,-8.1473,-8.1446,-8.1487,-8.111,-8.1657,-8.3716,-8.3473,-8.3394,-8.3721,-8.2779,-8.2282,-8.236,-8.2831,-8.3432,-8.419,-8.4373,-8.461,-8.508,-8.4114,-8.4038,-8.4977,-8.4044,-8.4069,-6.5799,-6.664,-6.721,-6.5106,-6.6777,-6.8433,-6.6497,-6.623,-6.5995,-6.4444,-6.4974,-6.5881,-6.6538,-6.8429,-7.1268,-7.5277,-7.6873,-7.9109,-8.3141,-8.388,-8.4926,-8.742,-8.8559,-8.9237,-8.948,-8.9456,-8.9517,-8.9782,-8.8023,-8.712,-8.7446,-8.6656,-8.6242,-8.652,-8.6076,-8.5846,-8.5832,-8.5451,-8.4883,-8.4097,-8.3807,-8.3405,-8.2841,-8.2841,-8.2758,-8.2594,-8.2911,-8.3228,-8.3545,-8.392,-8.4064,-8.418,-8.5419,-8.5738,-8.5623,-8.6279,-8.6797,-8.7235,-8.671,-8.6505,-8.6505,-8.6241,-8.6114,-8.6006,-8.6288,-8.6896,-8.7669,-8.8569,-8.8821,-8.8878,-8.9159,-8.9046,-8.8644,-8.812,-8.7811,-8.753,-8.7003,-8.6652,-8.6106,-8.4974,-8.5016,-8.4975,-8.4119,-8.4498,-8.4906,-8.496,-8.496,-8.4782,-8.4347,-8.3752,-8.359,-8.4266,-8.3831,-8.414,-8.5818,-8.5533,-8.4915,-8.4267,-8.3794,-8.3263,-8.2648,-8.3772,-8.4242,-8.3876,-8.4478,-8.4765,-8.4713,-8.4216,-8.4216,-8.4739,-8.4457,-8.4562,-6.5655,-6.5818,-6.6293,-6.6267,-6.8499,-7.0325,-6.9102,-6.886,-6.8553,-6.7177,-6.7777,-6.8436,-6.781,-7.0516,-7.4434,-7.9441,-8.0032,-8.1055,-8.4403,-8.4249,-8.4834,-8.7635,-8.8097,-8.8623,-8.9819,-8.9308,-8.9068,-8.9409,-8.7517,-8.6529,-8.6895,-8.6195,-8.5979,-8.6336,-8.5897,-8.5815,-8.6143,-8.5494,-8.4905,-8.4398,-8.4344,-8.4029,-8.3564,-8.3482,-8.34,-8.34,-8.34,-8.3662,-8.4126,-8.4823,-8.5084,-8.52,-8.6477,-8.6916,-8.6659,-8.68,-8.7322,-8.7843,-8.706,-8.6944,-8.7119,-8.6769,-8.6757,-8.6912,-8.6903,-8.7452,-8.822,-8.8653,-8.8934,-8.9046,-8.9046,-8.8934,-8.8709,-8.8231,-8.8316,-8.8314,-8.7652,-8.7474,-8.7107,-8.575,-8.5724,-8.5602,-8.4716,-8.5097,-8.5641,-8.591,-8.5991,-8.6154,-8.6588,-8.5747,-8.5557,-8.6751,-8.6344,-8.6479,-8.77,-8.7114,-8.6275,-8.5189,-8.4956,-8.447,-8.3451,-8.4577,-8.4685,-8.3693,-8.4399,-8.4582,-8.4138,-8.4007,-8.4085,-8.4347,-8.4791,-8.4925,-6.8964,-6.8591,-6.7897,-6.8552,-6.6972,-6.6076,-6.9201,-6.8476,-6.7832,-7.0281,-7.1203,-7.1125,-6.9808,-7.2228,-7.5402,-7.8611,-8.0896,-8.2791,-8.4013,-8.5173,-8.6219,-8.7143,-8.782,-8.8959,-9.0882,-8.9621,-8.9019,-8.9857,-8.8232,-8.7084,-8.6748,-8.63,-8.6059,-8.614,-8.5627,-8.5465,-8.5465,-8.4816,-8.4787,-8.5295,-8.4918,-8.4755,-8.4644,-8.4204,-8.4039,-8.4039,-8.4039,-8.4039,-8.4126,-8.4823,-8.5084,-8.52,-8.6477,-8.7348,-8.7785,-8.7814,-8.7843,-8.7929,-8.7843,-8.7554,-8.7206,-8.7206,-8.7287,-8.7473,-8.7622,-8.8093,-8.8561,-8.8746,-8.9243,-8.9664,-8.9664,-8.9243,-8.8821,-8.8765,-8.9121,-8.9475,-8.8945,-8.9638,-8.989,-8.8236,-8.8317,-8.8178,-8.6614,-8.6805,-8.7118,-8.6686,-8.6588,-8.6615,-8.6642,-8.6099,-8.6181,-8.7402,-8.6968,-8.7076,-8.827,-8.7348,-8.6889,-8.7442,-8.6912,-8.633,-8.5821,-8.5451,-8.4883,-8.4268,-8.3824,-8.3589,-8.3537,-8.3014,-8.3301,-8.4347,-8.4373,-8.4974,-6.7975,-6.7958,-6.7914,-6.7883,-6.7393,-6.7741,-7.1134,-7.2202,-7.286,-7.4244,-7.5102,-7.5472,-7.4736,-7.612,-7.811,-8.028,-8.21,-8.3719,-8.5184,-8.5419,-8.6065,-8.7635,-8.8035,-8.8651,-8.9851,-8.9467,-8.908,-8.8752,-8.7827,-8.7163,-8.6738,-8.632,-8.624,-8.645,-8.605,-8.597,-8.6181,-8.5556,-8.5556,-8.6181,-8.5074,-8.4574,-8.4574,-8.414,-8.413,-8.4538,-8.4262,-8.4329,-8.4794,-8.5839,-8.6274,-8.6361,-8.7232,-8.7726,-8.7929,-8.7929,-8.8161,-8.8451,-8.8074,-8.8104,-8.8248,-8.8248,-8.8331,-8.8609,-8.9061,-8.9146,-8.9134,-8.9203,-8.9431,-8.9552,-8.8793,-8.899,-8.9299,-8.8906,-8.9016,-8.9247,-8.9437,-8.9252,-8.8965,-8.823,-8.8024,-8.7655,-8.6669,-8.7038,-8.7364,-8.7283,-8.7538,-8.789,-8.827,-8.7782,-8.7755,-8.8569,-8.846,-8.8487,-8.8949,-8.8569,-8.8314,-8.8168,-8.7631,-8.6953,-8.6086,-8.6118,-8.5809,-8.4857,-8.462,-8.4128,-8.3484,-8.3275,-8.338,-8.3824,-8.4164,-8.4765,-6.7843,-6.7564,-6.762,-6.7737,-6.7994,-6.9168,-7.2906,-7.463,-7.6039,-7.8066,-7.8338,-7.8281,-7.8597,-7.8782,-7.9648,-8.174,-8.3224,-8.4665,-8.6231,-8.585,-8.6127,-8.7974,-8.8005,-8.8312,-8.9421,-8.9498,-8.9144,-8.8357,-8.7754,-8.7241,-8.6768,-8.6271,-8.6162,-8.6659,-8.6241,-8.6241,-8.6689,-8.5821,-8.5731,-8.6359,-8.5149,-8.4664,-8.4888,-8.4325,-8.4345,-8.4784,-8.4262,-8.4474,-8.5171,-8.6245,-8.6913,-8.7319,-8.7755,-8.7929,-8.7958,-8.8161,-8.8364,-8.8539,-8.8306,-8.8509,-8.8887,-8.8887,-8.9174,-8.9689,-9.0032,-9.0035,-8.9908,-8.9631,-8.9853,-8.9994,-8.8765,-8.9271,-8.9945,-8.9524,-8.9605,-8.9929,-9.0215,-8.9878,-8.941,-8.8794,-8.856,-8.804,-8.6888,-8.7396,-8.7957,-8.7807,-8.8316,-8.884,-8.9274,-8.8949,-8.8867,-8.9274,-8.9139,-8.9111,-8.9301,-8.9139,-8.891,-8.8796,-8.8243,-8.7435,-8.6603,-8.7078,-8.672,-8.5451,-8.5399,-8.4827,-8.3484,-8.3667,-8.3746,-8.3772,-8.4347,-8.5,-6.921,-6.7815,-6.7225,-6.8633,-6.8633,-6.9491,-7.4139,-7.5015,-7.6268,-8.1634,-8.0554,-7.9163,-8.0901,-7.9794,-7.9597,-8.2609,-8.4286,-8.5694,-8.7014,-8.6558,-8.6619,-8.8035,-8.7604,-8.7974,-9.0005,-8.9605,-8.9176,-8.8995,-8.8309,-8.7525,-8.6768,-8.606,-8.6,-8.6659,-8.603,-8.6,-8.6659,-8.5372,-8.5043,-8.5671,-8.5043,-8.5167,-8.608,-8.5192,-8.4784,-8.4784,-8.4344,-8.4474,-8.5142,-8.5781,-8.6797,-8.7929,-8.7929,-8.7929,-8.7987,-8.8626,-8.848,-8.8045,-8.8655,-8.8887,-8.8887,-8.8887,-8.9758,-9.0714,-9.0266,-9.0489,-9.0797,-8.9816,-9.0445,-9.1106,-9.0012,-9.0226,-9.0732,-9.0704,-9.1154,-9.1575,-9.1575,-9.2053,-9.2012,-9.02,-9.0293,-8.9997,-8.7695,-8.8305,-8.8912,-8.8423,-8.8841,-8.9301,-8.9301,-8.9301,-8.9301,-8.9301,-8.8786,-8.8677,-8.9274,-8.8786,-8.8677,-8.9274,-8.8823,-8.8314,-8.7776,-8.8314,-8.7714,-8.6032,-8.6006,-8.5248,-8.3484,-8.4059,-8.4347,-8.4347,-8.4922,-8.5811,-6.6904,-6.7405,-6.8516,-6.8079,-7.088,-7.442,-7.6869,-7.758,-7.8952,-8.3598,-8.2734,-8.1213,-8.1493,-8.1306,-8.1299,-8.1932,-8.3805,-8.5352,-8.5646,-8.5942,-8.6539,-8.7729,-8.7877,-8.8463,-8.9769,-8.9912,-8.956,-8.8822,-8.8191,-8.7681,-8.7163,-8.6667,-8.6479,-8.6659,-8.603,-8.5791,-8.597,-8.4684,-8.4594,-8.5671,-8.5043,-8.5084,-8.5872,-8.5792,-8.5516,-8.5192,-8.5223,-8.5393,-8.5839,-8.6913,-8.7319,-8.7319,-8.7755,-8.7929,-8.7958,-8.8132,-8.8655,-8.9148,-8.8451,-8.909,-9.0106,-8.9177,-8.9438,-9.0105,-9.0479,-9.0471,-9.0341,-9.0528,-9.0912,-9.1285,-9.1021,-9.1469,-9.1856,-9.1407,-9.1435,-9.1688,-9.2109,-9.1688,-9.1126,-9.0569,-8.9879,-8.9083,-8.8031,-8.8594,-8.9009,-8.8912,-8.914,-8.9301,-8.9301,-8.9301,-8.9301,-8.9301,-8.9166,-8.9139,-8.9301,-8.9166,-8.8937,-8.8694,-8.9302,-8.9254,-8.8314,-8.8013,-8.7313,-8.6032,-8.6017,-8.513,-8.3484,-8.4059,-8.4347,-8.4347,-8.4922,-8.5811,-6.7864,-6.8573,-7.0009,-7.0664,-7.3286,-7.6544,-7.9795,-8.0857,-8.2143,-8.5425,-8.4473,-8.3111,-8.3479,-8.3266,-8.3164,-8.3338,-8.5042,-8.6241,-8.6335,-8.6976,-8.7722,-8.8477,-8.8372,-8.8558,-8.9314,-8.9522,-8.9205,-8.8273,-8.8179,-8.7992,-8.7525,-8.7049,-8.6772,-8.6536,-8.5906,-8.5588,-8.5701,-8.4654,-8.4654,-8.5701,-8.5282,-8.5312,-8.5731,-8.6022,-8.6,-8.5678,-8.5645,-8.5676,-8.5752,-8.7029,-8.7319,-8.7058,-8.7668,-8.7929,-8.7958,-8.8219,-8.88,-8.9322,-8.8568,-8.9235,-9.0251,-8.9206,-8.9293,-8.9903,-9.0309,-9.0421,-9.0442,-9.0608,-9.1096,-9.151,-9.1162,-9.1519,-9.209,-9.2009,-9.194,-9.2053,-9.2418,-9.1912,-9.1254,-9.0809,-9.0064,-8.9363,-8.8889,-8.9091,-8.9481,-8.9702,-8.9701,-8.9685,-8.993,-8.9565,-8.941,-8.9627,-8.9464,-8.9301,-8.9301,-8.9301,-8.9126,-8.8823,-8.9248,-8.92,-8.8545,-8.8625,-8.8057,-8.6657,-8.6653,-8.5972,-8.4469,-8.4842,-8.5025,-8.4994,-8.56,-8.6359,-7.031,-7.0532,-7.1573,-7.5016,-7.582,-7.7268,-8.2761,-8.4443,-8.532,-8.7012,-8.5868,-8.4852,-8.6116,-8.5263,-8.4807,-8.5963,-8.698,-8.7744,-8.7951,-8.8718,-8.9262,-8.9588,-8.8784,-8.8286,-8.8706,-8.8663,-8.8291,-8.7661,-8.8242,-8.8348,-8.7992,-8.7307,-8.6819,-8.6403,-8.5709,-8.5388,-8.557,-8.4923,-8.4953,-8.5611,-8.5731,-8.5791,-8.5821,-8.6022,-8.608,-8.603,-8.5839,-8.5471,-8.52,-8.6448,-8.6971,-8.7058,-8.7668,-8.7958,-8.8074,-8.8655,-8.8916,-8.8974,-8.8974,-8.938,-8.9787,-8.909,-8.9293,-8.9816,-8.9816,-9.0251,-9.0656,-9.0323,-9.1007,-9.1682,-9.0875,-9.1049,-9.153,-9.2331,-9.2418,-9.2418,-9.2474,-9.2446,-9.2124,-9.1078,-9.0753,-9.0401,-8.9989,-8.9797,-9.002,-9.0591,-9.0361,-9.0342,-9.0844,-9.0031,-8.9518,-9.0061,-8.9627,-8.9301,-8.9301,-8.9301,-8.9301,-8.9301,-8.8877,-8.8673,-8.862,-8.954,-8.936,-8.7621,-8.7714,-8.7242,-8.6055,-8.6017,-8.6043,-8.6058,-8.6516,-8.717,-6.6895,-6.9519,-7.301,-7.5016,-7.8526,-8.2288,-8.547,-8.5694,-8.5524,-8.675,-8.6415,-8.6089,-8.6305,-8.5673,-8.5285,-8.578,-8.6291,-8.6571,-8.6699,-8.7052,-8.7529,-8.8232,-8.7549,-8.7425,-8.8328,-8.7908,-8.7679,-8.8008,-8.789,-8.8043,-8.8455,-8.7461,-8.6836,-8.6759,-8.5303,-8.4607,-8.4575,-8.4149,-8.4265,-8.4923,-8.597,-8.6449,-8.6479,-8.6549,-8.6211,-8.5597,-8.5674,-8.5471,-8.52,-8.6448,-8.6971,-8.7058,-8.7668,-8.8219,-8.8684,-8.8829,-8.9206,-8.9613,-8.9613,-9.0048,-9.0425,-8.9264,-8.9293,-8.9816,-8.9816,-8.9932,-9.0251,-9.1178,-9.1655,-9.1837,-9.1682,-9.1518,-9.154,-9.218,-9.2061,-9.1884,-9.239,-9.2109,-9.1716,-9.1507,-9.058,-8.9851,-8.9756,-8.9347,-8.9354,-9.0048,-9.0395,-9.0602,-9.0315,-9.0087,-8.9859,-8.9491,-8.9383,-8.9301,-8.9301,-8.9301,-8.9301,-8.9301,-8.9661,-8.9587,-8.9126,-8.8964,-8.8239,-8.7008,-8.7446,-8.7152,-8.6028,-8.6029,-8.6035,-8.6032,-8.6253,-8.6804,-6.7293,-7.0262,-7.4052,-7.8047,-8.1493,-8.4452,-8.6662,-8.6597,-8.627,-8.6994,-8.6778,-8.6463,-8.6811,-8.6558,-8.6295,-8.6296,-8.6854,-8.7152,-8.6829,-8.7494,-8.8147,-8.8361,-8.7865,-8.7659,-8.8106,-8.756,-8.735,-8.7501,-8.7745,-8.7843,-8.7691,-8.7402,-8.6869,-8.6002,-8.5077,-8.4563,-8.4306,-8.4637,-8.4739,-8.4743,-8.6596,-8.7406,-8.7167,-8.6838,-8.637,-8.5759,-8.5567,-8.5334,-8.5068,-8.6097,-8.6536,-8.6623,-8.7552,-8.8306,-8.8887,-8.8887,-8.9467,-9.0251,-8.9932,-9.0251,-9.0658,-8.9642,-8.9351,-8.938,-8.938,-8.938,-8.9584,-9.0571,-9.1117,-9.1395,-9.1411,-9.1618,-9.1717,-9.1872,-9.1763,-9.1744,-9.2362,-9.2221,-9.1997,-9.1997,-9.1491,-9.1154,-9.1435,-9.1201,-9.1022,-9.0868,-9.1022,-9.1048,-9.0561,-9.0297,-9.0014,-8.981,-8.9491,-8.9301,-8.9301,-8.9301,-8.9301,-8.9301,-8.96,-8.9763,-8.9736,-8.9161,-8.8458,-8.7655,-8.7452,-8.719,-8.6768,-8.6296,-8.6276,-8.6876,-8.6831,-8.7353,-6.789,-7.1141,-7.5256,-8.1517,-8.3988,-8.5346,-8.695,-8.6985,-8.6886,-8.736,-8.7044,-8.6785,-8.7285,-8.7412,-8.7273,-8.6963,-8.748,-8.7725,-8.7088,-8.7922,-8.852,-8.8361,-8.8071,-8.7858,-8.7702,-8.7347,-8.7051,-8.6711,-8.7501,-8.756,-8.6726,-8.7049,-8.6517,-8.4998,-8.4697,-8.4381,-8.3974,-8.4986,-8.5287,-8.4743,-8.7035,-8.7996,-8.7706,-8.7227,-8.6659,-8.6,-8.5568,-8.5221,-8.4883,-8.5716,-8.61,-8.6303,-8.7464,-8.8306,-8.8887,-8.9003,-8.9729,-9.06,-9.028,-9.0454,-9.0745,-9.0164,-8.9642,-8.9206,-8.9206,-8.9206,-8.9351,-8.999,-9.0542,-9.1004,-9.1164,-9.1588,-9.1975,-9.1766,-9.17,-9.184,-9.2362,-9.2474,-9.253,-9.2643,-9.2643,-9.2783,-9.3177,-9.3149,-9.2756,-9.1845,-9.1608,-9.1353,-9.0863,-9.0406,-9.0151,-9.0244,-8.9654,-8.9356,-8.9464,-8.9383,-8.9301,-8.9301,-8.941,-8.9681,-9.017,-8.9736,-8.9262,-8.8781,-8.7754,-8.7445,-8.8039,-8.6931,-8.6935,-8.7801,-8.7774,-8.8085,-6.4088,-7.0136,-7.7519,-8.2239,-8.4528,-8.5897,-8.6746,-8.6435,-8.634,-8.7658,-8.7764,-8.7667,-8.7449,-8.7412,-8.7412,-8.7342,-8.6693,-8.6069,-8.5999,-8.5383,-8.5189,-8.6094,-8.5923,-8.6041,-8.6847,-8.6627,-8.6522,-8.668,-8.6824,-8.6945,-8.7068,-8.631,-8.5475,-8.4711,-8.3395,-8.2722,-8.2648,-8.3551,-8.4222,-8.4743,-8.6828,-8.7786,-8.7736,-8.8215,-8.7363,-8.5457,-8.5457,-8.524,-8.5109,-8.5723,-8.6361,-8.6942,-8.7639,-8.8306,-8.8945,-8.9496,-8.9816,-9.0106,-9.1151,-9.1209,-9.0803,-9.0716,-9.0629,-9.0571,-9.0571,-9.0571,-9.0687,-9.1325,-9.1587,-9.1674,-9.1642,-9.1891,-9.2159,-9.2607,-9.2459,-9.2322,-9.2459,-9.2474,-9.2643,-9.3177,-9.3289,-9.3149,-9.2699,-9.2165,-9.1775,-9.1734,-9.1246,-9.0743,-9.0232,-9.016,-9.0151,-9.0244,-8.9654,-8.9518,-9.0034,-8.96,-8.9301,-8.9301,-8.979,-9.0115,-9.0197,-9.0115,-9.0088,-8.9986,-8.8862,-8.8556,-8.9168,-8.8032,-8.7827,-8.8486,-8.8063,-8.8085,-6.714,-7.2167,-7.7696,-8.3351,-8.5101,-8.5817,-8.7197,-8.6882,-8.6693,-8.779,-8.7974,-8.7892,-8.7698,-8.7518,-8.7285,-8.6874,-8.6421,-8.6005,-8.5559,-8.5453,-8.561,-8.6063,-8.5818,-8.5999,-8.7039,-8.6088,-8.5725,-8.641,-8.6421,-8.6096,-8.5371,-8.4917,-8.4494,-8.3968,-8.2961,-8.2558,-8.2949,-8.3959,-8.4983,-8.6134,-8.7547,-8.8065,-8.7736,-8.8394,-8.7784,-8.6131,-8.6033,-8.5868,-8.5861,-8.592,-8.6419,-8.7058,-8.7668,-8.8306,-8.8945,-8.9584,-9.0048,-9.0513,-9.1441,-9.1587,-9.1354,-9.1354,-9.0861,-9.0251,-9.0251,-9.0019,-8.9874,-9.0513,-9.0948,-9.1412,-9.2109,-9.2594,-9.3048,-9.3405,-9.3569,-9.3609,-9.3029,-9.2697,-9.2671,-9.3289,-9.3683,-9.3851,-9.3598,-9.3598,-9.3317,-9.2375,-9.197,-9.1381,-9.0205,-9.0105,-9.0151,-9.0244,-8.9654,-8.9647,-9.0549,-8.9856,-8.9565,-9.0195,-9.0264,-9.0495,-9.1201,-9.0902,-9.0875,-9.1201,-8.947,-8.8609,-8.8993,-8.8164,-8.7986,-8.8535,-8.8348,-8.8555,-6.8115,-7.1771,-7.5364,-8.1982,-8.4057,-8.4975,-8.68,-8.6904,-8.6783,-8.747,-8.7532,-8.7462,-8.7534,-8.7698,-8.7518,-8.6564,-8.6437,-8.6053,-8.5033,-8.5348,-8.5695,-8.5695,-8.5805,-8.6082,-8.6705,-8.5814,-8.5392,-8.5618,-8.5823,-8.5427,-8.399,-8.4068,-8.3877,-8.328,-8.2722,-8.2618,-8.2981,-8.4427,-8.5681,-8.6922,-8.8036,-8.8146,-8.7467,-8.8304,-8.8035,-8.6958,-8.658,-8.6415,-8.6426,-8.6175,-8.6419,-8.7029,-8.7493,-8.8161,-8.8945,-8.9584,-9.0251,-9.0919,-9.1558,-9.1761,-9.1761,-9.1761,-9.1093,-9.0309,-9.0309,-8.999,-8.97,-9.0193,-9.0803,-9.1558,-9.2661,-9.3415,-9.3991,-9.4255,-9.4463,-9.4362,-9.367,-9.3117,-9.2952,-9.3739,-9.4132,-9.4413,-9.4582,-9.4722,-9.427,-9.285,-9.2472,-9.1852,-9.0479,-9.0324,-9.0424,-9.0679,-8.998,-9.0047,-9.1189,-9.0156,-8.9992,-9.0997,-9.0781,-9.1065,-9.1988,-9.1581,-9.1554,-9.2015,-9.0275,-8.9302,-8.9033,-8.8247,-8.8249,-8.8816,-8.8816,-8.9078,-6.2698,-6.5913,-6.9618,-7.6173,-8.019,-8.3037,-8.491,-8.5621,-8.5967,-8.6432,-8.6146,-8.6017,-8.6429,-8.7817,-8.8365,-8.6658,-8.6437,-8.5795,-8.4001,-8.3844,-8.3876,-8.3876,-8.497,-8.5567,-8.5007,-8.5968,-8.5908,-8.3961,-8.5037,-8.5256,-8.4116,-8.4307,-8.4002,-8.3057,-8.2629,-8.2259,-8.1916,-8.4184,-8.5508,-8.5839,-8.7475,-8.7775,-8.6778,-8.8095,-8.8304,-8.7566,-8.6787,-8.6485,-8.6656,-8.6182,-8.6419,-8.6971,-8.7,-8.7784,-8.8945,-8.9584,-9.0251,-9.0919,-9.1558,-9.1761,-9.1761,-9.1761,-9.1732,-9.1674,-9.1674,-9.1645,-9.1616,-9.1674,-9.2138,-9.2777,-9.3444,-9.4083,-9.4722,-9.5389,-9.478,-9.4094,-9.4112,-9.3738,-9.3711,-9.4947,-9.475,-9.4554,-9.5144,-9.4273,-9.3261,-9.271,-9.2109,-9.1547,-9.0972,-9.0954,-9.1216,-9.1798,-9.0848,-9.0631,-9.1825,-9.0821,-9.0414,-9.1038,-9.1608,-9.1933,-9.2015,-9.1988,-9.1988,-9.2015,-9.1933,-9.1255,-9.0231,-8.9146,-8.8853,-8.9444,-8.9444,-8.947,-6.3344,-6.5801,-6.8871,-7.4038,-7.7503,-8.0109,-8.1992,-8.3764,-8.5187,-8.559,-8.5918,-8.6405,-8.7271,-8.7189,-8.6524,-8.5235,-8.501,-8.4694,-8.3515,-8.4145,-8.4555,-8.4114,-8.4698,-8.517,-8.5122,-8.4744,-8.4363,-8.4023,-8.4248,-8.398,-8.3123,-8.3163,-8.3015,-8.2568,-8.2672,-8.2884,-8.3129,-8.4201,-8.4712,-8.4799,-8.6308,-8.6663,-8.609,-8.6988,-8.7736,-8.8253,-8.7327,-8.7298,-8.7636,-8.6962,-8.7,-8.7581,-8.7581,-8.8132,-8.8945,-8.9584,-9.0251,-9.0919,-9.1558,-9.1761,-9.1761,-9.1761,-9.1499,-9.1151,-9.1151,-9.1151,-9.1238,-9.1645,-9.2225,-9.3067,-9.4519,-9.4751,-9.4687,-9.5043,-9.4524,-9.3998,-9.4169,-9.3484,-9.2952,-9.3402,-9.3626,-9.3823,-9.4048,-9.4385,-9.4229,-9.3218,-9.3284,-9.3152,-9.2169,-9.1742,-9.181,-9.2424,-9.1488,-9.1222,-9.2451,-9.1461,-9.1141,-9.2178,-9.176,-9.1798,-9.2558,-9.2232,-9.2205,-9.2585,-9.2205,-9.1494,-9.0338,-9.0685,-9.0415,-8.9522,-8.9888,-8.9653,-6.1783,-6.3813,-6.6916,-7.1554,-7.4019,-7.6386,-8.0401,-8.2243,-8.3449,-8.4836,-8.5395,-8.5918,-8.6791,-8.6011,-8.5294,-8.5215,-8.5113,-8.4725,-8.403,-8.4915,-8.5389,-8.4694,-8.5249,-8.5559,-8.5154,-8.4357,-8.3819,-8.368,-8.3519,-8.3221,-8.2755,-8.2939,-8.3007,-8.2871,-8.3153,-8.356,-8.4048,-8.4472,-8.4729,-8.4668,-8.5725,-8.6037,-8.5701,-8.615,-8.7197,-8.8693,-8.7847,-8.7936,-8.8535,-8.7484,-8.7348,-8.79,-8.7697,-8.8132,-8.8945,-8.9584,-9.0251,-9.0919,-9.1558,-9.1761,-9.1761,-9.1761,-9.1499,-9.1151,-9.1151,-9.1296,-9.1529,-9.1964,-9.269,-9.3735,-9.5476,-9.5738,-9.547,-9.4904,-9.4524,-9.4229,-9.4176,-9.3271,-9.2615,-9.3036,-9.3121,-9.3149,-9.3373,-9.4104,-9.4357,-9.3542,-9.4002,-9.4149,-9.3307,-9.2982,-9.2869,-9.3062,-9.2288,-9.1972,-9.2779,-9.1978,-9.1793,-9.2779,-9.2141,-9.2069,-9.2883,-9.253,-9.2503,-9.2883,-9.272,-9.2084,-9.0949,-9.1324,-9.0868,-8.9847,-9.0023,-8.9574,0.0,0.0,0.0,-6.8374,-6.9633,-7.1853,-8.0145,-8.0729,-8.0542,-8.384,-8.4284,-8.4172,-8.4729,-8.454,-8.4825,-8.6599,-8.6578,-8.6053,-8.5357,-8.5863,-8.6053,-8.5357,-8.6495,-8.6673,-8.4944,-8.507,-8.4567,-8.2813,-8.289,-8.3049,-8.3018,-8.3695,-8.4012,-8.3907,-8.3938,-8.4092,-8.4412,-8.5164,-8.5468,-8.5377,-8.5759,-8.5786,-8.5671,-8.5671,-8.6778,-8.8663,-8.8175,-8.8505,-8.9209,-8.7688,-8.7377,-8.7871,-8.7261,-8.7784,-8.8974,-8.9584,-9.0251,-9.0948,-9.1558,-9.1851,-9.1851,-9.1761,-9.1761,-9.1761,-9.1761,-9.2225,-9.2719,-9.2748,-9.3648,-9.4896,-9.6173,-9.6986,-9.7065,-9.5221,-9.4838,-9.4619,-9.4114,-9.325,-9.2937,-9.4175,-9.3317,-9.2671,-9.3289,-9.343,-9.343,-9.343,-9.3992,-9.4438,-9.4495,-9.4478,-9.4321,-9.3768,-9.3199,-9.2882,-9.2961,-9.2368,-9.2286,-9.2856,-9.2883,-9.2883,-9.291,-9.2883,-9.2883,-9.291,-9.348,-9.3269,-9.2067,-9.1002,-9.0366,-9.036,-8.9795,-8.9156,-6.0314,0.0,0.0,0.0,0.0,0.0,-7.2033,-7.3875,-7.5756,-7.9259,-8.0165,-8.1382,-8.456,-8.4249,-8.4154,-8.6199,-8.5158,-8.403,-8.3841,-8.4409,-8.4789,-8.4599,-8.5357,-8.5479,-8.4528,-8.4253,-8.3631,-8.241,-8.2596,-8.2404,-8.1733,-8.2458,-8.348,-8.4717,-8.4233,-8.4251,-8.4876,-8.4876,-8.4673,-8.4335,-8.4895,-8.5091,-8.4983,-8.5492,-8.6539,-8.8005,-8.7966,-8.8404,-8.9038,-8.8406,-8.8441,-8.8843,-8.7984,-8.8625,-9.011,-9.0285,-9.1073,-9.2066,-9.2241,-9.23,-9.221,-9.1941,-9.1761,-9.1761,-9.1761,-9.2225,-9.2806,-9.327,-9.3996,-9.4896,-9.6173,-9.6638,-9.6601,-9.5682,-9.5155,-9.4619,-9.4114,-9.3827,-9.3556,-9.3635,-9.302,-9.2671,-9.3289,-9.3795,-9.4104,-9.4104,-9.5003,-9.5593,-9.5111,-9.5144,-9.5072,-9.4959,-9.441,-9.3893,-9.3511,-9.3374,-9.3138,-9.2883,-9.2503,-9.2449,-9.2883,-9.2476,-9.2449,-9.2883,-9.3046,-9.2968,-9.27,-9.2339,-9.156,-9.036,-8.9375,-8.8999,-6.2022,-6.261,-6.3935,-6.4862,0.0,0.0,-7.0682,-7.1716,-7.3037,-7.7865,-7.8884,-7.9924,-8.3325,-8.3441,-8.3481,-8.4827,-8.4403,-8.4005,-8.4441,-8.4883,-8.5168,-8.5168,-8.5515,-8.5416,-8.4587,-8.4289,-8.3793,-8.2871,-8.2976,-8.276,-8.201,-8.2713,-8.3521,-8.4391,-8.4375,-8.4723,-8.5323,-8.4943,-8.4876,-8.5012,-8.4954,-8.5047,-8.5396,-8.5899,-8.6838,-8.8155,-8.8569,-8.9031,-8.9686,-8.9289,-8.9213,-8.9297,-8.8995,-8.9379,-9.0196,-9.0898,-9.1572,-9.2098,-9.239,-9.2478,-9.2389,-9.1941,-9.1761,-9.1761,-9.1761,-9.2225,-9.2835,-9.3473,-9.4519,-9.5505,-9.5999,-9.6318,-9.634,-9.5823,-9.5382,-9.5027,-9.4714,-9.4524,-9.4143,-9.3471,-9.3283,-9.3273,-9.3345,-9.416,-9.475,-9.475,-9.5593,-9.6071,-9.5706,-9.5683,-9.5675,-9.5369,-9.509,-9.4678,-9.4162,-9.3823,-9.3511,-9.3197,-9.2445,-9.2286,-9.2883,-9.2341,-9.2286,-9.2883,-9.291,-9.2805,-9.2595,-9.266,-9.1883,-9.036,-8.9454,-8.9156,-6.3547,-6.3637,-6.5028,-6.7016,-6.5061,0.0,-7.2216,-7.1721,-7.1269,-7.7227,-7.8111,-7.8492,-8.0831,-8.1561,-8.1871,-8.233,-8.345,-8.465,-8.5868,-8.6084,-8.6216,-8.6216,-8.6116,-8.5758,-8.4787,-8.465,-8.4407,-8.3651,-8.3581,-8.3401,-8.3203,-8.3695,-8.389,-8.3622,-8.4525,-8.5169,-8.5488,-8.5188,-8.5526,-8.6348,-8.544,-8.5485,-8.6278,-8.6547,-8.7377,-8.8604,-8.9262,-8.992,-9.0466,-9.0192,-8.9803,-8.9496,-9.0002,-9.0069,-9.0018,-9.1569,-9.1982,-9.1836,-9.2451,-9.2657,-9.2478,-9.2031,-9.1851,-9.179,-9.1848,-9.2312,-9.298,-9.3677,-9.5041,-9.6108,-9.5825,-9.5905,-9.6079,-9.5709,-9.5622,-9.5593,-9.5505,-9.5158,-9.4619,-9.3664,-9.3829,-9.3933,-9.3683,-9.4441,-9.5228,-9.5368,-9.5846,-9.6211,-9.6211,-9.6127,-9.5924,-9.5573,-9.5416,-9.5211,-9.4678,-9.4162,-9.3823,-9.3719,-9.2707,-9.2341,-9.2883,-9.2395,-9.2368,-9.2883,-9.291,-9.27,-9.2173,-9.2148,-9.1537,-9.0466,-8.9926,-8.9601,-6.6929,-6.632,-6.6187,-6.6618,-6.6187,0.0,-6.5624,-6.6324,-6.756,-6.978,-7.0428,-7.1714,-7.5413,-7.5919,-7.6206,-7.7435,-7.9269,-8.1284,-8.3493,-8.4315,-8.4694,-8.4694,-8.4393,-8.4127,-8.3902,-8.3888,-8.3596,-8.2868,-8.2559,-8.2842,-8.3849,-8.351,-8.3541,-8.3952,-8.4379,-8.4631,-8.468,-8.4886,-8.4848,-8.4744,-8.5635,-8.5899,-8.5888,-8.6438,-8.7137,-8.7945,-8.8574,-8.9262,-8.989,-9.0346,-9.0472,-9.0306,-8.9669,-9.0293,-9.1497,-9.1819,-9.259,-9.3451,-9.36,-9.3365,-9.3012,-9.2478,-9.212,-9.1877,-9.237,-9.298,-9.3735,-9.4896,-9.4818,-9.4717,-9.5992,-9.5368,-9.4631,-9.5412,-9.5622,-9.5476,-9.4925,-9.5122,-9.5216,-9.4619,-9.3941,-9.3788,-9.4584,-9.4655,-9.4891,-9.5874,-9.6127,-9.6211,-9.6211,-9.5762,-9.5649,-9.6054,-9.5661,-9.5246,-9.5239,-9.5164,-9.4651,-9.3719,-9.3506,-9.3193,-9.2883,-9.2802,-9.2775,-9.291,-9.291,-9.291,-9.27,-9.2338,-9.1721,-9.1073,-9.0446,-9.0228,-6.9191,-6.8268,-6.7777,-6.8506,-6.7314,0.0,0.0,-6.5717,-6.6119,-6.8502,-6.8421,-6.8968,-7.2346,-7.2466,-7.2658,-7.4405,-7.6838,-7.8711,-7.9223,-8.182,-8.3746,-8.3746,-8.3413,-8.3144,-8.301,-8.3226,-8.3511,-8.3643,-8.2983,-8.2864,-8.3572,-8.3603,-8.3603,-8.3603,-8.434,-8.4717,-8.4497,-8.4947,-8.5166,-8.5122,-8.592,-8.635,-8.6555,-8.7307,-8.7856,-8.8245,-8.9232,-8.986,-9.016,-9.0519,-9.0638,-9.0615,-9.0853,-9.1338,-9.1991,-9.2903,-9.3501,-9.3892,-9.3892,-9.3629,-9.31,-9.2657,-9.221,-9.1848,-9.2138,-9.2922,-9.3793,-9.446,-9.468,-9.4725,-9.4696,-9.4725,-9.4753,-9.4753,-9.5173,-9.5535,-9.5186,-9.536,-9.5499,-9.5216,-9.4592,-9.4335,-9.4978,-9.5008,-9.5144,-9.6071,-9.6211,-9.6211,-9.6211,-9.593,-9.5846,-9.6183,-9.5649,-9.5436,-9.5749,-9.5294,-9.4859,-9.452,-9.3756,-9.3314,-9.3302,-9.2716,-9.2585,-9.2883,-9.291,-9.291,-9.291,-9.2659,-9.2204,-9.1691,-9.1084,-9.0672,-7.1594,-7.0519,-6.9931,-7.0693,-6.8771,-6.6883,0.0,0.0,0.0,-6.8338,-6.7606,-6.7231,-6.9723,-6.9472,-6.9459,-7.1349,-7.4051,-7.546,-7.4097,-7.8116,-8.1376,-8.1786,-8.193,-8.1913,-8.1646,-8.1886,-8.2834,-8.4656,-8.3168,-8.2534,-8.3233,-8.3788,-8.3849,-8.3295,-8.4393,-8.4789,-8.4424,-8.51,-8.5545,-8.5713,-8.6144,-8.6711,-8.7403,-8.8166,-8.8634,-8.8933,-8.998,-9.0519,-9.0638,-9.0638,-9.0638,-9.0758,-9.1805,-9.212,-9.2192,-9.3638,-9.4119,-9.398,-9.3892,-9.3629,-9.31,-9.2657,-9.2298,-9.1964,-9.1964,-9.2835,-9.3822,-9.3706,-9.4339,-9.4825,-9.3498,-9.4146,-9.4941,-9.4161,-9.4847,-9.5564,-9.5447,-9.5535,-9.5622,-9.5622,-9.5146,-9.4854,-9.5203,-9.5149,-9.5312,-9.593,-9.6015,-9.6015,-9.6015,-9.6015,-9.6071,-9.6183,-9.5649,-9.5537,-9.6155,-9.5329,-9.4941,-9.5341,-9.4113,-9.3439,-9.3719,-9.2762,-9.2395,-9.2883,-9.291,-9.291,-9.291,-9.2872,-9.2687,-9.2283,-9.1672,-9.107,-7.5489,-7.4356,-7.3111,-7.1355,-7.109,-7.0129,-6.5856,0.0,-6.5928,-6.4629,0.0,-6.4341,-6.5497,0.0,0.0,-6.6334,-6.8676,-6.9957,-6.8945,-7.178,-7.4707,-7.6572,-7.8407,-7.9492,-7.9395,-7.8602,-8.0037,-8.4691,-8.1262,-8.0428,-8.3788,-8.4065,-8.4065,-8.3972,-8.4318,-8.435,-8.3981,-8.488,-8.5194,-8.4868,-8.6049,-8.7007,-8.7666,-8.7736,-8.8454,-8.9561,-8.9711,-9.01,-9.0638,-9.0638,-9.0638,-9.0668,-9.0788,-9.1482,-9.2529,-9.2763,-9.3571,-9.4445,-9.4067,-9.3629,-9.31,-9.2657,-9.2499,-9.2603,-9.2603,-9.3502,-9.4402,-9.3822,-9.3487,-9.3382,-9.4188,-9.3799,-9.3411,-9.4304,-9.5035,-9.5447,-9.4867,-9.5186,-9.5622,-9.5622,-9.4772,-9.4504,-9.5635,-9.5107,-9.4694,-9.5284,-9.5397,-9.5397,-9.5397,-9.5397,-9.5593,-9.6127,-9.5649,-9.5537,-9.6155,-9.6026,-9.5823,-9.5471,-9.5224,-9.4761,-9.3746,-9.3143,-9.2829,-9.291,-9.291,-9.291,-9.291,-9.2872,-9.2901,-9.2842,-9.2294,-9.172,-7.5887,-7.5236,-7.4403,-7.2614,-7.1786,-7.0361,-6.6519,-6.4961,-6.4386,-6.4256,0.0,0.0,0.0,0.0,0.0,0.0,-6.607,-6.7029,-6.5427,-6.8373,-7.1369,-7.3317,-7.3819,-7.4559,-7.6179,-7.7157,-7.9151,-8.2495,-8.1032,-8.1001,-8.3387,-8.4033,-8.4134,-8.3766,-8.4014,-8.4164,-8.411,-8.4925,-8.531,-8.5312,-8.6629,-8.7437,-8.7736,-8.8484,-8.9142,-8.9681,-9.007,-9.0399,-9.0555,-9.0389,-9.0222,-9.0222,-8.9971,-9.0704,-9.2075,-9.2464,-9.2772,-9.3022,-9.282,-9.2537,-9.2217,-9.2093,-9.2115,-9.2225,-9.2603,-9.3096,-9.3444,-9.3183,-9.3463,-9.3713,-9.3279,-9.377,-9.4378,-9.4262,-9.4941,-9.5535,-9.5244,-9.5418,-9.5615,-9.5679,-9.5357,-9.5321,-9.594,-9.5107,-9.4582,-9.52,-9.5593,-9.5818,-9.5818,-9.5818,-9.5902,-9.6183,-9.5649,-9.5537,-9.6155,-9.6211,-9.625,-9.6411,-9.6201,-9.5317,-9.3847,-9.3504,-9.3399,-9.3399,-9.3073,-9.3073,-9.3399,-9.3106,-9.2739,-9.2469,-9.2506,-9.2088,-7.71,-7.6797,-7.6125,-7.3475,-7.1985,-7.0328,-6.6982,-6.5159,-6.4407,-6.5233,-6.4283,0.0,0.0,0.0,-6.3156,-6.3379,0.0,-6.5066,-6.3099,-6.5052,-6.7367,-6.9272,-6.9727,-7.1084,-7.3943,-7.5302,-7.7305,-8.0415,-7.9953,-8.0624,-8.3233,-8.4176,-8.4521,-8.4245,-8.449,-8.4622,-8.4729,-8.527,-8.5611,-8.5701,-8.7077,-8.7796,-8.8005,-8.9142,-8.9771,-8.995,-9.0429,-9.0555,-9.0389,-9.0139,-8.9887,-8.9803,-8.9466,-8.9986,-9.1081,-9.1737,-9.1839,-9.1731,-9.1559,-9.1365,-9.1306,-9.1444,-9.1616,-9.1848,-9.2312,-9.2574,-9.2719,-9.2719,-9.3386,-9.3875,-9.2926,-9.3863,-9.4948,-9.427,-9.4869,-9.5528,-9.5405,-9.5499,-9.5607,-9.574,-9.5509,-9.5481,-9.5786,-9.5205,-9.4778,-9.52,-9.5649,-9.5959,-9.5959,-9.6099,-9.6211,-9.6211,-9.579,-9.5706,-9.6155,-9.6211,-9.6419,-9.6924,-9.6298,-9.5463,-9.4294,-9.3969,-9.3779,-9.3779,-9.3209,-9.3127,-9.3534,-9.31,-9.2494,-9.1883,-9.2592,-9.2251,-8.056,-8.0185,-7.914,-7.3442,-7.2018,-7.0825,-6.6452,-6.6473,-6.742,-6.7221,-6.8039,-6.847,-6.7639,-6.7232,-6.6533,-6.49,-6.448,0.0,0.0,-6.1122,-6.134,-6.3489,-6.6991,-7.0454,-7.3503,-7.2132,-7.3412,-7.9145,-7.7067,-7.805,-8.3757,-8.4711,-8.5388,-8.6035,-8.6267,-8.6259,-8.5881,-8.6118,-8.6062,-8.5701,-8.7077,-8.8035,-8.8663,-8.9352,-9.001,-9.0608,-9.0638,-9.0389,-9.0055,-9.0055,-8.9719,-8.9297,-8.9297,-8.9297,-8.947,-9.012,-9.0798,-9.1272,-9.0693,-9.0693,-9.0832,-9.0832,-9.1267,-9.1761,-9.179,-9.2225,-9.2719,-9.2719,-9.2748,-9.3038,-9.4228,-9.4141,-9.3933,-9.4587,-9.5216,-9.5405,-9.4904,-9.5216,-9.5607,-9.574,-9.4792,-9.4283,-9.5048,-9.5262,-9.5256,-9.5284,-9.5312,-9.5312,-9.5312,-9.5846,-9.6211,-9.6211,-9.6183,-9.6183,-9.6211,-9.6211,-9.6206,-9.6393,-9.5294,-9.4959,-9.5488,-9.4403,-9.3779,-9.3779,-9.3209,-9.291,-9.2937,-9.291,-9.2279,-9.127,-9.2416,-9.2294,-8.2167,-8.19,-8.0784,-7.6636,-7.4349,-7.2167,-6.8426,-6.7976,-6.7996,-6.6839,-6.7874,-6.8585,-6.7117,-6.707,-6.6711,-6.5158,-6.5255,-6.4353,0.0,-5.8868,-5.8527,-6.1087,-6.4349,-6.647,-6.6612,-7.0206,-7.3539,-7.5956,-7.7648,-7.9915,-8.3233,-8.4709,-8.5544,-8.5759,-8.6059,-8.6184,-8.6118,-8.6282,-8.6302,-8.6359,-8.7706,-8.8454,-8.8723,-8.9801,-9.0429,-9.0638,-9.0638,-9.0389,-8.9971,-8.9635,-8.9297,-8.8787,-8.8531,-8.8359,-8.8474,-8.9363,-8.9598,-8.9549,-8.9876,-9.0049,-9.0222,-9.0687,-9.1238,-9.1703,-9.1267,-9.1587,-9.208,-9.208,-9.2399,-9.2922,-9.3764,-9.4141,-9.4426,-9.4702,-9.5216,-9.5405,-9.4904,-9.5534,-9.6092,-9.5892,-9.5859,-9.5867,-9.5826,-9.5863,-9.5762,-9.534,-9.5621,-9.5902,-9.5902,-9.6071,-9.6211,-9.6211,-9.6211,-9.6211,-9.6211,-9.6271,-9.6511,-9.6923,-9.6256,-9.5805,-9.5597,-9.4837,-9.4403,-9.4403,-9.3399,-9.31,-9.348,-9.3073,-9.2252,-9.1217,-9.2016,-9.195,-8.3202,-8.3128,-8.2511,-7.8738,-7.6786,-7.4826,-7.0946,-7.0713,-7.083,-6.9232,-6.978,-7.0499,-7.0192,-6.9145,-6.7989,-6.6952,-6.6239,-6.4385,0.0,-5.8133,-5.7716,-5.949,-6.1635,-6.3386,-6.4382,-6.7634,0.0,-7.4841,0.0,0.0,0.0,-8.4586,-8.5636,-8.6126,-8.667,-8.6882,-8.689,-8.6765,-8.6663,-8.6689,-8.8035,-8.8693,-8.8723,-9.004,-9.0638,-9.0638,-9.0638,-9.0306,-8.9719,-8.9466,-8.8958,-8.8359,-8.8015,-8.7929,-8.8015,-8.8616,-8.8616,-8.8476,-8.8945,-8.9438,-8.9845,-9.0048,-9.0861,-9.1645,-9.1006,-9.1267,-9.1819,-9.2051,-9.2254,-9.2574,-9.3444,-9.3967,-9.4339,-9.4414,-9.5043,-9.5405,-9.4904,-9.5679,-9.641,-9.6013,-9.6276,-9.6522,-9.6245,-9.6015,-9.5818,-9.5649,-9.5959,-9.6211,-9.6211,-9.6211,-9.6211,-9.6211,-9.638,-9.6633,-9.6858,-9.6486,-9.6631,-9.724,-9.6747,-9.635,-9.592,-9.5351,-9.5027,-9.5027,-9.405,-9.3616,-9.3779,-9.3616,-9.2789,-9.1537,-9.1937,-9.1768]},{"header":{"parameterUnit":"m.s-1","parameterCategory":1,"la1":30.6,"la2":29.2853,"lo1":-89.7004,"lo2":-87.6739,"dy":0.0162,"dx":0.0183,"nx":112,"ny":82,"refTime":"2024-03-23T12:00:00:Z","depth":0,"parameterNumber":3,"parameterNumberName":"V-component_of_WINDS"},"data":[0.0,0.0,0.0,0.0,0.0,0.0,0.0,0.0,0.0,0.0,0.0,0.0,0.0,0.0,0.0,0.0,0.0,0.0,0.0,0.0,0.0,0.0,0.0,0.0,0.0,0.0,0.0,0.0,0.0,0.0,0.0,0.0,0.0,0.0,0.0,0.0,0.0,0.0,0.0,0.0,0.0,0.0,0.0,0.0,0.0,0.0,0.0,0.0,0.0,0.0,0.0,0.0,0.0,0.0,0.0,0.0,0.0,0.0,0.0,0.0,0.0,0.0,0.0,0.0,0.0,0.0,0.0,0.0,0.0,0.0,0.0,0.0,0.0,0.0,0.0,0.0,0.0,0.0,0.0,0.0,0.0,0.0,0.0,0.0,0.0,0.0,0.0,0.0,0.0,0.0,7.5407,7.84,8.2409,8.4594,8.4012,8.331,8.0963,7.6348,0.0,0.0,0.0,0.0,0.0,0.0,0.0,0.0,0.0,0.0,0.0,0.0,0.0,0.0,0.0,0.0,0.0,0.0,0.0,0.0,0.0,0.0,0.0,0.0,0.0,0.0,0.0,0.0,0.0,0.0,0.0,0.0,0.0,0.0,0.0,0.0,0.0,0.0,0.0,0.0,0.0,0.0,0.0,0.0,0.0,0.0,0.0,0.0,0.0,0.0,0.0,0.0,0.0,0.0,0.0,0.0,0.0,0.0,0.0,0.0,0.0,0.0,0.0,0.0,0.0,0.0,0.0,0.0,0.0,0.0,0.0,0.0,0.0,0.0,0.0,0.0,0.0,0.0,0.0,0.0,0.0,0.0,0.0,0.0,0.0,0.0,0.0,0.0,0.0,0.0,0.0,0.0,0.0,0.0,0.0,0.0,0.0,0.0,0.0,0.0,0.0,0.0,0.0,0.0,7.442,8.202,8.4444,8.5438,8.5087,8.3731,8.1247,7.7355,0.0,0.0,0.0,0.0,0.0,0.0,0.0,0.0,0.0,0.0,0.0,0.0,0.0,0.0,0.0,0.0,0.0,0.0,0.0,0.0,0.0,0.0,0.0,0.0,0.0,0.0,0.0,0.0,0.0,0.0,0.0,0.0,0.0,0.0,0.0,0.0,0.0,0.0,0.0,0.0,0.0,0.0,0.0,0.0,0.0,0.0,0.0,0.0,0.0,0.0,0.0,0.0,0.0,0.0,0.0,0.0,0.0,0.0,0.0,0.0,0.0,0.0,0.0,0.0,0.0,0.0,0.0,0.0,0.0,0.0,0.0,0.0,0.0,0.0,0.0,0.0,0.0,0.0,0.0,0.0,0.0,0.0,0.0,0.0,0.0,0.0,0.0,0.0,0.0,0.0,0.0,0.0,0.0,0.0,0.0,0.0,0.0,0.0,0.0,0.0,0.0,0.0,0.0,7.2684,7.6365,8.3487,8.4803,8.5198,8.5284,8.3459,8.0984,7.7643,7.5928,0.0,0.0,0.0,0.0,0.0,0.0,0.0,0.0,0.0,0.0,0.0,0.0,0.0,0.0,0.0,0.0,0.0,0.0,0.0,0.0,0.0,0.0,0.0,0.0,0.0,0.0,0.0,0.0,0.0,0.0,0.0,0.0,0.0,0.0,0.0,0.0,0.0,0.0,0.0,0.0,0.0,0.0,0.0,0.0,0.0,0.0,0.0,0.0,0.0,0.0,0.0,0.0,0.0,0.0,0.0,0.0,0.0,0.0,0.0,0.0,0.0,0.0,0.0,0.0,0.0,0.0,0.0,0.0,0.0,0.0,0.0,0.0,0.0,0.0,0.0,0.0,0.0,0.0,0.0,0.0,0.0,0.0,0.0,0.0,0.0,0.0,0.0,0.0,0.0,0.0,0.0,0.0,0.0,0.0,0.0,0.0,0.0,0.0,0.0,0.0,0.0,0.0,7.6544,7.9447,8.4569,8.4958,8.5023,8.556,8.3257,8.0629,7.7961,7.5713,0.0,0.0,0.0,0.0,0.0,0.0,0.0,0.0,0.0,0.0,0.0,0.0,0.0,0.0,0.0,0.0,0.0,0.0,0.0,0.0,0.0,0.0,0.0,0.0,0.0,0.0,0.0,0.0,0.0,0.0,0.0,0.0,0.0,0.0,0.0,0.0,0.0,0.0,0.0,0.0,0.0,0.0,0.0,0.0,0.0,0.0,0.0,0.0,0.0,0.0,0.0,0.0,0.0,0.0,0.0,0.0,0.0,0.0,0.0,0.0,0.0,0.0,0.0,0.0,0.0,0.0,0.0,0.0,0.0,0.0,0.0,0.0,0.0,0.0,0.0,0.0,0.0,0.0,0.0,0.0,0.0,0.0,0.0,0.0,0.0,0.0,0.0,0.0,0.0,0.0,0.0,0.0,0.0,0.0,0.0,0.0,0.0,0.0,0.0,0.0,0.0,0.0,7.8489,8.328,8.5946,8.5645,8.556,8.632,8.3446,8.0776,7.8974,7.5292,0.0,0.0,0.0,0.0,0.0,0.0,0.0,0.0,0.0,0.0,0.0,0.0,0.0,0.0,0.0,0.0,0.0,0.0,0.0,0.0,0.0,0.0,0.0,0.0,0.0,0.0,0.0,0.0,0.0,0.0,0.0,0.0,0.0,0.0,0.0,0.0,0.0,0.0,0.0,0.0,0.0,0.0,0.0,0.0,0.0,0.0,0.0,0.0,0.0,0.0,0.0,0.0,0.0,0.0,0.0,0.0,0.0,0.0,0.0,0.0,0.0,0.0,0.0,0.0,0.0,0.0,0.0,0.0,0.0,0.0,0.0,0.0,0.0,0.0,0.0,0.0,0.0,0.0,0.0,0.0,0.0,0.0,0.0,0.0,0.0,0.0,0.0,0.0,0.0,0.0,0.0,0.0,0.0,0.0,0.0,0.0,0.0,0.0,0.0,0.0,0.0,0.0,7.7655,8.2032,8.5667,8.5834,8.5941,8.647,8.3782,8.1061,7.8518,0.0,0.0,0.0,0.0,0.0,0.0,0.0,0.0,0.0,0.0,0.0,0.0,0.0,0.0,0.0,0.0,0.0,0.0,0.0,0.0,0.0,0.0,0.0,0.0,0.0,0.0,0.0,0.0,0.0,0.0,0.0,0.0,0.0,0.0,0.0,0.0,0.0,0.0,0.0,0.0,0.0,0.0,0.0,0.0,0.0,0.0,0.0,0.0,0.0,0.0,0.0,0.0,0.0,0.0,0.0,0.0,0.0,0.0,0.0,0.0,0.0,0.0,0.0,0.0,0.0,0.0,0.0,0.0,0.0,0.0,0.0,0.0,0.0,0.0,0.0,0.0,0.0,0.0,0.0,0.0,0.0,0.0,0.0,0.0,0.0,0.0,0.0,0.0,0.0,0.0,0.0,0.0,0.0,0.0,0.0,0.0,0.0,0.0,0.0,0.0,0.0,0.0,7.3551,7.8026,8.2352,8.6336,8.6336,8.6244,8.6695,8.4031,8.1139,7.818,0.0,0.0,0.0,0.0,0.0,0.0,0.0,0.0,0.0,0.0,0.0,0.0,0.0,0.0,0.0,0.0,0.0,0.0,0.0,0.0,0.0,0.0,0.0,0.0,0.0,0.0,0.0,0.0,0.0,0.0,0.0,0.0,0.0,0.0,0.0,0.0,0.0,0.0,0.0,0.0,0.0,0.0,0.0,0.0,0.0,0.0,0.0,0.0,0.0,0.0,0.0,0.0,0.0,0.0,0.0,0.0,0.0,0.0,0.0,0.0,0.0,0.0,0.0,0.0,0.0,0.0,0.0,0.0,0.0,0.0,0.0,0.0,0.0,0.0,0.0,0.0,0.0,0.0,0.0,0.0,0.0,0.0,0.0,0.0,0.0,0.0,0.0,0.0,0.0,0.0,0.0,0.0,0.0,0.0,0.0,0.0,0.0,0.0,0.0,0.0,0.0,0.0,7.4969,8.0415,8.512,8.8257,8.734,8.6726,8.7173,8.4034,8.0925,0.0,0.0,0.0,0.0,0.0,0.0,0.0,0.0,0.0,0.0,0.0,0.0,0.0,0.0,0.0,0.0,0.0,0.0,0.0,0.0,0.0,0.0,0.0,0.0,0.0,0.0,0.0,0.0,0.0,0.0,0.0,0.0,0.0,0.0,0.0,0.0,0.0,0.0,0.0,0.0,0.0,0.0,0.0,0.0,0.0,0.0,0.0,0.0,0.0,0.0,0.0,0.0,0.0,0.0,0.0,0.0,0.0,0.0,0.0,0.0,0.0,0.0,0.0,0.0,0.0,0.0,0.0,0.0,0.0,0.0,0.0,0.0,0.0,0.0,0.0,0.0,0.0,0.0,0.0,0.0,0.0,0.0,0.0,0.0,0.0,0.0,0.0,0.0,0.0,0.0,0.0,0.0,0.0,0.0,0.0,0.0,0.0,0.0,0.0,0.0,0.0,0.0,0.0,7.4668,8.075,8.5604,8.8055,8.7547,8.7025,8.7173,8.4034,8.0847,7.7868,0.0,0.0,0.0,0.0,0.0,0.0,0.0,0.0,0.0,0.0,0.0,0.0,0.0,0.0,0.0,0.0,0.0,0.0,0.0,0.0,0.0,0.0,0.0,0.0,0.0,0.0,0.0,0.0,0.0,0.0,0.0,0.0,0.0,0.0,0.0,0.0,0.0,0.0,0.0,0.0,0.0,0.0,0.0,0.0,0.0,0.0,0.0,0.0,0.0,0.0,0.0,0.0,0.0,0.0,0.0,0.0,0.0,0.0,0.0,0.0,0.0,0.0,0.0,0.0,0.0,0.0,0.0,0.0,0.0,0.0,0.0,0.0,0.0,0.0,0.0,0.0,0.0,0.0,0.0,0.0,0.0,0.0,0.0,0.0,0.0,0.0,0.0,0.0,0.0,0.0,0.0,0.0,0.0,0.0,0.0,0.0,0.0,0.0,0.0,0.0,0.0,0.0,7.4593,8.0923,8.5825,8.793,8.7604,8.7081,8.6773,8.4126,8.1117,7.7926,0.0,0.0,0.0,0.0,0.0,0.0,0.0,0.0,0.0,0.0,0.0,0.0,0.0,0.0,0.0,0.0,0.0,0.0,0.0,0.0,0.0,0.0,0.0,0.0,0.0,0.0,0.0,0.0,0.0,0.0,0.0,0.0,0.0,0.0,0.0,0.0,0.0,0.0,0.0,0.0,0.0,0.0,0.0,0.0,0.0,0.0,0.0,0.0,0.0,0.0,0.0,0.0,0.0,0.0,0.0,0.0,0.0,0.0,0.0,0.0,0.0,0.0,0.0,0.0,0.0,0.0,0.0,0.0,0.0,0.0,0.0,0.0,0.0,0.0,0.0,0.0,0.0,0.0,0.0,0.0,0.0,0.0,0.0,0.0,0.0,0.0,0.0,0.0,0.0,0.0,0.0,0.0,0.0,0.0,0.0,0.0,0.0,0.0,0.0,0.0,0.0,0.0,7.4785,8.1069,8.593,8.8066,8.7666,8.6989,8.6281,8.428,8.1664,7.8339,0.0,0.0,0.0,0.0,0.0,0.0,0.0,0.0,0.0,0.0,0.0,0.0,0.0,0.0,0.0,0.0,0.0,0.0,0.0,0.0,0.0,0.0,0.0,0.0,0.0,0.0,0.0,0.0,0.0,0.0,0.0,0.0,0.0,0.0,0.0,0.0,0.0,0.0,0.0,0.0,0.0,0.0,0.0,0.0,0.0,0.0,0.0,0.0,0.0,0.0,0.0,0.0,0.0,0.0,0.0,0.0,0.0,0.0,0.0,0.0,6.5302,6.3251,0.0,0.0,0.0,0.0,0.0,0.0,0.0,0.0,0.0,0.0,0.0,0.0,0.0,0.0,0.0,0.0,0.0,0.0,0.0,0.0,0.0,0.0,0.0,0.0,0.0,0.0,0.0,0.0,0.0,0.0,0.0,0.0,0.0,0.0,0.0,0.0,0.0,0.0,0.0,0.0,7.5693,8.1633,8.6415,8.8774,8.8374,8.7697,8.702,8.4588,8.2018,7.9352,7.5986,0.0,0.0,0.0,0.0,0.0,0.0,0.0,0.0,0.0,0.0,0.0,0.0,0.0,0.0,0.0,0.0,0.0,0.0,0.0,0.0,0.0,0.0,0.0,0.0,0.0,0.0,0.0,0.0,0.0,0.0,0.0,0.0,0.0,0.0,0.0,0.0,0.0,0.0,0.0,0.0,0.0,0.0,0.0,0.0,0.0,0.0,0.0,0.0,0.0,0.0,0.0,0.0,0.0,0.0,0.0,0.0,0.0,0.0,0.0,6.9152,6.7719,0.0,0.0,0.0,0.0,0.0,0.0,0.0,0.0,0.0,0.0,0.0,0.0,0.0,0.0,0.0,0.0,0.0,0.0,0.0,0.0,0.0,0.0,0.0,0.0,0.0,0.0,0.0,0.0,0.0,0.0,0.0,0.0,0.0,0.0,0.0,0.0,0.0,0.0,0.0,0.0,7.6523,8.2203,8.6582,8.8528,8.8405,8.7789,8.6743,8.508,8.3036,8.0662,7.7792,0.0,0.0,0.0,0.0,0.0,0.0,0.0,0.0,0.0,0.0,0.0,0.0,0.0,0.0,0.0,0.0,0.0,0.0,0.0,0.0,0.0,0.0,0.0,0.0,0.0,0.0,0.0,0.0,0.0,0.0,0.0,0.0,0.0,0.0,0.0,0.0,0.0,0.0,0.0,0.0,0.0,0.0,0.0,0.0,0.0,0.0,0.0,0.0,0.0,0.0,0.0,0.0,0.0,7.1962,7.2355,7.2383,7.3142,7.4097,7.5081,7.3732,7.3395,7.3564,7.1288,0.0,0.0,0.0,0.0,0.0,0.0,0.0,0.0,0.0,0.0,0.0,0.0,0.0,0.0,0.0,0.0,0.0,0.0,0.0,0.0,0.0,0.0,7.0452,7.0849,7.2007,7.1996,6.7956,0.0,0.0,0.0,0.0,0.0,0.0,0.0,0.0,0.0,0.0,0.0,7.7391,8.2569,8.6466,8.7881,8.8128,8.7635,8.6219,8.5604,8.43,8.2124,7.9946,7.7963,0.0,0.0,0.0,0.0,0.0,0.0,0.0,0.0,0.0,0.0,0.0,0.0,0.0,0.0,0.0,0.0,0.0,0.0,0.0,0.0,0.0,0.0,0.0,0.0,0.0,0.0,0.0,0.0,0.0,0.0,0.0,0.0,6.0868,6.2605,0.0,0.0,0.0,0.0,0.0,0.0,0.0,0.0,0.0,0.0,0.0,0.0,0.0,7.1569,7.1821,7.3395,7.4238,7.435,7.6036,7.6823,7.6879,7.8059,7.8987,7.9689,8.0504,0.0,7.6205,7.48,0.0,0.0,0.0,0.0,0.0,0.0,0.0,0.0,0.0,0.0,0.0,0.0,0.0,0.0,0.0,0.0,0.0,0.0,0.0,0.0,0.0,0.0,7.5862,7.6573,7.7352,7.7382,7.5647,7.1278,6.7481,6.6553,6.5795,6.463,0.0,0.0,0.0,0.0,0.0,0.0,7.8242,8.2547,8.5788,8.7173,8.7851,8.7635,8.6219,8.6035,8.5225,8.355,8.2249,8.0807,7.9129,7.7367,0.0,0.0,0.0,0.0,0.0,0.0,0.0,0.0,0.0,0.0,0.0,0.0,0.0,0.0,0.0,0.0,0.0,0.0,0.0,0.0,0.0,0.0,0.0,0.0,0.0,0.0,0.0,0.0,0.0,6.0211,6.2645,6.399,6.5259,6.5633,0.0,0.0,0.0,0.0,0.0,0.0,0.0,0.0,0.0,7.4535,7.4384,7.4772,7.5783,7.6598,7.6992,7.702,7.8537,7.9268,7.9296,8.0532,8.1631,8.2537,8.3413,8.316,8.2001,7.8721,7.6402,7.4711,0.0,0.0,0.0,0.0,7.26,7.2706,7.5127,7.5329,7.4394,7.3458,0.0,0.0,0.0,0.0,0.0,0.0,0.0,7.0941,7.3134,7.5445,7.7563,7.889,7.957,7.9776,7.9178,7.6425,7.305,6.9553,6.9203,6.8182,6.4122,6.5098,0.0,0.0,0.0,7.64,7.9263,8.3172,8.5911,8.6527,8.7204,8.7204,8.6219,8.5758,8.4978,8.3767,8.3431,8.2682,8.1422,8.0047,7.8279,0.0,0.0,0.0,0.0,0.0,0.0,0.0,0.0,0.0,0.0,0.0,0.0,0.0,0.0,0.0,0.0,0.0,0.0,0.0,0.0,0.0,0.0,0.0,0.0,0.0,0.0,0.0,0.0,6.2868,6.507,6.6036,6.7688,6.8143,0.0,0.0,0.0,0.0,0.0,0.0,7.3856,7.4437,7.6076,7.879,7.8172,7.8425,7.9773,7.9802,7.9802,7.9802,8.0927,8.1377,8.1406,8.2648,8.3584,8.4442,8.5038,8.564,8.5991,8.2055,7.9555,7.8124,7.6384,7.5239,7.4626,7.5908,7.6167,7.6288,7.9163,7.9639,7.8804,7.8001,7.6056,7.3589,7.0889,0.0,0.0,0.0,0.0,7.379,7.5729,7.7696,7.9455,8.0629,8.1242,8.1512,8.1332,8.0255,7.7932,7.319,7.3058,7.2168,6.7064,6.888,0.0,7.0282,7.4636,7.8647,8.0402,8.3541,8.5665,8.585,8.6496,8.6681,8.6158,8.5738,8.5215,8.455,8.4754,8.4476,8.3692,8.2572,8.1154,7.9385,0.0,0.0,0.0,0.0,0.0,0.0,0.0,0.0,0.0,0.0,0.0,0.0,0.0,0.0,0.0,0.0,0.0,0.0,0.0,0.0,0.0,0.0,0.0,0.0,0.0,0.0,0.0,0.0,0.0,6.9615,7.1847,0.0,0.0,0.0,0.0,7.2557,7.5147,7.7063,7.7705,7.9745,8.1319,8.205,8.2611,8.2949,8.3033,8.3033,8.3033,8.3033,8.3554,8.3843,8.3871,8.4931,8.5418,8.5562,8.6191,8.6162,8.5534,8.4077,8.333,8.2832,8.03,7.961,7.9896,7.948,8.0014,8.0882,8.1291,8.0985,8.0489,8.0832,7.8436,7.5504,7.5911,7.4285,0.0,0.0,7.627,7.7984,7.9064,8.1142,8.2979,8.2961,8.327,8.3427,8.2798,8.1631,8.0265,7.878,7.801,7.6841,7.431,0.0,7.5563,7.5112,7.6722,7.8986,8.1633,8.3264,8.4434,8.508,8.5758,8.6158,8.6127,8.6389,8.6794,8.7092,8.6823,8.6554,8.6242,8.4852,8.2829,8.0111,7.8531,0.0,0.0,0.0,0.0,0.0,0.0,0.0,0.0,0.0,0.0,0.0,0.0,0.0,0.0,0.0,0.0,0.0,0.0,0.0,0.0,0.0,0.0,0.0,0.0,0.0,0.0,0.0,0.0,7.1933,7.4005,0.0,7.3337,7.4821,7.5787,7.5564,7.8234,7.9998,8.0222,8.171,8.2696,8.2921,8.3173,8.3286,8.3286,8.3286,8.3286,8.3286,8.4206,8.4551,8.458,8.573,8.6366,8.6628,8.6858,8.7004,8.7005,8.6139,8.5158,8.3923,8.2927,8.2407,8.2301,8.2623,8.2745,8.295,8.3666,8.3289,8.2306,8.144,8.0004,7.864,7.8872,7.7972,7.7101,7.8154,7.9249,8.0152,8.0512,8.1645,8.284,8.3283,8.3264,8.3277,8.3876,8.2978,8.214,8.236,8.0441,7.8156,7.6055,7.7111,7.7753,7.6304,7.8722,8.0832,8.1356,8.3357,8.4834,8.508,8.5327,8.5819,8.6743,8.5967,8.5481,8.5654,8.5971,8.5918,8.5364,8.5064,8.4473,8.3493,8.1628,7.8879,0.0,0.0,0.0,0.0,0.0,0.0,0.0,0.0,0.0,0.0,0.0,0.0,0.0,0.0,0.0,0.0,0.0,0.0,0.0,0.0,0.0,0.0,0.0,0.0,0.0,7.1198,7.4251,7.4006,7.6263,7.7149,7.5651,7.7203,7.8289,7.8289,8.0559,8.2021,8.2021,8.323,8.3904,8.3904,8.3904,8.3904,8.3904,8.3904,8.3992,8.4141,8.4976,8.5526,8.573,8.6597,8.7119,8.7467,8.7467,8.764,8.7871,8.7232,8.6423,8.5503,8.5,8.4486,8.404,8.4358,8.4276,8.4105,8.5019,8.4643,8.3632,8.2773,8.1949,8.1281,8.1281,8.0817,8.0381,8.0975,8.1608,8.2132,8.2365,8.321,8.4061,8.4374,8.4268,8.4265,8.4893,8.4025,8.3353,8.4242,8.2453,8.0237,7.8669,7.9617,8.0008,7.8239,8.0601,8.2385,8.1848,8.3911,8.5357,8.5142,8.5296,8.5819,8.6743,8.539,8.4878,8.5561,8.5202,8.5081,8.5333,8.4622,8.4378,8.4599,8.2545,8.0459,7.8405,0.0,0.0,0.0,0.0,0.0,0.0,0.0,0.0,0.0,0.0,0.0,0.0,0.0,0.0,0.0,0.0,0.0,0.0,0.0,0.0,0.0,0.0,0.0,7.1123,7.4225,7.6456,7.5981,7.8652,7.9633,7.7509,7.9213,8.0532,8.056,8.2274,8.3314,8.3314,8.4438,8.5112,8.5112,8.5112,8.5112,8.5112,8.5112,8.5381,8.5798,8.6241,8.6769,8.7206,8.7669,8.7929,8.7929,8.7929,8.7929,8.7871,8.7261,8.7377,8.7813,8.6536,8.5732,8.5277,8.4849,8.4677,8.4705,8.5106,8.4959,8.4525,8.4946,8.4271,8.3284,8.3255,8.2791,8.2349,8.2722,8.3321,8.3965,8.4579,8.5819,8.686,8.6431,8.6496,8.6479,8.5851,8.4714,8.3995,8.4654,8.4032,8.3221,8.2527,8.2672,8.2511,8.1205,8.2406,0.0,8.3132,8.4865,8.585,8.5203,8.5727,8.6127,8.6158,8.4953,8.5136,8.7132,8.4724,8.422,8.6242,8.3746,8.2608,8.3303,8.1281,8.0554,8.1218,0.0,0.0,0.0,0.0,0.0,0.0,0.0,0.0,0.0,0.0,0.0,0.0,0.0,0.0,0.0,0.0,0.0,0.0,0.0,0.0,0.0,6.9373,7.2233,7.3595,7.6451,7.8419,7.8703,7.9878,8.0694,8.0867,8.143,8.1993,8.2471,8.3398,8.3932,8.3932,8.4691,8.5112,8.5112,8.5112,8.5112,8.5112,8.5112,8.5202,8.5291,8.6064,8.6593,8.6681,8.7583,8.7929,8.7929,8.7929,8.7929,8.7929,8.7726,8.7784,8.7842,8.7029,8.6485,8.6166,8.5991,8.5728,8.5408,8.5157,8.5306,8.5708,8.5389,8.5267,8.5171,8.4707,8.4445,8.4184,8.3855,8.3855,8.4112,8.4644,8.4927,8.5323,8.5987,8.6082,8.606,8.6329,8.5731,8.5342,8.6,8.515,8.4196,8.3838,8.3671,8.3434,8.2905,8.3232,8.3602,8.3778,8.5173,8.6035,8.585,8.6004,8.6342,8.6835,8.5916,8.5406,8.5751,8.5334,8.5244,8.561,8.4852,8.4789,8.5484,8.343,8.2229,0.0,0.0,0.0,0.0,0.0,0.0,0.0,0.0,0.0,0.0,0.0,0.0,0.0,0.0,0.0,0.0,0.0,0.0,0.0,0.0,0.0,0.0,7.14,7.3986,7.613,7.8239,7.9664,8.0173,8.1017,8.1693,8.2291,8.2609,8.2864,8.3258,8.3848,8.4185,8.4185,8.4775,8.5112,8.5112,8.5112,8.5112,8.5112,8.5112,8.5202,8.5353,8.6152,8.6593,8.6856,8.7583,8.7929,8.7929,8.7929,8.7929,8.7843,8.7669,8.7756,8.79,0.0,0.0,0.0,0.0,8.5709,8.5475,8.5578,8.5645,8.5736,8.5938,8.5877,8.5643,8.5203,8.5084,8.4939,8.4271,8.4097,8.4296,8.5374,8.561,8.59,8.7068,8.7116,8.6988,8.7077,8.6359,8.5881,8.6539,8.5851,0.0,8.5293,8.4712,8.417,8.4099,8.4325,8.4607,8.4916,8.6127,8.6866,8.6589,8.6804,8.6927,8.6743,8.5843,0.0,0.0,0.0,8.4446,8.4441,8.4441,0.0,0.0,0.0,8.4789,8.5263,8.4062,0.0,0.0,8.3163,8.2777,0.0,0.0,0.0,0.0,0.0,0.0,0.0,0.0,0.0,0.0,0.0,0.0,0.0,0.0,0.0,0.0,7.3587,7.5934,7.8189,7.9339,8.0202,8.0759,8.1583,8.2181,8.2409,8.2906,8.3226,8.3282,8.396,8.4297,8.4297,8.4803,0.0,0.0,0.0,8.5202,8.5202,8.5202,8.5442,8.5887,8.6329,8.6769,8.7206,8.7669,8.7929,8.7929,8.7929,8.7843,8.7756,8.7467,8.7554,8.7929,8.7756,8.7263,8.6443,8.5555,8.5225,8.5286,8.6178,0.0,0.0,8.6399,8.6138,8.5305,8.512,8.5058,8.4942,8.43,8.4184,8.4645,8.6222,8.6931,8.7464,8.8469,8.8584,8.8313,8.7655,8.6718,8.606,8.6569,8.621,8.6,8.6569,8.5641,8.4856,8.5017,8.5441,8.5834,8.606,8.7235,8.7728,8.7143,8.7604,0.0,8.6219,8.5215,8.4829,8.5284,8.3981,8.3413,8.3742,8.3904,8.482,8.6685,8.6716,8.7664,8.9592,8.9529,8.9624,8.9719,8.4901,8.4532,0.0,0.0,0.0,0.0,0.0,0.0,0.0,0.0,0.0,0.0,0.0,0.0,0.0,0.0,0.0,7.1791,7.3708,7.5597,7.7709,7.8974,7.9886,8.0337,8.0042,8.0472,8.1793,8.2464,8.2953,8.3428,8.44,8.4944,8.4944,8.5056,8.5112,8.5112,8.5442,8.5709,8.5709,8.6064,8.6241,8.6329,8.6856,0.0,8.7206,8.7669,8.7929,8.7929,8.7929,8.7669,8.738,8.764,8.7843,8.7843,8.706,8.6908,8.7099,8.6204,8.5843,8.5843,8.6024,8.587,8.5631,8.5384,8.5418,8.5451,8.4729,8.4898,0.0,8.4333,8.4852,8.5662,8.5871,8.5979,8.6173,8.6732,8.7135,8.7193,8.6568,8.6898,8.7197,8.6748,8.6569,8.6539,8.6659,8.603,8.5618,8.5964,8.5501,8.5424,8.6301,8.6459,8.6466,8.6342,8.6435,8.6404,8.6127,8.5461,8.5256,8.597,8.6327,8.6774,8.7412,8.798,8.8454,8.8865,8.8897,8.9339,9.0319,8.975,9.0351,9.1962,9.0104,8.9648,0.0,0.0,0.0,0.0,0.0,0.0,0.0,0.0,0.0,0.0,0.0,6.5041,6.6551,0.0,7.1469,7.3369,7.4996,7.6487,7.7795,7.8925,7.973,7.9829,8.0289,8.0858,8.1429,8.2198,8.2804,8.3417,8.4199,8.4775,8.5084,8.5112,8.5112,8.5112,8.5381,8.5442,8.5442,8.5887,8.6152,8.6152,8.6856,8.7206,8.7206,8.7669,8.7929,8.7929,8.764,8.738,8.7206,8.7467,8.7554,8.7467,8.6769,8.6705,8.6814,8.5922,8.5562,8.5562,8.5832,8.5498,8.5023,8.524,8.5214,8.5073,8.4333,8.4646,8.5046,8.4029,8.4627,8.5633,8.6105,8.6188,8.6359,8.721,8.7416,8.7417,8.709,8.7354,8.7616,8.7257,8.6928,8.6689,8.6689,8.6689,8.6847,8.7241,8.6484,8.6427,8.7845,8.7489,8.7143,8.7143,8.7451,8.7389,8.6712,8.5873,8.5771,8.6655,8.6941,8.7802,8.9434,8.9497,8.9655,9.0003,9.0351,9.054,9.0509,9.1204,9.2089,9.31,9.3004,9.2697,0.0,0.0,0.0,0.0,0.0,0.0,0.0,6.0656,6.2032,6.4505,6.6253,6.8025,7.0152,7.1915,7.3585,7.482,7.6376,7.7639,7.7965,7.9021,7.9639,7.956,8.0709,8.1417,8.1125,8.1931,8.2715,8.3417,8.4031,8.4578,8.5084,8.5112,8.5112,8.5112,8.5202,8.5291,8.5381,8.5798,8.6064,8.6064,8.6856,8.7206,8.7206,8.7496,8.7669,8.7756,8.7206,8.6944,8.7031,8.6944,8.6944,8.7031,8.6505,8.6329,8.6269,8.5494,8.5225,8.5202,8.562,8.5051,8.4282,8.5043,8.5043,8.4669,8.3991,8.4476,8.5075,8.3952,8.4431,8.5458,8.6172,8.6426,8.6627,8.7489,8.7523,8.735,8.735,8.729,8.7256,8.7366,8.7087,8.6788,8.6868,8.7347,8.7726,8.7975,8.7512,8.7567,8.8972,8.8501,8.8035,8.8189,8.8436,8.8159,8.7081,8.6554,8.6701,8.7518,8.7449,8.8441,9.0712,9.031,9.0351,9.0919,9.1615,9.1678,9.1141,9.2784,9.3732,9.4016,9.449,9.4459,5.3542,5.4271,5.5814,5.8601,5.9276,6.0685,0.0,6.6197,6.6317,6.8979,7.0312,7.1423,7.2695,7.4235,7.5369,7.5591,7.7047,7.8089,7.8045,7.9021,7.9612,7.956,7.9704,8.0129,8.1042,8.1663,8.2359,8.3417,8.4423,8.5028,8.5112,8.5112,8.5112,8.5112,8.5531,8.5887,8.6329,8.6769,8.7031,8.7031,8.7119,8.7206,8.7206,8.6856,8.6856,8.7206,8.6329,8.6152,8.6505,8.6152,8.6241,8.6505,8.6064,8.5887,8.5855,8.5883,8.559,8.5202,8.5648,8.4973,8.3954,8.4041,8.4388,8.4504,8.4045,8.4563,8.5161,8.447,8.5096,8.581,8.54,8.5284,8.5284,8.5455,8.5292,8.5153,8.5153,8.5391,8.5737,8.6199,8.6636,8.7074,8.7506,8.7646,8.7496,8.6947,8.7447,8.7854,8.8083,8.7645,8.7543,8.8128,8.7143,8.6404,8.625,8.7575,8.8415,8.8613,8.9213,9.0245,9.1795,9.209,9.231,9.2373,9.3037,9.3353,9.3258,9.3479,9.4238,9.5439,9.4933,9.4964,5.6559,5.7068,5.8097,6.0781,6.1629,6.282,6.6651,6.7144,6.7747,7.096,7.2485,7.3647,7.495,7.6268,7.7237,7.7237,7.8005,7.8671,7.8577,7.9262,7.9504,7.9009,7.9289,7.9767,8.055,8.1289,8.2237,8.3389,8.4171,8.4747,8.5084,8.5112,8.5202,8.5531,8.5709,8.5887,8.6064,8.6593,8.6681,8.6417,8.6681,8.6769,8.6769,8.6593,8.6417,8.6329,8.5975,8.5887,8.6064,8.5887,8.6064,8.6417,8.5975,8.5571,8.5316,8.5432,8.5337,8.5056,8.4869,8.4507,8.3943,8.321,8.3384,8.3641,8.2733,8.3192,8.3877,8.3588,8.4472,8.5616,8.5609,8.5636,8.5636,8.5636,8.5476,8.5311,8.5311,8.5639,8.6129,8.6534,8.6526,8.6508,8.6519,8.7197,8.7347,8.627,8.6561,8.7253,8.8008,8.7492,8.7248,8.7782,8.7516,8.7327,8.7327,8.8339,8.9306,8.9934,9.0607,9.1637,9.3166,9.297,9.2709,9.2626,9.3258,9.3226,9.2436,9.4016,9.5122,9.5691,9.5849,9.6292,5.8167,5.887,5.9761,6.2333,6.359,6.4897,6.7323,6.8352,6.9556,7.2686,7.4094,7.5119,7.6555,7.7394,7.7839,7.7839,7.8414,7.887,7.8684,7.9274,7.947,7.8963,7.9339,7.9906,8.0591,8.124,8.2297,8.3819,8.426,8.4724,8.5263,8.5291,8.5531,8.5975,8.5887,8.5887,8.5975,8.6241,8.6152,8.5798,8.6152,8.6329,8.6329,8.6329,8.6064,8.562,8.562,8.562,8.562,8.562,8.5713,8.5837,8.5653,8.5253,8.4744,8.478,8.4747,8.4578,8.4475,8.425,8.3996,8.3236,8.3295,8.3467,8.2473,8.2764,8.3364,8.2993,8.3932,8.5017,8.5127,8.5383,8.5554,8.5296,8.528,8.5262,8.5262,8.5539,8.5868,8.6328,8.6054,8.5831,8.6062,8.6589,8.6709,8.609,8.6056,8.6591,8.7893,8.756,8.7202,8.7387,8.7965,8.8315,8.8315,8.8852,8.9727,9.082,9.1283,9.2224,9.3664,9.3347,9.3071,9.3047,9.3678,9.3531,9.2436,9.4838,9.5976,9.6007,9.6924,9.7524,5.7292,5.8595,6.0269,6.2851,6.4954,6.6986,6.9064,7.115,7.3049,7.4695,7.5413,7.6062,7.7222,7.7002,7.6662,7.6662,7.7917,7.8723,7.819,7.8902,7.9506,7.9479,7.9762,8.0488,8.1704,8.1903,8.2759,8.491,8.5084,8.5263,8.5798,8.5798,8.5975,8.6417,8.6064,8.6064,8.6417,8.6064,8.5798,8.5798,8.5798,8.5798,8.5798,8.5798,8.5531,8.5112,8.5112,8.5112,8.5112,8.5112,8.4747,8.4358,8.4888,8.4747,8.4185,8.4213,8.3848,8.3514,8.4517,8.4407,8.3982,8.4577,8.47,8.4446,8.4197,8.4217,8.4215,8.325,8.3706,8.4184,8.316,8.3615,8.424,8.3635,8.3795,8.4126,8.4126,8.4209,8.4291,8.4813,8.4895,8.5287,8.6771,8.6012,8.5467,8.6569,8.609,8.6098,8.7181,8.7681,8.7641,8.6973,8.7905,8.8609,8.8609,8.8946,8.9759,9.1114,9.0975,9.1421,9.2832,9.3172,9.3633,9.4013,9.4704,9.4933,9.4617,9.6039,9.6766,9.6797,9.8125,9.8409,5.7864,5.9863,6.1944,6.4879,6.6294,6.7652,7.008,7.0964,7.1872,7.4154,7.4404,7.4712,7.6228,7.6321,7.6249,7.6638,7.7627,7.8243,7.8083,7.8848,7.9343,7.8936,7.9606,8.0411,8.1179,8.2214,8.3438,8.5028,8.5353,8.562,8.5798,8.6064,8.6329,8.6505,8.6329,8.6152,8.6064,8.5887,8.562,8.5381,8.5381,8.5381,8.5381,8.5381,8.5291,8.5112,8.5112,8.5112,8.5084,8.4663,8.4635,8.4747,8.4129,8.3764,8.3595,8.3595,8.3173,8.2724,8.3546,8.3971,8.4028,8.3408,8.3156,8.3017,8.2473,8.2394,8.2398,8.2398,8.2966,8.3478,8.3448,8.3704,8.3988,8.404,8.3834,8.3683,8.4014,8.4097,8.4262,8.4702,8.4784,8.4859,8.5192,8.5208,8.5169,8.5324,8.5192,8.536,8.6098,8.6579,8.6541,8.5876,8.72,8.8407,8.9174,8.939,9.0311,9.2406,9.1992,9.2257,9.3467,9.3219,9.3203,9.3664,9.3883,9.421,9.4537,9.5915,9.7232,9.8427,9.9371,10.0129,5.9114,6.1269,6.3167,6.5844,6.7222,6.8308,7.0011,7.0781,7.1786,7.3452,7.3664,7.3716,7.4627,7.4393,7.4464,7.5352,7.6441,7.7334,7.7729,7.8764,7.9326,7.8869,7.9838,8.0638,8.1079,8.2455,8.3707,8.4691,8.5192,8.5543,8.577,8.6241,8.6505,8.6505,8.6329,8.6152,8.5798,8.562,8.5353,8.5112,8.5112,8.5112,8.5112,8.5112,8.5112,8.5112,8.5112,8.5,8.4747,8.4354,8.4157,8.4045,8.3511,8.3145,8.2921,8.2921,8.2808,8.2724,8.3145,8.3539,8.3707,8.264,8.2302,8.219,8.1572,8.1489,8.166,8.1831,8.2454,8.2965,8.2909,8.3279,8.3733,8.3758,8.375,8.3766,8.4014,8.4097,8.418,8.4509,8.4363,8.4293,8.4494,8.4643,8.4763,8.479,8.4397,8.4414,8.5551,8.6146,8.6272,8.5851,8.6963,8.8231,8.9377,8.9538,9.0584,9.2845,9.2512,9.2608,9.3602,9.3201,9.311,9.3576,9.3576,9.3996,9.4869,9.621,9.7618,9.8985,10.0207,10.111,6.0807,6.2692,6.4043,6.6095,6.7754,6.8885,6.8934,7.0811,7.2624,7.257,7.286,7.2946,7.2332,7.1385,7.1321,7.2986,7.4676,7.6101,7.7191,7.8601,7.946,7.9394,8.0307,8.1134,8.1574,8.263,8.3511,8.4157,8.4599,8.5146,8.577,8.6241,8.6505,8.6417,8.6064,8.5798,8.5798,8.5291,8.5112,8.5112,8.5112,8.5112,8.5112,8.5112,8.5112,8.5112,8.5084,8.4747,8.4185,8.4129,8.3398,8.2415,8.2977,8.2836,8.2302,8.2274,8.2668,8.3173,8.3173,8.3202,8.3117,8.2527,8.2302,8.2162,8.1544,8.1717,8.2001,8.1405,8.2112,8.2651,8.1601,8.2511,8.3449,8.2934,8.3433,8.4097,8.4097,8.4097,8.4097,8.4097,8.3633,8.3564,8.4527,8.4365,8.4219,8.4843,8.3747,8.3547,8.5462,8.621,8.6599,8.6629,8.7084,8.7893,8.9189,8.9499,9.0458,9.2384,9.2354,9.242,9.3114,9.3176,9.3475,9.3932,9.3932,9.443,9.5539,9.6848,9.7877,9.8769,10.0734,10.1639,6.1122,6.3469,6.5581,6.7277,6.8265,6.8884,6.9276,6.9648,6.9739,6.9332,6.9007,6.8494,6.7637,6.812,6.9245,7.0847,7.3069,7.5142,7.7012,7.8287,7.9254,7.9913,8.094,8.1771,8.233,8.249,8.3005,8.4101,8.4599,8.5146,8.577,8.6241,8.6329,8.5975,8.5887,8.562,8.5263,8.5202,8.5112,8.5112,8.5112,8.5112,8.5112,8.5112,8.5112,8.5084,8.4635,8.4326,8.4129,8.3173,8.2892,8.2949,8.219,8.205,8.2274,8.1797,8.174,8.1881,8.1881,8.2162,8.2527,8.2359,8.1993,8.1516,8.0897,8.1123,8.1377,8.0392,8.0898,8.1659,8.0869,8.1605,8.254,8.2736,8.3211,8.3683,8.4014,8.4097,8.4097,8.4097,8.3981,8.3768,8.3387,8.3189,8.3105,8.3205,8.3537,8.4254,8.5551,8.5402,8.5402,8.5881,8.6918,8.8086,8.9219,8.9368,9.0131,9.1724,9.1791,9.1998,9.2468,9.293,9.3533,9.4136,9.4167,9.4833,9.6087,9.6921,9.8136,9.9645,10.0701,10.1605,6.2125,6.4471,6.6224,6.7117,6.7723,6.8076,6.765,6.775,6.7523,6.617,6.6044,6.5692,6.4358,6.5357,6.7024,6.8826,7.1614,7.4338,7.691,7.8175,7.9342,8.0756,8.1415,8.2082,8.2846,8.3026,8.3426,8.4157,8.4373,8.4775,8.5503,8.5975,8.5975,8.5531,8.5442,8.5381,8.5112,8.5112,8.5112,8.5112,8.5112,8.5112,8.5112,8.5112,8.5112,8.5084,8.4466,8.4045,8.3707,8.2724,8.2359,8.2387,8.1684,8.16,8.1853,8.1516,8.1403,8.1403,8.1403,8.1628,8.1853,8.16,8.1459,8.1291,8.0673,8.0897,8.1263,8.056,8.0869,8.1319,8.0982,8.1491,8.2171,8.2707,8.3127,8.3516,8.4014,8.4097,8.4184,8.4474,8.43,8.4034,8.3844,8.3481,8.3314,8.3466,8.3687,8.4259,8.5714,8.5742,8.594,8.6898,8.7437,8.8175,8.9348,8.938,8.9822,9.1,9.0917,9.1204,9.1906,9.2323,9.3078,9.4253,9.4253,9.493,9.6285,9.727,9.8453,9.9754,10.0658,10.1563,6.3606,6.5224,6.6297,6.6531,6.6898,6.6703,6.5351,6.5539,6.5414,6.3307,6.3448,6.3439,6.1853,6.2937,6.4705,6.7066,7.0184,7.3496,7.673,7.8219,7.9655,8.1608,8.1986,8.2454,8.3423,8.3932,8.4213,8.4297,8.4116,8.4345,8.5056,8.5442,8.5531,8.5112,8.5112,8.5112,8.5112,8.5112,8.5112,8.5112,8.5112,8.5112,8.5112,8.5112,8.5056,8.4944,8.4326,8.3707,8.3089,8.2443,8.1881,8.1403,8.1317,8.1317,8.1317,8.1317,8.1317,8.1317,8.1403,8.1403,8.1291,8.0785,8.0954,8.1291,8.0673,8.0897,8.1347,8.1094,8.1207,8.1347,8.1207,8.1633,8.2171,8.2623,8.3044,8.3433,8.3932,8.4155,8.4387,8.4968,8.4678,8.4445,8.4765,8.4368,8.4176,8.4614,8.4061,8.4227,8.6046,8.638,8.6998,8.8424,8.8125,8.8334,8.9561,8.9528,8.9681,9.0244,9.0164,9.0502,9.1479,9.151,9.2361,9.4062,9.4185,9.4861,9.6203,9.7464,9.8479,9.9332,10.0502,10.129,6.4775,6.5528,6.6062,6.7309,6.6792,6.5881,6.5652,6.4342,6.2789,6.0978,6.0316,5.9821,5.8649,6.0024,6.2382,6.5402,6.854,7.1993,7.5914,7.8156,8.0011,8.1697,8.2642,8.359,8.4658,8.4438,8.441,8.4916,8.4471,8.4442,8.5084,8.5202,8.5202,8.5112,8.5112,8.5112,8.5112,8.5112,8.5112,8.5112,8.5112,8.5112,8.5112,8.5112,8.4831,8.4326,8.3707,8.3061,8.2443,8.1797,8.1488,8.1403,8.0973,8.0773,8.0773,8.0773,8.0773,8.0859,8.1317,8.1403,8.1375,8.1263,8.1291,8.1291,8.0673,8.0897,8.1066,7.9521,8.0195,8.115,8.0139,8.0984,8.2086,8.2171,8.2538,8.3044,8.3433,8.4283,8.4939,8.5055,8.5432,8.5229,8.3778,8.4296,8.4703,8.432,8.4416,8.527,8.7171,8.621,8.6022,8.7736,8.8274,8.8843,8.9591,9.0122,9.0347,9.0253,9.0264,9.0507,9.103,9.1111,9.1749,9.3169,9.3717,9.4552,9.576,9.6473,9.7681,9.9301,9.9548,10.0256,6.4897,6.5514,6.6164,6.6827,6.6214,6.4876,6.3293,6.2143,6.0638,5.7835,5.7629,5.7631,5.6561,5.824,6.0601,6.2923,6.639,7.0334,7.4553,7.709,7.9483,8.2028,8.3037,8.3813,8.4697,8.4652,8.4624,8.4392,8.46,8.4781,8.4753,8.4482,8.4482,8.4753,8.4753,8.4843,8.5112,8.5112,8.5112,8.5112,8.5112,8.4933,8.4753,8.5023,8.4686,8.3802,8.3451,8.2921,8.2274,8.1656,8.1403,8.1317,8.0859,8.0686,8.0686,8.0686,8.0686,8.0686,8.0973,8.1255,8.1393,8.0884,8.0973,8.1347,8.1038,8.0926,8.0813,8.0223,8.0476,8.0869,8.0588,8.1124,8.1831,8.2001,8.2454,8.2876,8.3266,8.3859,8.4428,8.5026,8.5055,8.4852,8.4271,8.4678,8.4968,8.4649,8.5076,8.588,8.7037,8.6403,8.6713,8.8673,8.912,8.9471,9.01,9.016,9.0092,9.0008,8.9648,8.9931,9.1031,9.0809,9.1496,9.3439,9.3773,9.4342,9.5292,9.6328,9.7235,9.8131,9.8804,9.9563,6.4571,6.5337,6.6199,6.6426,6.5549,6.3907,6.1208,6.0048,5.8691,5.5264,5.5366,5.5856,5.5005,5.6749,5.8812,6.0601,6.4107,6.8319,7.2995,7.5981,7.8971,8.2374,8.3321,8.3862,8.4336,8.4663,8.4482,8.3784,8.4382,8.4731,8.46,8.4124,8.4041,8.4405,8.4266,8.4392,8.4753,8.4753,8.4753,8.4753,8.4753,8.4489,8.4079,8.4467,8.3958,8.2965,8.2934,8.2521,8.1904,8.1514,8.1403,8.1317,8.0773,8.0513,8.0513,8.0426,8.051,8.0621,8.0708,8.1125,8.1454,8.0632,8.0819,8.1314,8.126,8.0895,8.0501,8.1009,8.0868,8.0672,8.1094,8.1403,8.1686,8.2028,8.2455,8.2991,8.3383,8.3666,8.4035,8.4913,8.4881,8.4794,8.5055,8.5432,8.5607,8.5316,8.5723,8.6127,8.6518,8.6485,8.7171,8.9073,8.9478,8.9838,9.0496,9.016,8.983,8.9681,8.9052,8.9305,9.0683,9.0202,9.0937,9.3139,9.3471,9.4039,9.482,9.6087,9.6754,9.6991,9.8145,9.8957,6.4464,6.5019,6.5738,6.6745,6.5267,6.308,6.1395,5.9185,5.6714,5.4411,5.3905,5.3862,5.3765,5.4737,5.6427,5.896,6.1732,6.5626,7.1597,7.559,7.9071,8.2237,8.3612,8.4308,8.4364,8.4029,8.3784,8.3693,8.3354,8.3729,8.5239,8.477,8.4466,8.4466,8.406,8.3784,8.3784,8.3784,8.3784,8.3784,8.3784,8.348,8.2927,8.3017,8.238,8.1157,8.1542,8.1442,8.0856,8.126,8.1403,8.1317,8.0426,8.0078,7.9991,7.9554,7.9734,8.0289,8.0732,8.1323,8.1759,8.1704,8.1289,8.0885,8.0767,8.0399,8.0173,8.0445,8.0669,8.0664,8.0616,8.1403,8.2218,8.2305,8.2678,8.3108,8.3591,8.4475,8.5073,8.5087,8.5955,8.6361,8.5287,8.6506,8.7261,8.6129,8.5984,8.6042,8.6042,8.5909,8.6154,8.6886,8.825,8.9507,9.0496,9.0579,9.0279,8.9711,8.9052,8.8723,8.8954,8.8894,8.9493,9.0871,9.2069,9.3282,9.4367,9.5091,9.5927,9.6931,9.7659,9.8327,6.3355,6.4487,6.5449,6.5623,6.4515,6.2586,5.9931,5.7963,5.5926,5.3157,5.271,5.2792,5.2792,5.3641,5.4786,5.6577,5.889,6.2027,6.6161,7.115,7.5327,7.8141,8.1317,8.3287,8.3491,8.3601,8.3905,8.4251,8.3485,8.3626,8.5015,8.3813,8.3288,8.3564,8.3345,8.3418,8.3693,8.3333,8.314,8.3112,8.2753,8.236,8.1814,8.2111,8.1642,8.046,8.0991,8.0835,8.0253,8.0513,8.0513,8.0513,7.9817,7.9554,7.9554,7.9378,7.9673,8.0194,8.0372,8.112,8.1798,8.1171,8.1026,8.1179,8.1289,8.12,8.1097,8.1557,8.1703,8.1706,8.2134,8.2527,8.2808,8.2415,8.2785,8.3215,8.325,8.3621,8.4077,8.461,8.5069,8.5443,8.558,8.6594,8.7174,8.6681,8.6942,8.7174,8.7174,8.7113,8.7195,8.7827,8.7976,8.8499,8.9567,8.9627,8.9769,9.0249,8.9651,8.9441,8.986,8.9112,8.9292,9.0608,9.1536,9.2429,9.3257,9.4337,9.5084,9.5497,9.6159,9.6784,6.1974,6.3525,6.4761,6.476,6.3801,6.2018,5.8729,5.6921,5.5094,5.1949,5.1816,5.2187,5.1874,5.2598,5.3495,5.4466,5.6472,5.9155,6.2618,6.7462,7.1673,7.4367,7.7667,8.0173,8.1126,8.2218,8.3157,8.3886,8.3142,8.3156,8.4309,8.2979,8.2459,8.2901,8.2829,8.284,8.3235,8.2694,8.2392,8.2392,8.1787,8.1195,8.0644,8.103,8.0701,7.9742,8.0186,8.023,7.9817,7.9904,7.9991,7.9904,7.9466,7.929,7.9318,7.9333,7.977,8.0316,8.0507,8.1245,8.1946,8.1171,8.1215,8.1578,8.1872,8.1636,8.135,8.206,8.2307,8.2518,8.3447,8.3479,8.3202,8.2921,8.323,8.3546,8.3331,8.3446,8.379,8.4361,8.4646,8.5018,8.5906,8.6655,8.7032,8.7,8.7348,8.7581,8.7377,8.7377,8.7376,8.7543,8.7208,8.7539,8.8949,8.8766,8.8991,9.0061,8.9397,8.927,9.004,8.8993,8.9202,9.0908,9.1386,9.2135,9.3182,9.4349,9.4917,9.4917,9.5755,9.632,6.0234,6.2047,6.3483,6.4496,6.329,6.1077,5.8052,5.6007,5.3991,5.0916,5.1389,5.197,5.0912,5.1586,5.2475,5.3004,5.4717,5.7616,6.2412,6.5749,6.8852,7.2096,7.2918,7.4392,7.7091,7.9375,8.1191,8.2253,8.1742,8.1876,8.306,8.2518,8.2463,8.3033,8.249,8.2192,8.2192,8.1595,8.1297,8.1297,8.07,8.0103,7.9506,7.9506,7.918,7.861,7.9141,7.9318,7.929,7.9817,7.9991,7.9904,7.9466,7.929,7.9284,7.944,7.9886,8.0482,8.1079,8.1676,8.2192,8.2165,8.2192,8.2192,8.2165,8.1351,8.0583,8.1574,8.217,8.2804,8.4085,8.3857,8.3426,8.4045,8.4185,8.4105,8.3895,8.4438,8.4781,8.459,8.5134,8.5765,8.6198,8.6803,8.7149,8.7001,8.7,8.6768,8.6129,8.6042,8.581,8.5171,8.5665,8.6875,8.9095,8.8118,8.7895,8.8961,8.7773,8.7571,8.8663,8.8065,8.8933,9.1566,9.1626,9.2583,9.4588,9.5247,9.5576,9.5606,9.6892,9.7461,5.6528,5.8114,5.9168,5.8934,5.8335,5.7154,5.449,5.3414,5.231,5.0186,5.0625,5.1106,5.0335,5.1198,5.2308,5.2982,5.4102,5.5841,5.8558,6.3634,6.7705,6.9205,7.4286,7.8045,7.8883,8.0001,8.1002,8.1779,8.1298,8.1406,8.2442,8.2023,8.1901,8.2463,8.2301,8.2192,8.2192,8.1188,8.07,8.07,7.9668,7.9071,7.8882,7.8882,7.8773,7.861,7.8788,7.8788,7.8876,7.8965,7.9053,7.9053,7.8876,7.9121,7.9413,7.9514,8.013,8.1052,8.1242,8.1704,8.2192,8.2192,8.2192,8.2192,8.2192,8.2198,8.2265,8.2931,8.3752,8.4218,8.3439,8.451,8.5556,8.4613,8.4871,8.5393,8.5376,8.5151,8.5244,8.5887,8.5833,8.601,8.6879,8.6853,8.6799,8.712,8.7178,8.7207,8.7262,8.7319,8.7261,8.7058,8.6826,8.6907,8.7468,8.7582,8.8043,8.9112,8.8344,8.8043,8.8416,8.8238,8.8908,9.052,9.1831,9.3168,9.4618,9.5277,9.5606,9.5606,9.5995,9.6653,5.3183,5.4946,5.5842,5.5856,5.5598,5.4714,5.2674,5.1866,5.1056,4.9504,5.0007,5.0412,4.9736,5.0502,5.1441,5.2139,5.3156,5.4662,5.6976,6.1608,6.5485,6.738,7.3095,7.6953,7.7043,7.8572,7.983,8.0576,8.0501,8.0827,8.1674,8.1326,8.1326,8.1633,8.2006,8.2192,8.2192,8.0998,8.0428,8.0401,7.918,7.861,7.861,7.861,7.861,7.861,7.861,7.861,0.0,7.8854,7.8936,7.8963,7.9028,7.9326,7.9858,7.9894,8.0463,8.1324,8.1568,8.1894,8.2192,8.2192,8.2192,8.2219,8.2463,8.2726,8.2986,8.3574,8.4364,8.4806,8.3913,8.5092,8.6128,8.5073,8.5458,8.6103,8.6103,8.5886,8.6018,8.6655,8.6322,8.6247,8.7347,8.681,8.6503,8.7172,8.7087,8.7119,8.7583,8.764,8.764,8.761,8.7435,8.7173,8.6872,8.6726,8.7417,8.8955,8.7955,8.7745,8.8649,8.8206,8.8821,9.0786,9.1763,9.3003,9.4424,9.5255,9.5878,9.6294,9.6294,9.6743,0.0,5.2051,5.3088,5.4461,5.4062,5.3118,5.1982,5.0995,0.0,4.8825,4.9366,4.9936,4.919,4.9625,5.0294,5.0698,5.2042,5.4105,5.7193,5.9964,6.3103,6.694,7.0154,7.2276,7.28,7.5713,7.7902,7.8901,7.9502,8.0005,8.0573,8.0573,8.0667,8.0667,8.1633,8.2072,8.2045,8.0907,8.031,8.0256,7.9036,7.844,7.8467,7.844,7.8529,7.8556,7.8583,7.861,7.8637,7.918,7.9424,7.9479,7.9585,7.9946,8.0392,8.0501,8.0955,8.1432,8.2002,8.2192,8.2192,8.2192,8.2192,8.2301,8.2843,8.3026,8.3004,8.3605,8.4196,8.4705,8.5136,8.5422,8.5477,8.5516,8.586,8.6203,8.6407,8.6748,8.6995,8.7051,8.6545,8.6355,8.7436,8.6648,8.6142,8.7127,8.6845,8.6622,8.7061,8.7177,8.712,8.6885,8.7493,8.7639,8.7087,8.6013,8.6269,8.8472,8.6978,8.697,8.9271,8.8098,8.8922,9.2069,9.1744,9.2393,9.425,9.5258,9.6299,9.7402,9.7372,9.7461,4.4515,0.0,4.7842,4.7806,4.8083,4.819,0.0,4.7647,4.784,4.7284,4.7959,4.8707,4.8756,4.9511,5.0508,5.1794,5.3216,5.4889,5.689,6.1467,6.6116,7.0213,7.2508,7.3875,7.3976,7.5838,7.7251,7.7891,7.8472,7.8953,7.9433,7.9909,8.0289,8.0667,8.0977,8.083,8.0402,7.9652,7.9064,7.8635,7.7431,7.7047,7.7402,7.7375,7.7552,7.7959,7.842,7.861,7.861,7.8746,7.88,7.8882,7.9389,7.9904,8.0482,8.0896,8.1503,8.2002,8.2138,8.2192,8.2192,8.2192,8.2192,8.2219,8.2355,8.2719,8.3166,8.3792,8.466,8.5216,8.4538,8.5613,8.6758,8.6289,8.6193,8.6546,8.7896,8.7549,8.7135,8.7613,8.7192,8.6658,8.6474,8.6192,8.5945,8.6142,8.6458,8.6611,8.6543,8.6918,8.6774,8.5851,8.6655,8.7262,8.7265,8.7727,8.8248,8.8799,8.8392,8.8567,8.9672,8.9352,8.9935,9.1631,9.3335,9.4663,9.5606,9.5372,9.57,9.6412,9.6268,9.6745,4.1897,4.3907,4.586,4.5577,4.6096,4.6611,4.6407,4.6446,4.6442,4.6357,4.6982,4.7632,4.7631,4.8827,5.0245,5.1481,5.3497,5.6137,5.9467,6.3424,6.7184,7.0416,7.2076,7.3214,7.392,7.5015,7.6162,7.7184,7.7428,7.7824,7.8371,7.8849,7.9324,7.9635,7.9635,7.9665,7.9815,7.9202,7.8616,7.8057,7.7151,7.6744,7.6655,7.6949,7.7074,7.7125,7.7744,7.7986,7.8013,7.8282,7.839,7.8381,7.9086,7.9806,8.055,8.0654,8.1337,8.2099,8.1727,8.1606,8.1886,8.2099,8.2192,8.2246,8.2518,8.3033,8.367,8.4185,8.496,8.552,8.5207,8.5862,8.6559,8.6231,8.6254,8.6671,8.7808,8.7821,8.756,8.7801,8.7416,8.6883,8.6517,8.6208,8.6102,8.6317,8.6345,8.6388,8.6446,8.6565,8.645,8.6311,8.686,8.732,8.7805,8.8792,8.9436,8.9322,8.9032,8.9148,8.9787,8.9816,9.0485,9.2004,9.3909,9.5177,9.5713,9.5389,9.5572,9.6078,9.6292,9.6919,4.1151,4.3331,4.552,4.4975,4.5578,4.6379,4.6703,4.6159,4.5611,4.5803,4.6312,4.6773,4.6812,4.8334,4.998,5.1172,5.4004,5.7759,6.2687,6.5144,6.7151,6.9161,7.0411,7.1683,7.3106,7.3838,7.4799,7.632,7.6427,7.6641,7.7105,7.7704,7.8084,7.8084,7.8084,7.853,7.9269,7.8831,7.8299,7.7741,7.7156,7.6625,7.6236,7.6741,7.6688,7.6325,7.6938,7.7204,7.7257,7.7737,7.795,7.8057,7.8764,7.9588,8.032,8.0145,8.0856,8.182,8.095,8.1044,8.1513,8.1913,8.2099,8.2301,8.2898,8.3522,8.4132,8.4647,8.5274,8.5725,8.6326,8.6118,8.5774,8.5871,8.6175,8.6532,8.7283,8.7608,8.7857,8.7914,8.738,8.6987,8.6995,8.663,8.6461,8.6939,8.6517,8.6277,8.653,8.611,8.6174,8.707,8.7216,8.7559,8.8325,8.9409,8.9974,8.9869,8.9525,8.9555,9.0106,9.0222,9.1093,9.2835,9.3909,9.4704,9.5161,9.5078,9.5262,9.5895,9.6366,9.6936,4.1782,4.3814,4.5008,4.255,4.3333,4.4759,4.4763,4.4864,4.505,4.5393,4.5898,4.6726,4.8331,4.9168,5.0557,5.3091,5.6494,5.9979,6.3482,6.5428,6.6899,6.8153,6.9624,7.0907,7.1639,7.2544,7.3551,7.4688,7.5137,7.5507,7.5583,7.6443,7.6943,7.6943,7.7415,7.7462,7.7058,7.6953,7.6612,7.6036,7.5485,7.5443,7.5698,7.5777,7.602,7.6325,7.6938,7.7204,7.7204,7.7311,7.7337,7.7444,7.8497,7.9042,7.9268,8.0268,8.0762,8.0883,8.0762,8.1044,8.1419,8.1513,8.1793,8.2301,8.2898,8.3522,8.4227,8.53,8.5653,8.5871,8.6468,8.6251,8.5871,8.6257,8.6067,8.6106,8.7675,8.7275,8.6887,8.7737,8.7439,8.7094,8.6987,8.7332,8.7473,8.7051,8.6911,8.6643,8.602,8.5855,8.5826,8.6057,8.6412,8.7184,8.8411,8.9123,8.9625,9.0173,9.0933,9.1383,9.147,9.1993,9.2661,9.3502,9.3706,9.4175,9.4698,9.3623,9.3744,9.4791,9.4786,9.5441,4.1316,4.2761,4.3751,4.2685,4.4619,4.6704,4.6346,4.6591,4.6857,4.6607,4.7206,4.8085,4.9235,5.0751,5.3218,5.7502,5.9655,6.1807,6.4957,6.5534,6.6352,6.83,6.919,7.0034,7.1176,7.1956,7.2813,7.3846,7.4188,7.4407,7.4686,7.5661,7.6133,7.5876,7.6321,7.6285,7.5771,7.5435,7.5429,7.5721,7.546,7.5263,7.5247,7.5247,7.5337,7.5518,7.5808,7.6098,7.6388,7.673,7.6862,7.6968,7.8101,7.8736,7.9149,8.028,8.041,7.9936,8.0505,8.0667,8.0667,8.095,8.154,8.2333,8.2603,8.3549,8.4661,8.553,8.5774,8.5828,8.6099,8.5991,8.5789,8.5656,8.5916,8.6203,8.6624,8.7031,8.7241,8.7039,8.7271,8.742,8.7107,8.7501,8.7922,8.7978,8.7978,8.7987,8.7918,8.7298,8.7128,8.7833,8.7763,8.8278,8.9646,9.0133,9.0663,9.1159,9.1646,9.1866,9.179,9.3038,9.3561,9.3154,9.3822,9.4141,9.4083,9.3532,9.3532,9.4112,9.4418,9.4952,4.1325,4.2234,4.3154,4.355,4.5769,4.7882,4.7938,4.8216,4.8449,4.836,4.913,4.995,5.0406,5.2657,5.5963,6.0545,6.1828,6.3185,6.5943,6.5823,6.628,6.8468,6.8829,6.9551,7.1126,7.1517,7.2126,7.3376,7.3273,7.3414,7.3888,7.4763,7.5071,7.472,7.5164,7.5258,7.4883,7.4319,7.446,7.5328,7.5446,7.5329,7.4912,7.5003,7.5094,7.5094,7.5094,7.5329,7.5748,7.6375,7.661,7.6715,7.7865,7.8603,7.9234,8.0062,7.9841,7.9267,8.0126,8.0194,8.0005,8.0384,8.1257,8.2117,8.2468,8.3534,8.4822,8.5611,8.5882,8.5991,8.5991,8.5882,8.5665,8.5204,8.5846,8.6408,8.6135,8.7093,8.7679,8.688,8.7234,8.7681,8.7344,8.7737,8.8298,8.8962,8.9046,8.9215,8.9664,8.8793,8.8597,8.9833,8.9411,8.9552,9.0816,9.1001,9.1313,9.1955,9.1905,9.1981,9.2276,9.3521,9.3846,9.2951,9.3735,9.3938,9.3444,9.3299,9.3386,9.3677,9.417,9.4733,4.2885,4.3697,4.4198,4.4624,4.4749,4.5307,4.7449,4.7947,4.8384,5.0131,5.1259,5.2031,5.2365,5.48,5.7467,5.9507,6.1794,6.3815,6.5491,6.6544,6.7362,6.8083,6.8612,6.9502,7.1165,7.081,7.1127,7.2765,7.241,7.2266,7.2791,7.3382,7.3664,7.357,7.4107,7.4293,7.4293,7.373,7.3704,7.431,7.48,7.4985,7.5051,7.5486,7.5669,7.5669,7.5669,7.5669,7.5748,7.6375,7.661,7.6715,7.7865,7.8649,7.9215,7.9241,7.9267,7.9172,7.9267,7.9528,7.9909,7.9909,8.0687,8.1749,8.2788,8.3597,8.4409,8.5514,8.6181,8.6588,8.6588,8.6181,8.5774,8.572,8.6251,8.6783,8.7215,8.7512,8.7758,8.8043,8.7741,8.7603,8.7947,8.8526,8.904,8.957,8.9664,8.9692,8.9721,8.9159,8.9243,9.0507,9.0058,9.017,9.1407,9.0451,9.0567,9.2145,9.1787,9.2174,9.3657,9.3254,9.3244,9.359,9.3096,9.2835,9.2777,9.2196,9.2516,9.3677,9.3706,9.4373,4.2993,4.3817,4.4315,4.4931,4.5244,4.6124,4.8775,5.0322,5.1492,5.2714,5.4066,5.5086,5.5428,5.723,5.9262,6.1184,6.2855,6.4531,6.6403,6.6737,6.7242,6.8468,6.8781,6.9262,7.02,7.0689,7.1176,7.171,7.1918,7.2171,7.2621,7.3237,7.3331,7.3024,7.3494,7.3588,7.3281,7.2749,7.2749,7.3281,7.3791,7.4007,7.4007,7.4441,7.4924,7.5288,7.5538,7.593,7.6349,7.729,7.7682,7.776,7.8544,7.8989,7.9172,7.9172,7.9381,7.9642,7.9302,7.9503,7.9984,7.9984,8.0763,8.1731,8.2508,8.3677,8.477,8.5207,8.5986,8.6479,8.5747,8.5937,8.6235,8.5855,8.6527,8.713,8.6935,8.7516,8.7808,8.7273,8.7259,8.7464,8.8003,8.8571,8.9291,9.0187,9.0648,9.1013,9.1407,9.0901,9.0873,9.1716,9.1603,9.1631,9.2109,9.1716,9.1852,9.291,9.2343,9.2232,9.2721,9.2958,9.3031,9.3215,9.2955,9.2821,9.2719,9.2486,9.2603,9.3096,9.3473,9.4141,4.2909,4.3563,4.4123,4.494,4.554,4.6874,4.999,5.1893,5.3491,5.5427,5.6525,5.7267,5.7761,5.8562,5.9883,6.2297,6.3572,6.4966,6.722,6.7073,6.729,6.8733,6.8757,6.8997,6.9863,7.0397,7.0908,7.139,7.1698,7.2076,7.2646,7.2872,7.2941,7.2715,7.2847,7.2847,7.274,7.2012,7.1937,7.2464,7.2564,7.2951,7.3468,7.4114,7.4622,7.501,7.5538,7.6061,7.6688,7.7656,7.8257,7.8623,7.9015,7.9172,7.9198,7.9381,7.9564,7.972,7.9511,7.9694,8.0034,8.0034,8.0823,8.1825,8.2318,8.341,8.4577,8.4871,8.5828,8.6527,8.572,8.6208,8.6859,8.6452,8.7099,8.7605,8.731,8.7938,8.8247,8.7258,8.7217,8.7465,8.7841,8.8548,8.9311,9.0333,9.1254,9.1997,9.2446,9.2109,9.2025,9.2446,9.2306,9.2278,9.2474,9.2306,9.2472,9.296,9.2786,9.2743,9.2667,9.2972,9.3199,9.3254,9.3196,9.2978,9.2719,9.2922,9.3009,9.3038,9.3677,9.4402,4.2933,4.3099,4.3656,4.4571,4.5427,4.7093,5.0954,5.2161,5.3776,5.8095,5.8526,5.831,5.8913,5.8507,5.9168,6.225,6.3659,6.5164,6.7677,6.7626,6.7675,6.8781,6.8444,6.8733,7.032,7.0007,7.0301,7.1906,7.1511,7.167,7.2646,7.2213,7.2163,7.2715,7.2188,7.2163,7.2715,7.1636,7.1359,7.1887,7.1359,7.194,7.3519,7.4547,7.501,7.501,7.5446,7.6061,7.6662,7.7237,7.8152,7.9172,7.9172,7.9172,7.9224,7.9799,7.9668,7.9276,7.9825,8.0034,8.0034,8.0034,8.0818,8.1858,8.2352,8.2918,8.3565,8.4675,8.5829,8.6835,8.6734,8.7131,8.7619,8.7592,8.8026,8.8433,8.8433,8.8894,8.9049,8.8446,8.796,8.748,8.7313,8.8305,8.93,8.9784,9.1397,9.2474,9.2474,9.2474,9.2474,9.2474,9.194,9.1828,9.2446,9.194,9.1828,9.2446,9.2988,9.3471,9.3923,9.3471,9.3447,9.3887,9.3859,9.344,9.2719,9.3357,9.3677,9.3677,9.4315,9.5302,4.1908,4.2942,4.4177,4.4634,4.6915,4.9844,5.2707,5.3945,5.5798,6.0182,6.011,5.9412,5.989,5.9616,6.0021,6.2303,6.3583,6.4903,6.6763,6.7145,6.746,6.7774,6.8349,6.8804,6.935,6.9932,7.0445,7.0811,7.1098,7.1479,7.2171,7.2401,7.2565,7.2715,7.2188,7.1987,7.2138,7.1058,7.0983,7.1887,7.1359,7.1553,7.2375,7.3435,7.4175,7.4547,7.5399,7.6383,7.729,7.8257,7.8623,7.8623,7.9015,7.9172,7.9198,7.9355,7.9825,8.0269,7.9642,8.0217,8.1132,8.0295,8.0531,8.1309,8.1826,8.2358,8.2964,8.3683,8.5334,8.6816,8.6754,8.7754,8.8704,8.827,8.8297,8.8542,8.8949,8.8542,8.7999,8.7844,8.6984,8.6403,8.6696,8.8016,8.9203,8.93,9.1106,9.2474,9.2474,9.2474,9.2474,9.2474,9.2334,9.2306,9.2474,9.2334,9.25,9.3057,9.3286,9.344,9.3471,9.2949,9.3019,9.3887,9.3052,9.27,9.2719,9.3357,9.3677,9.3677,9.4315,9.5302,4.2509,4.3581,4.4816,4.589,4.8163,5.1025,5.4586,5.6485,5.8457,6.1923,6.1373,6.0522,6.121,6.0774,6.0979,6.3228,6.4084,6.5283,6.715,6.7344,6.7464,6.7891,6.7964,6.8107,6.8533,6.9159,6.9695,7.0058,7.0613,7.1096,7.167,7.1757,7.1847,7.2131,7.1606,7.1499,7.1912,7.1033,7.1033,7.1912,7.156,7.1585,7.1937,7.2985,7.3613,7.3988,7.5274,7.6301,7.7211,7.8361,7.8623,7.8387,7.8936,7.9172,7.9198,7.9433,7.9956,8.0426,7.9747,8.0348,8.1263,8.0322,8.04,8.0949,8.1315,8.1774,8.2332,8.2846,8.4392,8.5896,8.6321,8.742,8.8349,8.8658,8.8786,8.8894,8.9247,8.8759,8.8316,8.8269,8.7354,8.6674,8.7161,8.8125,8.8897,8.9117,9.0883,9.2266,9.2518,9.2545,9.2587,9.2811,9.2643,9.2474,9.2474,9.2474,9.2697,9.2988,9.323,9.3384,9.3307,9.3392,9.3607,9.395,9.3741,9.3412,9.3198,9.402,9.4223,9.3776,9.4861,9.5912,4.3828,4.4503,4.5487,4.779,4.9355,5.1629,5.6615,5.9128,6.0999,6.2928,6.2244,6.1648,6.2567,6.1947,6.2041,6.4484,6.4951,6.582,6.8253,6.7769,6.757,6.8433,6.736,6.6982,6.7913,6.8034,6.8516,6.9572,7.0034,7.059,7.1096,7.07,7.0619,7.1067,7.0496,7.0702,7.1643,7.1259,7.1284,7.1836,7.1937,7.1987,7.2012,7.2985,7.3519,7.3639,7.5113,7.6119,7.6715,7.7839,7.8309,7.8387,7.8936,7.9198,7.9302,7.9825,8.006,8.0113,8.0113,8.0478,8.0844,8.0217,8.04,8.0871,8.0871,8.1263,8.1806,8.2404,8.3393,8.4564,8.5487,8.6214,8.7239,8.8775,8.9247,8.9247,8.9301,8.9274,8.9158,8.9112,8.8215,8.7681,8.8047,8.8243,8.8462,8.9218,9.0558,9.1732,9.2444,9.242,9.2699,9.3261,9.2811,9.2474,9.2474,9.2474,9.2474,9.2474,9.3045,9.3238,9.3182,9.4355,9.4579,9.3962,9.4888,9.4792,9.3707,9.4905,9.4934,9.3916,9.5665,9.6812,4.1699,4.3546,4.6066,4.8368,5.1852,5.5504,5.8605,5.9587,6.0442,6.2021,6.2353,6.2404,6.2705,6.2245,6.2248,6.3619,6.4437,6.5236,6.5778,6.6346,6.6559,6.5886,6.6273,6.663,6.6863,6.7606,6.8348,6.9069,6.9598,7.0033,7.0518,7.0509,7.0475,7.057,7.0006,6.9745,7.0029,7.0297,7.0706,7.1259,7.2138,7.2539,7.2565,7.2785,7.3306,7.4081,7.53,7.6119,7.6715,7.7839,7.8309,7.8387,7.8936,7.9433,7.9851,7.9982,8.0322,8.0688,8.0688,8.108,8.1419,8.0374,8.04,8.0871,8.0871,8.0975,8.1263,8.2277,8.3437,8.4338,8.4564,8.5716,8.7058,8.7859,8.8322,8.8732,8.922,8.8949,8.8569,8.856,8.7664,8.6957,8.7055,8.7419,8.8192,8.9656,8.9805,9.0207,9.1704,9.1873,9.2042,9.2671,9.2559,9.2474,9.2474,9.2474,9.2474,9.2474,9.305,9.3176,9.2697,9.334,9.3596,9.3305,9.3162,9.2848,9.2456,9.3678,9.4097,9.3887,9.5166,9.6405,4.1947,4.3905,4.661,5.0443,5.3811,5.6696,5.8868,5.9517,6.0127,6.1339,6.2184,6.2819,6.3072,6.2888,6.2985,6.371,6.4269,6.4784,6.5282,6.5633,6.5673,6.5384,6.5463,6.5607,6.5792,6.6582,6.7178,6.775,6.8708,6.9405,6.9597,6.9835,6.9875,6.9643,6.9356,6.9245,6.9496,6.977,7.0321,7.1108,7.2181,7.2856,7.3142,7.2866,7.3118,7.3894,7.4711,7.5332,7.5926,7.7353,7.7917,7.7995,7.8832,7.9511,8.0034,8.0034,8.0557,8.1263,8.0975,8.1263,8.1629,8.0714,8.0452,8.0478,8.0478,8.0478,8.0661,8.155,8.2403,8.32,8.3762,8.4691,8.5903,8.6993,8.7844,8.8596,8.9193,8.9057,8.884,8.884,8.8352,8.8026,8.8297,8.8651,8.9058,8.9883,8.9838,9.0257,9.1955,9.1887,9.2,9.2798,9.2671,9.2474,9.2474,9.2474,9.2474,9.2474,9.2783,9.2952,9.2924,9.2935,9.3012,9.318,9.3371,9.3295,9.3047,9.4175,9.4775,9.4809,9.6013,9.7015,4.2319,4.4562,4.7483,5.2559,5.5065,5.6623,5.8373,5.9226,5.9855,6.0886,6.1945,6.2908,6.3416,6.3508,6.3699,6.4056,6.4143,6.447,6.5328,6.5059,6.4905,6.5384,6.4724,6.442,6.4896,6.5373,6.5896,6.6536,6.775,6.8564,6.8676,6.9087,6.9127,6.8524,6.8586,6.8789,6.9223,6.9591,7.0149,7.1108,7.2386,7.3186,7.3594,7.3192,7.32,7.3613,7.4056,7.4573,7.5429,7.6841,7.7525,7.7708,7.8753,7.9511,8.0034,8.0139,8.0792,8.1576,8.1289,8.1446,8.1707,8.1184,8.0714,8.0322,8.0322,8.0322,8.0452,8.1027,8.1524,8.212,8.299,8.3742,8.4649,8.6136,8.7401,8.8496,8.9193,8.9301,8.9356,8.9464,8.9464,8.96,8.998,8.9953,8.9965,9.006,9.0023,9.0559,9.2261,9.1998,9.2139,9.3247,9.284,9.253,9.2643,9.2559,9.2474,9.2474,9.2587,9.2868,9.3373,9.2924,9.2838,9.3352,9.4104,9.4391,9.3998,9.5077,9.5708,9.6028,9.7056,9.7828,3.9853,4.4252,4.9385,5.2518,5.5024,5.6854,5.7552,5.8438,5.934,6.0387,6.1739,6.2821,6.339,6.3508,6.3508,6.3604,6.3566,6.3688,6.3782,6.3759,6.3758,6.3851,6.4016,6.425,6.441,6.4835,6.5495,6.6512,6.6773,6.732,6.8178,6.8194,6.799,6.7382,6.7834,6.804,6.813,6.9489,7.0514,7.1108,7.2696,7.3498,7.3619,7.4021,7.4122,7.4123,7.4123,7.5084,7.6465,7.7185,7.776,7.8283,7.891,7.9511,8.0086,8.0583,8.0871,8.1132,8.2073,8.2125,8.1759,8.1681,8.1602,8.155,8.155,8.155,8.1655,8.223,8.2465,8.2543,8.2696,8.3468,8.4449,8.5231,8.6597,8.7994,8.9092,8.9301,8.9464,8.998,9.0088,8.9953,8.9518,8.9003,8.9013,8.995,8.9667,8.9954,9.1621,9.1747,9.2139,9.3247,9.284,9.2699,9.3233,9.2783,9.2474,9.2474,9.298,9.3317,9.3402,9.3317,9.3289,9.3387,9.3437,9.3727,9.4169,9.5232,9.6057,9.6566,9.7163,9.7828,4.175,4.5644,4.9617,5.31,5.5002,5.6264,5.7578,5.8053,5.8613,6.0195,6.103,6.1829,6.2844,6.3294,6.3416,6.3118,6.3077,6.2918,6.2734,6.2944,6.306,6.3104,6.3502,6.3782,6.382,6.4578,6.5187,6.5707,6.6463,6.7266,6.8059,6.8001,6.7966,6.7996,6.7933,6.8055,6.8378,6.9057,7.021,7.1637,7.3298,7.3895,7.3619,7.4171,7.3987,7.34,7.4294,7.5139,7.5797,7.7024,7.7812,7.8387,7.8936,7.9511,8.0086,8.0661,8.108,8.1498,8.2334,8.2465,8.2256,8.2256,8.1811,8.1263,8.1263,8.1053,8.0923,8.1498,8.189,8.2308,8.2935,8.3739,8.4518,8.5402,8.6494,8.7483,8.8667,8.9126,8.9491,9.0088,9.0468,9.0631,9.0387,9.0387,9.0509,9.0579,9.0379,9.0587,9.1593,9.1691,9.2139,9.3247,9.284,9.2629,9.2951,9.2644,9.2545,9.2587,9.3064,9.3711,9.4441,9.4132,9.4104,9.4441,9.3666,9.3784,9.4603,9.5376,9.6441,9.7684,9.7906,9.835,4.2254,4.5175,4.7897,5.1977,5.3808,5.5052,5.7044,5.7384,5.7849,5.9556,6.0019,6.0533,6.1863,6.2844,6.3294,6.2748,6.2656,6.2521,6.2064,6.2294,6.2547,6.2547,6.3059,6.3407,6.3284,6.4226,6.4787,6.4811,6.6152,6.7043,6.7409,6.7623,6.7922,6.8346,6.804,6.8105,6.8709,6.898,7.0161,7.1972,7.3382,7.3799,7.3393,7.4096,7.387,7.2966,7.4437,7.5285,7.5627,7.6914,7.7812,7.8361,7.8779,7.9381,8.0086,8.0661,8.1263,8.1864,8.2439,8.2622,8.2622,8.2622,8.2021,8.1315,8.1315,8.1027,8.0766,8.121,8.1759,8.2439,8.3432,8.4112,8.4815,8.5803,8.656,8.7419,8.8502,8.914,8.9763,9.0522,9.0902,9.1174,9.1337,9.1472,9.1434,9.1044,9.0872,9.1054,9.1871,9.1914,9.2418,9.3696,9.3177,9.284,9.32,9.2952,9.2784,9.3005,9.3597,9.4301,9.5256,9.4835,9.4807,9.5284,9.4302,9.4311,9.5476,9.5884,9.6942,9.8641,9.8641,9.8931,3.861,4.0987,4.3608,4.7714,5.0718,5.3156,5.5009,5.6136,5.7171,5.8162,5.8793,5.9395,6.0378,6.2206,6.3322,6.2817,6.2656,6.2477,6.2016,6.19,6.1923,6.1923,6.2874,6.3316,6.2759,6.3758,6.4297,6.428,6.5251,6.5864,6.5866,6.6761,6.7268,6.7258,6.7661,6.8111,6.8583,6.9705,7.0801,7.1868,7.2591,7.284,7.2816,7.392,7.4096,7.3639,7.4616,7.5679,7.6667,7.7259,7.7812,7.8309,7.8335,7.9041,8.0086,8.0661,8.1263,8.1864,8.2439,8.2622,8.2622,8.2622,8.2596,8.2543,8.2543,8.2517,8.2491,8.2543,8.2962,8.3537,8.4138,8.4713,8.5288,8.5889,8.685,8.7936,8.9114,8.9734,9.0495,9.1689,9.1499,9.1309,9.1879,9.1038,9.0455,9.0907,9.0516,9.0752,9.2372,9.2555,9.3228,9.5059,9.4076,9.3851,9.5088,9.4048,9.3626,9.4273,9.4863,9.52,9.5284,9.5256,9.5256,9.5284,9.52,9.5743,9.6761,9.6649,9.7606,9.9337,9.9337,9.9366,3.9199,4.1018,4.3035,4.6264,4.8901,5.1281,5.3119,5.5049,5.6652,5.7595,5.8226,5.8969,6.026,6.1334,6.2002,6.1785,6.1763,6.1534,6.1095,6.1557,6.1857,6.1534,6.2388,6.2735,6.2272,6.2851,6.3428,6.3748,6.4354,6.5024,6.5676,6.6003,6.6626,6.7611,6.7546,6.7719,6.8222,6.9255,6.9986,7.0371,7.1305,7.1917,7.2238,7.2991,7.3619,7.4218,7.5246,7.6054,7.6855,7.7617,7.8335,7.8858,7.8858,7.9355,8.0086,8.0661,8.1263,8.1864,8.2439,8.2622,8.2622,8.2622,8.2387,8.2073,8.2073,8.2073,8.2151,8.2517,8.304,8.3798,8.5105,8.5314,8.5443,8.6331,8.7186,8.8039,8.9168,8.9491,8.9763,9.0197,9.0414,9.0604,9.0821,9.1147,9.1195,9.0611,9.1271,9.174,9.1567,9.2546,9.3631,9.4669,9.4326,9.4257,9.4697,9.4298,9.4173,9.4418,9.4607,9.5059,9.5846,9.5509,9.5481,9.5874,9.5481,9.5785,9.6876,9.7674,9.8454,9.9424,9.9831,9.957,3.8233,3.9778,4.1814,4.4712,4.659,4.8546,5.1839,5.3665,5.5103,5.6685,5.7464,5.8226,5.9511,6.0225,6.0699,6.1346,6.1555,6.1557,6.1051,6.1694,6.2039,6.1534,6.2364,6.2734,6.2295,6.2849,6.3305,6.3488,6.4086,6.4727,6.5385,6.5531,6.6323,6.7859,6.7637,6.7817,6.8517,6.8863,6.9227,6.9795,7.0353,7.1081,7.1912,7.2288,7.3167,7.4423,7.536,7.6273,7.7132,7.7911,7.8649,7.9145,7.8962,7.9355,8.0086,8.0661,8.1263,8.1864,8.2439,8.2622,8.2622,8.2622,8.2387,8.2073,8.2073,8.2204,8.2413,8.2805,8.3458,8.4399,8.5967,8.6203,8.615,8.6773,8.7186,8.7678,8.8592,8.9092,8.9437,8.9844,8.9925,8.9953,9.017,9.0875,9.1119,9.0333,9.1373,9.2118,9.1693,9.2577,9.3683,9.47,9.4529,9.4618,9.5032,9.4831,9.4847,9.5032,9.4999,9.534,9.6183,9.5818,9.579,9.6183,9.6015,9.6193,9.6893,9.7719,9.8515,9.9131,9.9762,9.9482,0.0,0.0,0.0,4.2725,4.3511,4.5117,5.0935,5.2051,5.2555,5.5361,5.6316,5.7042,5.8097,5.8647,5.9671,6.1628,6.2327,6.2521,6.2016,6.2383,6.2521,6.2016,6.2842,6.3261,6.2712,6.3525,6.387,6.3401,6.4325,6.4885,6.4861,6.539,6.6378,6.7947,6.7971,6.8401,6.9429,6.8504,6.8749,7.0223,6.9757,7.0403,7.1887,7.1887,7.2816,7.4397,7.4976,7.6093,7.7548,7.8093,7.8675,7.9119,7.857,7.9041,8.0113,8.0661,8.1263,8.189,8.2439,8.2522,8.2522,8.2622,8.2622,8.2622,8.2622,8.304,8.3484,8.351,8.4321,8.5445,8.6595,8.7327,8.7589,8.7063,8.6903,8.7083,8.7571,8.8491,8.9553,9.0745,9.0115,8.9491,9.0088,9.0224,9.0224,9.0224,9.0767,9.1597,9.2658,9.2843,9.3502,9.5211,9.484,9.4931,9.6054,9.5649,9.5565,9.6155,9.6183,9.6183,9.6211,9.6183,9.6183,9.6211,9.6802,9.7005,9.7019,9.695,9.7543,9.8611,9.9073,9.9018,3.7415,0.0,0.0,0.0,0.0,0.0,4.6001,4.7975,5.0023,5.2585,5.3691,5.4893,5.7305,5.8174,5.9063,6.0638,6.1023,6.1051,6.0914,6.1327,6.1603,6.1465,6.2016,6.2247,6.1695,6.2202,6.245,6.2383,6.3235,6.3804,6.3713,6.5005,6.6106,6.6935,6.7604,6.777,6.7363,6.7363,6.7806,6.8598,6.89,6.9833,7.1309,7.1736,7.2615,7.3845,7.4799,7.5671,7.6551,7.7872,7.8246,7.8085,7.8701,7.9449,8.0073,8.0229,8.093,8.1812,8.1968,8.2019,8.212,8.2421,8.2622,8.2622,8.2622,8.304,8.3563,8.3981,8.4634,8.5445,8.6595,8.7013,8.7171,8.7485,8.7193,8.7083,8.7571,8.7879,8.8395,8.905,8.9242,8.9491,9.0088,9.0577,9.0875,9.0875,9.1744,9.2313,9.225,9.2888,9.3631,9.4134,9.441,9.4923,9.5573,9.5434,9.5609,9.6183,9.579,9.5734,9.6183,9.5762,9.5734,9.6183,9.6352,9.6482,9.6414,9.8159,9.8833,9.8611,9.861,9.8844,3.8662,3.9123,3.9951,4.053,0.0,0.0,4.4705,4.6351,4.8114,5.1294,5.2585,5.391,5.6203,5.7213,5.8048,5.9396,6.0065,6.0754,6.135,6.1671,6.1878,6.1878,6.2131,6.2201,6.188,6.2087,6.2429,6.2874,6.3382,6.3791,6.393,6.506,6.5991,6.6528,6.7115,6.7241,6.7112,6.6964,6.7363,6.8382,6.8641,6.9641,7.1181,7.1918,7.2866,7.3971,7.4813,7.5537,7.6093,7.7277,7.7722,7.7625,7.8563,7.9249,7.9799,8.0067,8.0661,8.1481,8.174,8.1818,8.1919,8.2421,8.2622,8.2622,8.2622,8.304,8.3589,8.4164,8.5105,8.5994,8.6438,8.6725,8.6935,8.704,8.6829,8.6696,8.698,8.7186,8.7598,8.8314,8.891,8.9485,9.0143,9.0929,9.1499,9.1499,9.2313,9.2775,9.2422,9.3007,9.3406,9.3719,9.4058,9.4472,9.4987,9.5267,9.5573,9.5879,9.5521,9.5565,9.6183,9.5621,9.5565,9.6183,9.6211,9.6313,9.6515,9.7856,9.8533,9.8611,9.8697,9.9018,3.9612,3.9765,4.0634,4.1876,4.0655,0.0,4.5126,4.5691,4.6393,5.0272,5.1701,5.2819,5.4521,5.5533,5.6532,5.7514,5.8977,6.0659,6.2244,6.2544,6.2496,6.2496,6.2567,6.2593,6.2596,6.2781,6.3173,6.4043,6.4134,6.4431,6.5005,6.539,6.5838,6.6367,6.6484,6.6992,6.7848,6.7157,6.7423,6.8838,6.9034,6.9845,7.128,7.2301,7.3318,7.4347,7.49,7.5452,7.6078,7.6523,7.7039,7.7455,7.8065,7.8642,7.9292,7.9775,8.0312,8.0893,8.1435,8.1616,8.1818,8.2321,8.2522,8.2648,8.27,8.3118,8.372,8.4347,8.5575,8.6726,8.6281,8.6543,8.67,8.6177,8.6098,8.6072,8.5994,8.6436,8.7083,8.811,8.8846,8.953,9.0074,9.1201,9.1961,9.2096,9.2558,9.291,9.291,9.2829,9.3038,9.3511,9.356,9.3768,9.4472,9.4987,9.5267,9.5369,9.5375,9.5621,9.6183,9.5678,9.5649,9.6183,9.6211,9.6414,9.6918,9.7104,9.7733,9.8726,9.9218,9.9512,4.172,4.1441,4.1358,4.1628,4.1358,0.0,4.1007,4.1949,4.3352,4.5316,4.6394,4.7918,5.0747,5.1812,5.2498,5.3469,5.5892,5.8382,6.0661,6.1258,6.1534,6.1534,6.1879,6.2109,6.2084,6.3214,6.3856,6.3587,6.3924,6.4578,6.551,6.5246,6.527,6.5886,6.6669,6.7168,6.7358,6.7976,6.8709,6.9393,7.0279,7.1125,7.175,7.237,7.3117,7.3795,7.4322,7.49,7.5427,7.5977,7.6252,7.6449,7.7434,7.8146,7.8665,7.8768,7.943,8.0345,8.0473,8.0804,8.1211,8.1818,8.2221,8.2726,8.3171,8.372,8.4399,8.5445,8.5938,8.6224,8.6621,8.6437,8.6145,8.6098,8.6098,8.5967,8.5471,8.5836,8.6488,8.7083,8.7986,8.9002,9.015,9.081,9.1635,9.2585,9.2829,9.291,9.291,9.2476,9.2368,9.2961,9.2581,9.2784,9.3796,9.3927,9.4444,9.5369,9.536,9.5665,9.6183,9.6099,9.6071,9.6211,9.6211,9.6211,9.6414,9.773,9.879,9.9388,10.0011,10.0208,4.2816,4.2452,4.2352,4.2807,4.2062,0.0,0.0,4.1665,4.2632,4.4486,4.518,4.6192,4.8798,4.9456,4.9937,5.1257,5.4052,5.6273,5.7033,5.9309,6.0845,6.0845,6.1301,6.1664,6.1845,6.2858,6.3647,6.4181,6.4397,6.4741,6.5294,6.5318,6.5318,6.5318,6.634,6.6935,6.7212,6.8025,6.8813,6.9548,7.067,7.1499,7.1987,7.3097,7.372,7.4046,7.4875,7.5402,7.5653,7.5954,7.6055,7.6204,7.7254,7.801,7.8568,7.8822,7.9506,8.0191,8.0191,8.0498,8.1109,8.1616,8.212,8.27,8.2962,8.3667,8.4451,8.5053,8.5625,8.6042,8.6015,8.6042,8.6068,8.6068,8.6071,8.602,8.5706,8.5863,8.6176,8.6488,8.7631,8.8936,9.0131,9.095,9.1879,9.2775,9.291,9.291,9.291,9.2639,9.2558,9.2883,9.2368,9.2363,9.3275,9.3238,9.3625,9.452,9.4784,9.5165,9.5777,9.5801,9.5874,9.6183,9.6211,9.6211,9.6211,9.7642,9.8661,9.9191,10.0276,10.0702,4.398,4.3639,4.3698,4.4174,4.2973,4.1793,0.0,0.0,0.0,4.4379,4.4642,4.5135,4.7029,4.7191,4.7626,4.9152,5.1971,5.3701,5.2853,5.6365,5.9123,5.9421,6.0349,6.1028,6.1385,6.1846,6.2988,6.5106,6.4541,6.4338,6.5029,6.5462,6.551,6.5077,6.6083,6.6843,6.7304,6.8147,6.8965,6.9875,7.1012,7.1798,7.2371,7.3653,7.4372,7.4623,7.5502,7.5954,7.6055,7.6055,7.6055,7.6155,7.7034,7.7813,7.8392,7.8921,7.9502,8.0089,8.0191,8.0498,8.1109,8.1616,8.2198,8.2805,8.2805,8.3589,8.4478,8.4373,8.5129,8.5756,8.53,8.5516,8.5861,8.5906,8.5965,8.6046,8.5941,8.602,8.6098,8.6098,8.7376,8.884,8.9951,9.1085,9.2042,9.2639,9.272,9.272,9.272,9.272,9.2775,9.2883,9.2368,9.2259,9.2856,9.2866,9.3095,9.3692,9.4319,9.4877,9.5369,9.5431,9.5678,9.6183,9.6211,9.6211,9.6211,9.744,9.8314,9.8961,10.0481,10.0922,4.6146,4.5901,4.5685,4.4588,4.4422,4.3822,4.1151,0.0,4.1698,4.1771,0.0,4.2284,4.4074,0.0,0.0,4.5483,4.7865,4.944,4.9178,5.1793,5.4278,5.5633,5.815,5.9766,5.9829,5.9906,6.1693,6.6019,6.292,6.2274,6.5462,6.5678,6.5678,6.5606,6.662,6.7396,6.7855,6.935,7.0384,7.0898,7.2044,7.2846,7.3398,7.3619,7.4222,7.5151,7.5276,7.5603,7.6055,7.6055,7.6055,7.608,7.618,7.6933,7.7813,7.7837,7.8515,7.96,7.9986,8.0498,8.1109,8.1616,8.2559,8.338,8.338,8.419,8.5,8.4478,8.4732,8.5195,8.518,8.5201,8.5221,8.5285,8.5757,8.5941,8.5419,8.5706,8.6098,8.6098,8.7033,8.8127,8.9377,9.045,9.1445,9.2015,9.2123,9.2123,9.2123,9.2123,9.2313,9.2829,9.2368,9.2259,9.2856,9.2934,9.3143,9.3615,9.481,9.5383,9.5397,9.5823,9.6127,9.6211,9.6211,9.6211,9.6211,9.744,9.8542,9.9561,10.0281,10.0754,4.6618,4.6557,4.6492,4.5374,4.4857,4.3967,4.1565,4.0888,4.092,4.1629,0.0,0.0,0.0,0.0,0.0,0.0,4.5728,4.7153,4.6239,4.877,5.1496,5.3268,5.4499,5.6057,5.8059,5.9607,6.1562,6.4452,6.3025,6.3001,6.5149,6.6098,6.6475,6.6184,6.7128,6.8003,6.8874,6.9851,7.0795,7.1585,7.269,7.3368,7.3619,7.4247,7.4799,7.5251,7.5578,7.5854,7.6153,7.6351,7.6548,7.6548,7.6843,7.7127,7.726,7.7586,7.8191,7.8923,7.9101,7.9911,8.1051,8.2016,8.2578,8.304,8.338,8.3824,8.4138,8.3903,8.4525,8.5122,8.4729,8.5175,8.5727,8.5622,8.5861,8.602,8.5758,8.5915,8.6281,8.6908,8.7954,8.9083,9.0251,9.0846,9.1337,9.1933,9.2313,9.253,9.253,9.253,9.2612,9.2883,9.2368,9.2259,9.2856,9.291,9.3151,9.3715,9.5157,9.6152,9.6337,9.6615,9.6717,9.6717,9.638,9.638,9.6717,9.6836,9.7727,9.9161,10.0511,10.1159,4.7479,4.7524,4.7568,4.5912,4.4981,4.3946,4.1855,4.1013,4.1032,4.206,4.1946,0.0,0.0,0.0,4.3002,4.2951,0.0,4.5666,4.4388,4.6294,4.8497,5.0329,5.136,5.3202,5.661,5.8174,5.9991,6.2545,6.2185,6.2849,6.5029,6.6359,6.693,6.6712,6.7659,6.8678,6.9535,7.0291,7.1044,7.1912,7.3067,7.3669,7.3845,7.4799,7.5327,7.5477,7.5879,7.6153,7.6351,7.6646,7.6941,7.7039,7.743,7.7366,7.7106,7.7661,7.8265,7.8692,7.8892,7.9949,8.1315,8.2156,8.2491,8.27,8.3118,8.3354,8.3484,8.3484,8.4085,8.4711,8.4594,8.5073,8.5679,8.6193,8.6173,8.6202,8.628,8.6176,8.6464,8.7537,8.8481,8.9428,9.0699,9.1139,9.1526,9.1933,9.2368,9.2666,9.2666,9.2802,9.291,9.291,9.2503,9.2422,9.2856,9.291,9.3314,9.442,9.5669,9.6721,9.7645,9.7307,9.7111,9.7111,9.6521,9.6436,9.6858,9.6408,9.7044,9.8533,10.0166,10.1116,4.9609,4.962,4.9452,4.5892,4.5002,4.4256,4.1524,4.1638,4.2334,4.2722,4.3764,4.4678,4.4663,4.4923,4.4983,4.4397,4.4731,0.0,0.0,4.4001,4.4566,4.6127,4.9345,5.261,5.564,5.4603,5.5824,6.0867,5.9403,6.0432,6.5438,6.6183,6.6713,6.7218,6.8313,6.9075,6.9545,7.0675,7.1418,7.1912,7.3067,7.387,7.4397,7.4975,7.5527,7.603,7.6055,7.6351,7.6745,7.6745,7.7137,7.7625,7.7625,7.7625,7.7604,7.8167,7.8756,7.9342,7.9886,8.0769,8.1785,8.1785,8.2177,8.2622,8.2648,8.304,8.3484,8.3484,8.351,8.3772,8.4843,8.4765,8.4763,8.6483,8.6488,8.628,8.6773,8.6488,8.6464,8.7537,8.7817,8.8306,9.0001,9.1193,9.1988,9.2015,9.2042,9.2042,9.2042,9.2558,9.291,9.291,9.2883,9.2883,9.291,9.291,9.3925,9.6183,9.6339,9.7053,9.8881,9.7757,9.7111,9.7111,9.6521,9.6211,9.624,9.6211,9.6818,9.7875,9.9104,10.0281,5.1095,5.1301,5.1094,4.8004,4.6798,4.5644,4.2861,4.2476,4.2592,4.2376,4.3658,4.4646,4.4319,4.4814,4.4997,4.4157,4.4431,4.4228,0.0,4.2184,4.2522,4.4382,4.7399,4.9523,4.9855,5.3265,5.6301,5.8414,6.0122,6.2297,6.5029,6.6629,6.7589,6.7758,6.8762,6.979,7.0675,7.0968,7.1618,7.2464,7.3594,7.4222,7.4448,7.5352,7.5879,7.6055,7.6055,7.6351,7.6843,7.7235,7.7625,7.8208,7.8498,7.8691,7.862,7.8025,7.8231,7.8879,8.0218,8.0903,8.1236,8.1655,8.2151,8.2569,8.2177,8.2465,8.2909,8.2909,8.3197,8.3667,8.4425,8.4765,8.5208,8.6588,8.6488,8.628,8.6773,8.6777,8.7093,8.8642,8.9194,8.9986,9.1733,9.2372,9.2476,9.2069,9.2341,9.2612,9.2612,9.2775,9.291,9.291,9.291,9.291,9.291,9.3579,9.4842,9.6923,9.7311,9.7919,9.8993,9.8207,9.7757,9.7757,9.6717,9.6408,9.6802,9.638,9.6789,9.7818,9.8675,9.9908,5.2751,5.3086,5.2819,5.0162,4.9154,4.8014,4.4872,4.4509,4.469,4.4,4.4884,4.6001,4.668,4.6419,4.5967,4.5479,4.5206,4.425,0.0,4.1466,4.1645,4.2925,4.5089,4.6796,4.7749,5.0966,0.0,5.7557,0.0,0.0,0.0,6.6533,6.7662,6.8049,6.9249,7.0356,7.115,7.1365,7.1917,7.274,7.387,7.4423,7.4448,7.5552,7.6055,7.6055,7.6055,7.6449,7.7137,7.743,7.8014,7.8691,7.9076,7.9172,7.9076,7.8401,7.8401,7.8795,7.9911,8.0531,8.0897,8.108,8.1811,8.2517,8.1942,8.2177,8.2674,8.2883,8.3066,8.3354,8.4138,8.4608,8.5129,8.6325,8.6331,8.628,8.6773,8.6908,8.7381,8.9143,8.9778,9.0601,9.2538,9.272,9.253,9.2368,9.2666,9.291,9.291,9.291,9.291,9.291,9.3073,9.3317,9.3534,9.4198,9.5166,9.6605,9.7595,9.826,9.868,9.8524,9.8403,9.8403,9.7392,9.6942,9.7111,9.6942,9.714,9.7519,9.8375,9.9492]}]]